     2.10           OBSERVATION DATA    G (GPS)             RINEX VERSION / TYPE
teqc 2002Mar14 20050427 00:13:38UTC                         PGM / RUN BY / DATE
MSWin2000|IAx86-PII|bcc32 5.0|MSWin95/98/NT/2000|486/DX+    COMMENT
BIT 2 OF LLI FLAGS DATA COLLECTED UNDER A/S CONDITION       COMMENT
ILLO                                                        MARKER NAME
RF_ -Unknown-                                               OBSERVER / AGENCY
_11 ASHTECH Z-XII 1L00                                      REC # / TYPE / VERS
_18 -Unknown-                                               ANT # / TYPE
  3516437.0200   783648.4600  5245599.8300                  APPROX POSITION XYZ
        0.0000        0.0000        0.0000                  ANTENNA: DELTA H/E/N
     1     1                                                WAVELENGTH FACT L1/2
     7    L1    L2    C1    P2    P1    D1    D2            # / TYPES OF OBSERV
SNR is mapped to RINEX snr flag value [1-9]                 COMMENT
L1: 1 -> 1; 90 -> 5; 210 -> 9                               COMMENT
L2: 1 -> 1; 150 -> 5; 250 -> 9                              COMMENT
  2005     4    25    12    46    0.0000000     GPS         TIME OF FIRST OBS
                                                            END OF HEADER
 05  4 25 12 46  0.0000000  0  6G31G 5G 1G 7G20G11
    -75513.63649    -52844.47947  17898949.4034   17898954.6914   17898949.2994
      1781.0474       1387.8294
   -131667.25744                  18471578.5224
      6447.2054       5023.7964
   -117339.42446                  18660935.0514   18660937.4644
      4667.9334       3637.3504
   -151700.79349   -107173.52447  17184273.4864   17184279.6944   17184273.3814
      3596.2494       2802.2724
    -32019.30157                  17062760.1654   17062764.9794
      4970.1544       3872.8474
    -42223.55345                  20094229.5294   20094212.5854
      1242.4654        968.1554
 05  4 25 12 46 14.9990000  0  3G 1G 7G11
   -255499.38149   -171908.69446  21345742.5314   21345743.3714   21345741.0924
      4675.6554       3643.3674
   -205681.94149   -149236.78247  19872133.2474   19872139.2414   19872133.2954
      3606.0614       2809.9184
    -82576.29849    -56828.86445  22788796.0184   22788779.1914   22788796.6664
      1258.2984        980.4924
 05  4 25 12 46 29.9990000  0  3G 1G 7G11
   -325695.22249   -226606.94646  21332385.4864   21332385.3344   21332383.8524
      4683.6134       3649.5694
   -259850.43149   -191446.02847  19861825.1594   19861831.8454   19861825.1064
      3616.0744       2817.7204
   -101572.73148    -71631.39545  22785184.0374   22785164.1894   22785184.9504
      1274.3854        993.0274
 05  4 25 12 46 45.0000000  0  5G 5G 1G 7G20G11
   -357622.31344                  25311512.7864
      6472.4524       5043.4694
   -395944.77449   -281346.79246  25516112.2064   25516111.0464   25516110.8804
      4690.9774       3655.3074
   -314119.70949   -233733.66947  24048592.9364   24048598.5884   24048592.2604
      3625.7634       2825.2704
   -296864.29849   -206602.34747  23915352.3284   23915358.0734   23915351.5644
      4992.2864       3890.0934
   -120789.97048    -86605.93345  26978618.9884   26978600.8234   26978622.0524
      1289.9294       1005.1394
 05  4 25 12 47  0.0000000  0  5G 5G 1G 7G20G11
   -433167.43844                  25293027.6264
      6480.0394       5049.3814
   -466362.29649   -336217.56646  25502712.3214   25502711.3144   25502710.6774
      4697.8484       3660.6614
   -368576.28359   -276167.29857  24038228.7204   24038235.7674   24038229.6934
      3634.8594       2832.3584
   -371799.13049   -264993.07447  23901093.1234   23901098.5634   23901091.9954
      4998.8514       3895.2094
   -140253.25258   -101772.18555  26974918.0114   26974896.8274   26974918.7464
      1305.0244       1016.9024
 05  4 25 12 47 15.0010000  0  5G 5G 1G 7G20G11
    -44427.84646                  22876172.2844   22876176.2514
      6486.8084       5054.6564
   -536919.44559   -391197.16556  23090946.5054   23090945.5174   23090945.1724
      4703.9544       3665.4194
   -423196.28449   -318728.35747  21629495.9304   21629502.3784   21629496.2054
      3643.1914       2838.8504
   -446871.71749   -323491.19147  21488467.6894   21488471.8544   21488466.6794
      5004.6424       3899.7214
   -159948.42558   -117119.13455  24572840.8724   24572807.7314   24572835.2244
      1319.0924       1027.8644
 05  4 25 12 47 30.0010000  0  5G 5G 1G 7G20G11
   -120284.44646                  22857647.0414   22857651.2764
      6493.1364       5059.5864
   -607520.89549   -446211.38746  23077511.5804   23077510.7804   23077509.6704
      4709.5794       3669.8024
   -477903.36649   -361357.26747  21619086.5434   21619091.9364   21619086.1284
      3651.0424       2844.9684
   -521981.11359   -382018.00657  21474174.5484   21474178.7174   21474173.5964
      5009.9794       3903.8804
   -179841.40858   -132620.28255  24569061.2954   24569024.7924   24569049.6874
      1333.0934       1038.7744
 05  4 25 12 47 45.0000000  0  6G 5G 1G 7G14G20G11
   -904365.98459   -196203.73056  22839106.0154   22839111.0884   22839103.7614
      6498.4514       5063.7284
   -678194.55449   -501281.82346  23064062.0604   23064062.2424   23064060.2574
      4714.2484       3673.4404
   -532717.18649   -404069.38447  21608656.2384   21608661.1644   21608655.2464
      3657.9394       2850.3424
   -163258.58659   -116075.86355  24545182.7424   24545188.1684   24545182.6674
      2300.4184       1792.5344
   -597157.92949   -440597.34347  21459867.8684   21459872.0934   21459867.3994
      5014.3464       3907.2824
   -199933.26158   -148276.40354  24565233.2684   24565199.4474   24565224.7154
      1346.0084       1048.8374
 05  4 25 12 48  0.0000000  0  6G 5G 1G 7G14G20G11
  -1001870.77049   -272181.46846  22820550.3124   22820557.4474   22820549.6174
      6502.1404       5066.6034
   -748931.88849   -556401.97046  23050600.1554   23050601.8944   23050597.9314
      4717.3064       3675.8234
   -587626.97149   -446856.31247  21598207.0164   21598212.1954   21598206.4204
      3663.2244       2854.4604
   -197813.33849   -143001.63945  24538608.3744   24538612.2194   24538605.6414
      2306.8294       1797.5294
   -672393.81249   -499222.71047  21445549.8654   21445555.6844   21445549.9094
      5017.0764       3909.4104
   -220208.64049   -164075.48444  24561367.3814   24561341.0454   24561366.9464
      1357.3224       1057.6534
 05  4 25 12 48 15.0000000  0  6G 5G 1G 7G14G20G11
  -1099435.01149   -348205.55346  22801982.9274   22801991.0454   22801982.7034
      6506.4994       5069.9994
   -819719.04249   -611560.87946  23037128.8264   23037132.0224   23037126.5744
      4721.0584       3678.7464
   -642619.97449   -489707.98647  21587742.1054   21587747.5034   21587741.3454
      3669.1704       2859.0944
   -232468.58649   -170005.73745  24532012.7594   24532017.9204   24532010.1054
      2313.9624       1803.0874
   -747674.94049   -557883.32047  21431224.3304   21431230.3464   21431224.3694
      5020.4964       3912.0754
   -240657.41549   -180009.65745  24557471.7564   24557447.0554   24557475.2454
      1369.2694       1066.9634
 05  4 25 12 48 30.0000000  0  6G 5G 1G 7G14G20G11
  -1197063.66349   -424279.84246  22783404.4224   22783413.3604   22783405.7614
      6510.5624       5073.1654
   -890561.35949   -666762.76046  23023645.6194   23023651.2704   23023642.9964
      4724.4604       3681.3974
   -697701.68349   -532628.75047  21577260.1044   21577266.2814   21577259.5114
      3674.8614       2863.5284
   -267229.83759   -197092.46655  24525395.6214   24525403.0144   24525393.7004
      2320.7614       1808.3854
   -823006.53649   -616583.27147  21416890.0164   21416896.4234   21416889.5954
      5023.6184       3914.5084
   -261285.14949   -196083.26645  24553542.3864   24553526.2394   24553548.4364
      1380.9974       1076.1024
 05  4 25 12 48 45.0000000  0  6G 5G 1G 7G14G20G11
  -1294749.23849   -500398.45746  22764817.2004   22764825.2384   22764817.0654
      6514.4454       5076.1914
   -961451.63149   -722002.00346  23010152.2584   23010161.9754   23010151.9784
      4727.8054       3684.0044
   -752865.06549   -575613.23047  21566762.7664   21566769.0944   21566762.5684
      3680.4274       2867.8654
   -302090.09349   -224256.35145  24518760.8484   24518770.8704   24518761.3384
      2327.5204       1813.6524
   -898381.28849   -675316.85147  21402547.7134   21402553.5944   21402547.3824
      5026.6034       3916.8344
   -282084.84849   -212290.88145  24549582.4544   24549565.7264   24549587.0954
      1392.6024       1085.1444
 05  4 25 12 49  0.0000000  0  6G 5G 1G 7G14G20G11
  -1392496.09849   -576564.83846  22746217.6724   22746225.3034   22746216.7524
      6518.2734       5079.1744
  -1032394.30149   -777282.06946  22996650.5194   22996661.4934   22996650.5114
      4731.0274       3686.5154
   -808114.48449   -618664.65947  21556249.3904   21556255.6144   21556249.1554
      3685.9164       2872.1424
   -337054.25149   -251501.18145  24512108.6434   24512116.7684   24512108.2634
      2334.1804       1818.8424
   -973803.78949   -734087.66547  21388196.1794   21388201.3654   21388195.2334
      5029.5594       3919.1374
   -303061.36849   -228636.34045  24545590.5914   24545577.8294   24545594.7074
      1404.1104       1094.1124
 05  4 25 12 49 15.0000000  0  6G 5G 1G 7G14G20G11
  -1490295.64149   -652772.28846  22727607.8474   22727615.0294   22727605.5904
      6521.5754       5081.7474
  -1103380.96649   -832596.31946  22983141.4574   22983153.5804   22983141.8244
      4733.7924       3688.6694
   -863441.98249   -661777.00947  21545721.2114   21545727.1164   21545720.6024
      3690.9014       2876.0274
   -372114.23449   -278820.67945  24505438.2284   24505444.2554   24505437.8734
      2340.3824       1823.6744
  -1049265.58949   -792889.09147  21373836.4324   21373841.3814   21373835.5894
      5031.9534       3921.0024
   -324206.31449   -245113.09145  24541565.7414   24541554.9654   24541567.4254
      1415.0954       1102.6714
 05  4 25 12 49 30.0000000  0  6G 5G 1G 7G14G20G11
  -1588137.77449   -729012.90446  22708986.6454   22708995.9084   22708985.7934
      6524.0114       5083.6454
  -1174401.95249   -887937.31746  22969625.5424   22969638.1204   22969626.1364
      4735.6774       3690.1384
   -918837.74749   -704942.56947  21535179.3954   21535185.3374   21535178.6344
      3695.0614       2879.2684
   -407260.49349   -306207.40145  24498750.7164   24498755.0544   24498749.3624
      2345.7174       1827.8314
  -1124756.99349   -851713.59347  21359470.3224   21359475.3414   21359469.3474
      5033.5454       3922.2434
   -345510.12249   -261713.60045  24537508.8734   24537500.6674   24537509.6184
      1425.3024       1110.6254
 05  4 25 12 49 45.0000000  0  6G 5G 1G 7G14G20G11
  -1686013.57849   -805279.79346  22690358.3994   22690369.9814   22690359.9474
      6526.1384       5085.3024
  -1245448.49849   -943298.23146  22956104.7674   22956117.2024   22956106.2464
      4737.2544       3691.3674
   -974293.06849   -748154.52947  21524626.4204   21524632.4264   21524625.6594
      3698.9294       2882.2824
   -442484.60649   -333654.74345  24492047.7814   24492051.6654   24492046.4674
      2350.8094       1831.7994
  -1200269.20349   -910554.30547  21345100.0854   21345105.0364   21345099.3044
      5034.7964       3923.2184
   -366964.17449   -278431.12445  24533424.5764   24533417.1374   24533425.8614
      1435.2384       1118.3674
 05  4 25 12 50  0.0000000  0  6G 5G 1G 7G14G20G11
  -1783917.69749   -881568.77746  22671728.9464   22671738.3154   22671731.2354
      6527.6064       5086.4464
  -1316515.64549   -998675.26646  22942580.7784   22942593.8444   22942582.8034
      4738.2454       3692.1394
  -1029802.95049   -791409.06547  21514063.1754   21514069.3374   21514062.8004
      3702.2044       2884.8344
   -477781.76149   -361159.01545  24485329.7474   24485336.6704   24485329.5114
      2355.3354       1835.3264
  -1275797.06049   -969407.20146  21330727.1264   21330731.9454   21330726.3964
      5035.4614       3923.7364
   -388563.61049   -295261.87045  24529314.2194   24529310.1974   24529316.8354
      1444.5504       1125.6234
 05  4 25 12 50 15.0000000  0  6G 5G 1G 7G14G20G11
  -1881844.29049   -957875.19146  22653098.9754   22653103.6854   22653098.1564
      6529.1894       5087.6804
  -1387597.59049  -1054063.80846  22929054.6074   22929067.3274   22929056.2924
      4739.3184       3692.9754
  -1085361.66749   -834701.61347  21503491.1774   21503496.7694   21503490.7144
      3705.4854       2887.3914
   -513146.51349   -388715.98845  24478598.0424   24478610.0274   24478597.2154
      2359.9174       1838.8964
  -1351334.94949  -1028267.89146  21316352.9584   21316358.0704   21316352.6624
      5036.2084       3924.3184
   -410303.07249   -312201.74245  24525177.7634   24525172.8484   24525180.6044
      1454.0114       1132.9964
 05  4 25 12 50 30.0000000  0  6G 5G 1G 7G14G20G11
  -1979788.76649  -1034195.54946  22634462.7474   22634466.2634   22634460.1224
      6529.9984       5088.3104
  -1458691.18249  -1109462.00646  22915526.3064   22915541.0484   22915527.7544
      4739.6604       3693.2424
  -1140965.01049   -878028.88747  21492910.4734   21492916.2234   21492909.8284
      3708.0814       2889.4144
   -548574.91249   -416322.56845  24471854.5084   24471867.2554   24471857.0554
      2363.7964       1841.9194
  -1426878.48149  -1087132.95746  21301977.7434   21301982.8844   21301977.3144
      5036.1964       3924.3094
   -432178.40349   -329247.51045  24521016.3264   24521013.6334   24521015.5124
      1462.6464       1139.7244
 05  4 25 12 50 45.0000000  0  6G 5G 1G 7G14G20G11
  -2077746.04649  -1110525.90346  22615821.6454   22615824.7574   22615819.7714
      6530.7724       5088.9134
  -1529789.23749  -1164863.03446  22901997.4934   22902009.8624   22901998.4754
      4739.7954       3693.3474
  -1196608.14749   -921387.14547  21482321.7744   21482327.3604   21482321.5934
      3710.6634       2891.4264
   -584062.39449   -443975.16345  24465102.5394   24465116.1054   24465102.7284
      2367.6934       1844.9564
  -1502422.90049  -1145998.74346  21287602.8474   21287608.2864   21287602.0994
      5036.1834       3924.2984
   -454184.91449   -346395.49945  24516830.6404   24516827.5394   24516829.3964
      1471.3864       1146.5354
 05  4 25 12 51  0.0000000  0  6G 5G 1G 7G14G20G11
  -2175712.98349  -1186863.91846  22597175.3384   22597183.3444   22597175.6544
      6531.5314       5089.5054
  -1600889.52749  -1220265.57346  22888468.2104   22888478.8674   22888468.8614
      4740.2354       3693.6904
  -1252288.26549   -964774.26047  21471725.9494   21471731.9744   21471725.9034
      3713.3314       2893.5054
   -619606.23049   -471671.69245  24458340.9954   24458349.4964   24458341.6614
      2371.5924       1847.9944
  -1577965.39349  -1204863.03846  21273227.6194   21273232.8464   21273226.5454
      5036.2344       3924.3384
   -476319.64849   -363643.39344  24512620.6794   24512615.9934   24512619.7024
      1480.0544       1153.2894
 05  4 25 12 51 15.0000000  0  6G 5G 1G 7G14G20G11
  -2273689.44949  -1263209.19846  22578529.9864   22578538.6514   22578530.3994
      6531.8324       5089.7394
  -1671993.57949  -1275671.28446  22874939.4954   22874948.6224   22874939.5044
      4740.1394       3693.6154
  -1308006.10649  -1008190.78347  21461123.1524   21461129.2104   21461123.3034
      3715.4684       2895.1704
   -655207.27549   -499412.78545  24451567.7624   24451575.3464   24451567.6604
      2375.0914       1850.7204
  -1653506.00949  -1263725.87746  21258852.4594   21258857.8064   21258851.7844
      5035.7314       3923.9464
   -498583.51649   -380991.90344  24508384.5094   24508372.3494   24508387.1604
      1488.3174       1159.7284
 05  4 25 12 51 30.0000000  0  6G 5G 1G 7G14G20G11
  -2371671.04749  -1339558.46646  22559886.9814   22559892.3454   22559887.1144
      6532.1784       5090.0094
  -1743096.29249  -1331075.94146  22861411.5724   22861418.1674   22861410.5724
      4740.0854       3693.5734
  -1363757.03049  -1051633.08047  21450514.2654   21450520.0894   21450513.9954
      3717.6954       2896.9054
   -690861.34649   -527195.20445  24444783.1604   24444790.5614   24444782.1064
      2378.6204       1853.4704
  -1729040.20549  -1322583.69546  21244478.8584   21244484.3424   21244478.0534
      5035.3174       3923.6244
   -520972.22749   -398437.70644  24504126.1244   24504115.2854   24504125.4274
      1496.6454       1166.2174
 05  4 25 12 51 45.0000000  0  6G 5G 1G 7G14G20G11
  -2469654.90349  -1415909.50346  22541242.4454   22541246.8644   22541241.7414
      6532.4124       5090.1914
  -1814195.24549  -1386477.71446  22847884.1274   22847888.1944   22847881.9534
      4739.8924       3693.4224
  -1419538.39249  -1095099.03547  21439899.9674   21439905.0574   21439899.0514
      3719.7894       2898.5374
   -726566.16849   -555017.15745  24437988.3454   24437993.3974   24437988.2504
      2382.1004       1856.1824
  -1804565.68949  -1381434.78646  21230107.3164   21230111.8974   21230106.8114
      5034.8114       3923.2294
   -543483.19348   -415978.78544  24499844.0954   24499833.6914   24499846.8434
      1504.9654       1172.7004
 05  4 25 12 52  0.0000000  0  6G 5G 1G 7G14G20G11
  -2567641.06549  -1492262.34046  22522595.7724   22522601.4754   22522596.0124
      6532.4914       5090.2534
  -1885290.54949  -1441876.56846  22834356.7054   22834359.5194   22834354.2124
      4739.6404       3693.2264
  -1475350.88649  -1138589.35047  21429279.1524   21429284.0444   21429278.3204
      3721.8194       2900.1194
   -762322.07749   -582878.92345  24431183.4004   24431188.2774   24431183.0594
      2385.4434       1858.7874
  -1880082.52849  -1440279.14747  21215737.2244   21215740.9504   21215736.2384
      5034.2304       3922.7774
   -566116.79449   -433615.42644  24495539.3204   24495525.3384   24495539.4224
      1513.0134       1178.9714
 05  4 25 12 52 15.0000000  0  6G 5G 1G 7G14G20G11
  -2665625.62149  -1568613.93846  22503950.8444   22503955.8664   22503949.0884
      6532.2414       5090.0584
  -1956379.11149  -1497270.47546  22820830.6854   22820831.9544   22820828.4774
      4738.9844       3692.7154
  -1531190.61149  -1182100.86247  21418653.1784   21418658.5934   21418652.5174
      3723.5544       2901.4714
   -798125.85449   -610777.96645  24424369.5024   24424376.3104   24424369.2384
      2388.5504       1861.2084
  -1955587.25049  -1499114.16747  21201369.0934   21201372.5294   21201368.1734
      5033.2624       3922.0224
   -588869.71248   -451345.04644  24491209.0084   24491199.2334   24491210.4024
      1520.7594       1185.0074
 05  4 25 12 52 30.0000000  0  6G 5G 1G 7G14G20G11
  -2763609.62249  -1644965.12246  22485303.9934   22485309.3664   22485303.2194
      6532.2554       5090.0694
  -2027461.51149  -1552659.40746  22807305.6214   22807304.8244   22807303.9184
      4738.6384       3692.4454
  -1587058.91149  -1225634.58047  21408022.0304   21408027.5164   21408021.1224
      3725.4824       2902.9734
   -833979.02349   -638715.54545  24417544.8834   24417554.4044   24417546.1894
      2391.8994       1863.8174
  -2031081.08449  -1557940.70347  21187002.7954   21187007.3134   21187002.4534
      5032.5104       3921.4364
   -611743.48658   -469168.74154  24486854.0404   24486857.3144   24486856.6544
      1529.0414       1191.4614
 05  4 25 12 52 45.0000000  0  6G 5G 1G 7G14G20G11
  -2861588.56549  -1721312.47746  22466659.5234   22466662.7914   22466658.8264
      6531.7674       5089.6894
  -2098533.26649  -1608039.91846  22793782.3464   22793780.3634   22793780.7124
      4737.8024       3691.7944
  -1642951.56549  -1269187.27447  21397386.0464   21397391.4834   21397385.2084
      3726.9664       2904.1294
   -869877.42949   -666688.36645  24410713.3414   24410724.7134   24410715.3514
      2394.7404       1866.0314
  -2106559.68349  -1616755.44547  21172639.6074   21172645.0774   21172638.9564
      5031.4424       3920.6044
   -634733.61758   -487083.11254  24482480.5274   24482476.1794   24482482.0034
      1536.4114       1197.2034
 05  4 25 12 53  0.0000000  0  6G 5G 1G 7G14G20G11
  -2959563.26149  -1797656.42146  22448015.5784   22448019.5794   22448014.5374
      6531.5094       5089.4884
  -2169596.05449  -1663413.43146  22780260.1514   22780256.9344   22780258.4104
      4737.2344       3691.3514
  -1698869.95049  -1312760.02847  21386744.5544   21386750.5924   21386744.4094
      3728.7364       2905.5094
   -905822.82849   -694697.77045  24403873.9334   24403886.3814   24403874.9924
      2397.9574       1868.5384
  -2182023.90649  -1675558.74047  21158279.3284   21158285.3394   21158278.7464
      5030.5364       3919.8984
   -657841.95748   -505089.58244  24478085.1734   24478077.6324   24478084.3204
      1544.5434       1203.5404
 05  4 25 12 53 14.9990000  0  6G 5G 1G 7G14G20G11
  -3057524.76949  -1873989.97346  22429373.8534   22429378.0354   22429372.5484
      6530.8464       5088.9714
  -2240642.94149  -1718774.52846  22766740.2274   22766736.8634   22766738.7574
      4736.2674       3690.5984
  -1754808.37549  -1356348.40347  21376099.5204   21376105.8284   21376099.6704
      3730.1294       2906.5944
   -941810.91949   -722740.43945  24397026.7854   24397039.2024   24397027.0884
      2400.7344       1870.7024
  -2257467.04649  -1734345.63347  21143923.1414   21143929.7554   21143922.7984
      5029.2324       3918.8824
   -681064.79348   -523185.30844  24473669.0054   24473660.5414   24473666.1074
      1552.0764       1209.4104
 05  4 25 12 53 29.9990000  0  6G 5G 1G 7G14G20G11
  -3155482.40449  -1950320.56846  22410733.3264   22410738.7884   22410732.4714
      6530.2734       5088.5244
  -2311680.12749  -1774128.27446  22753221.6434   22753218.3154   22753220.8464
      4735.3344       3689.8714
  -1810770.55149  -1399955.29347  21365450.1974   21365456.6004   21365450.0544
      3731.5124       2907.6724
   -977843.01049   -750817.43945  24390171.6074   24390182.9004   24390170.4864
      2403.6154       1872.9474
  -2332895.71749  -1793121.60147  21129569.7304   21129575.8144   21129569.3914
      5027.9604       3917.8914
   -704401.59058   -541369.88354  24469232.0674   24469219.7574   24469226.4184
      1559.6034       1215.2754
 05  4 25 12 53 44.9990000  0  6G 5G 1G 7G14G20G11
  -3253432.90749  -2026645.70046  22392093.5374   22392099.5034   22392092.7924
      6529.5444       5087.9564
  -2382705.79949  -1829473.06746  22739704.5084   22739703.0784   22739703.9424
      4734.4384       3689.1724
  -1866756.15949  -1443580.42447  21354796.6624   21354802.7764   21354796.0284
      3732.8974       2908.7514
  -1013920.35549   -778929.70945  24383308.7854   24383316.3544   24383307.3984
      2406.4544       1875.1594
  -2408306.53849  -1851882.98647  21115219.7234   21115225.3784   21115218.8484
      5026.6214       3916.8484
   -727854.51758   -559644.97754  24464772.6144   24464768.3564
      1567.1174       1221.1304
 05  4 25 12 53 59.9990000  0  6G 5G 1G 7G14G20G11
  -3351370.59149  -2102960.74946  22373456.4404   22373462.4234   22373455.2264
      6528.6994       5087.2984
  -2453714.91949  -1884804.99646  22726191.0684   22726190.4574   22726190.3114
      4733.2444       3688.2424
  -1922760.11249  -1487219.89547  21344139.6274   21344145.3684   21344138.9724
      3734.0864       2909.6774
  -1050038.04549   -807073.37845  24376436.6354   24376442.9824   24376434.5424
      2409.1544       1877.2634
  -2483695.96849  -1910627.91846  21100873.4854   21100878.0264   21100873.0474
      5025.1764       3915.7224
   -751418.52358   -578006.66254  24460288.0724   24460281.5714
      1574.5184       1226.8974
 05  4 25 12 54 14.9990000  0  6G 5G 1G 7G14G20G11
  -3449293.34549  -2179264.20046  22354821.6564   22354826.2194   22354821.1094
      6527.6134       5086.4524
  -2524705.12749  -1940121.99846  22712680.9744   22712681.9344   22712680.3334
      4732.0154       3687.2844
  -1978780.69449  -1530872.39847  21333479.8524   21333484.4614   21333478.9504
      3735.1514       2910.5074
  -1086194.45449   -835247.18345  24369554.7024   24369559.3734   24369554.0754
      2411.6744       1879.2264
  -2559061.20749  -1969353.77747  21086531.8954   21086536.3124   21086530.6354
      5023.5094       3914.4234
   -775091.85448   -596453.48844  24455784.2854   24455782.3574
      1581.7514       1232.5334
 05  4 25 12 54 29.9990000  0  6G 5G 1G 7G14G20G11
  -3547197.15349  -2255552.86646  22336191.0214   22336194.6844   22336190.7694
      6526.3464       5085.4644
  -2595673.47749  -1995422.16346  22699175.4664   22699179.1004   22699175.0814
      4730.5314       3686.1284
  -2034813.95549  -1574534.68447  21322816.9754   21322822.1384   21322816.4414
      3735.9724       2911.1474
  -1122386.22049   -863448.54945  24362665.3174   24362671.2404   24362665.7104
      2414.0794       1881.1014
  -2634399.33649  -2028058.66147  21072195.5704   21072199.5224   21072195.0164
      5021.7004       3913.0134
   -798870.77458   -614982.62354  24451257.9964   24451256.6304
      1588.7644       1237.9984
 05  4 25 12 54 44.9990000  0  6G 5G 1G 7G14G20G11
  -3645081.78449  -2331826.60346  22317564.1974   22317568.3294   22317564.1614
      6524.9154       5084.3494
  -2666619.06849  -2050704.44846  22685674.7214   22685678.6394   22685673.3414
      4728.8344       3684.8064
  -2090859.69749  -1618206.61147  21312151.4034   21312157.3484   21312151.3444
      3736.6864       2911.7034
  -1158613.21349   -891677.38645  24355769.3904   24355776.2964   24355770.5014
      2416.1744       1882.7334
  -2709709.95149  -2086742.19447  21057864.7304   21057868.2494   21057863.9334
      5019.6744       3911.4344
                   -633594.21044  24446710.2914
      1595.7594       1243.4494
 05  4 25 12 54 59.9990000  0  6G 5G 1G 7G14G20G11
  -3742941.22549  -2408080.71746  22298943.1104   22298945.7714   22298943.0394
      6523.0104       5082.8654
  -2737536.53949  -2105964.82946  22672180.1104   22672183.2354   22672179.4404
      4726.8164       3683.2334
  -2146912.47449  -1661884.04347  21301484.4634   21301490.7524   21301484.5384
      3736.9144       2911.8814
  -1194870.05049   -919929.48745  24348867.2074   24348877.2564   24348869.0384
      2418.0504       1884.1954
  -2784987.09549  -2145399.65846  21043540.0024   21043544.0494   21043539.1914
      5017.2594       3909.5524
                   -652283.88544  24442139.0544
      1602.2684       1248.5214
 05  4 25 12 55 14.9990000  0  6G 5G 1G 7G14G20G11
  -3840773.01249  -2484313.29146  22280327.8204   22280330.1364   22280326.9504
      6521.3654       5081.5834
  -2808423.99449  -2161201.97646  22658691.0904   22658694.4274   22658689.5224
      4725.0124       3681.8284
  -2202970.27849  -1705565.44747  21290816.8564   21290823.2974   21290817.1854
      3737.4804       2912.3224
  -1231154.89949   -948203.42045  24341962.5984   24341974.2924   24341964.8934
      2420.1074       1885.7984
  -2860228.70049  -2204029.43946  21029221.4054   21029226.7774   21029220.8524
      5015.0934       3907.8654
                     -4736.78243  24437549.7974
      1608.9454       1253.7234
 05  4 25 12 55 29.9990000  0  6G 5G 1G 7G14G20G11
  -3938577.05049  -2560524.23446  22261715.1344   22261720.9404   22261715.2634
      6519.1804       5079.8814
  -2879280.66449  -2216414.77046  22645207.5844   22645211.0444   22645205.7184
      4722.6884       3680.0174
  -2259033.22949  -1749250.86347  21280148.8674   21280155.0804   21280148.4364
      3737.4984       2912.3364
  -1267468.31249   -976499.64345  24335056.2264   24335063.4644   24335056.6414
      2421.7364       1887.0674
  -2935434.98249  -2262631.73046  21014909.3784   21014916.3074   21014909.0214
      5012.4404       3905.7974
                    -23579.43453  24432941.0734
      1615.2374       1258.6264
 05  4 25 12 55 44.9990000  0  6G 5G 1G 7G14G20G11
  -4036349.60749  -2636710.64046  22243109.4014   22243114.1474   22243108.4664
      6517.1084       5078.2664
  -2950104.08349  -2271601.88546  22631730.6704   22631734.1504   22631728.7934
      4720.4144       3678.2454
  -2315097.92049  -1792937.64147  21269480.4034   21269486.4614   21269479.4214
      3737.7074       2912.4994
  -1303806.91049  -1004815.49445  24328143.8294   24328147.8704   24328143.6974
      2423.4124       1888.3734
  -3010602.28349  -2321203.64146  21000605.0944   21000611.1244   21000605.0434
      5009.8734       3903.7974
                    -42504.59144  24428319.7564
      1621.6034       1263.5874
 05  4 25 12 55 59.9990000  0  6G 5G 1G 7G14G20G11
  -4134091.01149  -2712872.79446  22224508.5514   22224514.4224   22224508.3534
      6514.9674       5076.5984
  -3020894.76349  -2326763.61946  22618260.1124   22618264.1184   22618256.8074
      4718.2524       3676.5604
  -2371164.97549  -1836626.29747  21258811.6254   21258817.3404   21258810.6164
      3737.7454       2912.5294
  -1340171.64349  -1033151.67645  24321226.2474   24321229.0314   24321226.0554
      2425.1114       1889.6974
  -3085731.20449  -2379745.64946  20986308.6844   20986314.2604   20986308.2494
      5007.2204       3901.7304
                    -61510.76444  24423682.3084
      1627.8194       1268.4304
 05  4 25 12 56 14.9990000  0  6G 5G 1G 7G14G20G11
  -4231793.97349  -2789004.98846  22205916.3734   22205921.5984   22205916.2084
      6512.2554       5074.4844
  -3091644.00649  -2381892.44046  22604795.3954   22604799.5904   22604792.4224
      4715.2624       3674.2304
  -2427227.31749  -1880311.30047  21248143.6784   21248149.1964   21248142.3344
      3737.2684       2912.1574
  -1376555.51449  -1061502.74545  24314303.9194   24314305.3614   24314302.4014
      2426.2574       1890.5904
  -3160814.48549  -2438252.07046  20972021.5194   20972026.2374   20972021.0394
      5004.0294       3899.2434
                    -80586.10644  24419030.8914
      1633.7314       1273.0374
 05  4 25 12 56 29.9990000  0  6G 5G 1G 7G14G20G11
  -4329457.03149  -2865106.05846  22187332.4344   22187335.8134   22187332.7554
      6509.4984       5072.3364
  -3162352.42649  -2436989.62246  22591336.1424   22591342.6634   22591333.3794
      4712.5674       3672.1304
  -2483283.92249  -1923991.84247  21237476.3954   21237481.6714   21237475.5014
      3736.8004       2911.7924
  -1412957.71249  -1089868.14345  24307377.0654   24307378.8134   24307374.7404
      2427.4174       1891.4944
  -3235851.29049  -2496722.27846  20957743.0994   20957746.9704   20957742.3504
      5000.9034       3896.8084
                    -99729.92144  24414364.4074
      1639.4664       1277.5064
 05  4 25 12 56 44.9990000  0  6G 5G 1G 7G14G20G11
  -4427079.56349  -2941175.51646  22168756.0464   22168761.7774   22168756.3544
      6506.7324       5070.1814
  -3233019.58449  -2492054.90446  22577883.3334   22577895.0204   22577884.4984
      4709.6304       3669.8424
  -2539334.05549  -1967667.22347  21226809.9914   21226815.6214   21226809.4704
      3736.3054       2911.4064
  -1449378.06049  -1118247.67145  24300446.1944   24300448.1714   24300443.3314
      2428.5494       1892.3764
  -3310840.98149  -2555155.81546  20943473.2684   20943477.4464   20943472.0374
      4997.6414       3894.2664
                     -1646.93343  24409678.0674
      1645.2314       1281.9984
 05  4 25 12 56 59.9990000  0  6G 5G 1G 7G14G20G11
  -4524658.41049  -3017210.95446  22150189.0714   22150191.2954   22150188.2654
      6503.7324       5067.8434
  -3303641.77949  -2547084.90746  22564438.5944   22564455.4814   22564443.7094
      4706.5694       3667.4564
  -2595375.09949  -2011335.49247  21216145.2124   21216151.6164   21216144.7684
      3735.6724       2910.9134
  -1485813.95749  -1146639.32845  24293511.4524   24293514.5494   24293509.4294
      2429.5024       1893.1184
  -3385780.65449  -2613550.37547  20929212.6004   20929217.4104   20929212.0234
      4994.2744       3891.6424
                    -20910.20943  24404974.4464
      1650.7664       1286.3114
 05  4 25 12 57 14.9990000  0  7G 4G 5G 1G 7G14G20G11
   -399226.91855                  21220240.4914
      7847.2854       6114.7684
  -4622191.66149  -3093210.86446  22131629.4484   22131631.8444   22131627.6564
      6500.6184       5065.4174
  -3374218.19849  -2602079.50946  22551007.5334   22551026.0804   22551012.4064
      4703.5534       3665.1064
  -2651405.43749  -2054995.41047  21205483.4014   21205488.9634   21205482.4844
      3734.8584       2910.2794
  -1522263.89449  -1175041.97345  24286573.5014   24286578.9224   24286572.9074
      2430.3884       1893.8094
  -3460668.62549  -2671904.67746  20914961.7074   20914967.5594   20914960.6904
      4990.7204       3888.8734
                    -40217.78244  24400254.6934
      1656.3104       1290.6314
 05  4 25 12 57 29.9990000  0  8G 4G25G 5G 1G 7G14G20G11
   -490948.57847                  21197843.9494   21197850.0024
      7847.0944       6114.6194
   -124724.73053                  24601092.1464
      7901.2604       6156.8264
  -4719678.84449  -3169174.86146  22113077.0834   22113082.9184   22113074.3724
      6497.4014       5062.9104
  -3444747.93749  -2657037.72646  22537589.1434   22537603.8094   22537592.3124
      4700.2124       3662.5034
  -2707425.08749  -2098647.05347  21194823.5684   21194828.7694   21194822.2454
      3734.0494       2909.6484
  -1558728.04149  -1203455.64045  24279634.7644   24279641.2374   24279633.9894
      2431.2524       1894.4824
  -3535504.72549  -2730218.61246  20900720.3244   20900726.1554   20900719.4534
      4987.1694       3886.1064
                    -59559.23044  24395518.8394
      1661.8494       1294.9474
 05  4 25 12 57 44.9990000  0  9G 4G25G 5G 1G 7G14G20G11G24
   -582664.64746                  21175442.1884   21175451.0724
      7846.5014       6114.1574
   -217081.83744                  24578541.3184
      7902.0514       6157.4424
  -4817113.88449  -3245098.26646  22094531.0554   22094541.0114   22094532.1104
      6493.8454       5060.1394
  -3515225.72949  -2711955.57546  22524180.7264   22524192.4204   22524181.9414
      4696.6354       3659.7154
  -2763428.30449  -2142285.94547  21184166.3324   21184172.0354   21184165.2044
      3732.8824       2908.7394
  -1595200.81849  -1231876.01645  24272694.9844   24272699.9164   24272695.1164
      2431.7084       1894.8374
  -3610282.89449  -2788487.29046  20886490.1584   20886495.7214   20886489.9404
      4983.2274       3883.0344
                    -78961.14044  24390765.1514
      1666.8604       1298.8524
   -305980.41159   -203238.72157  20477706.9834   20477712.9534   20477707.1274
      4890.9654       3811.1424
 05  4 25 12 57 59.9990000  0  9G 4G25G 5G 1G 7G14G20G11G24
   -899384.41759   -674374.93157  21153050.3704   21153054.7524   21153049.7864
      7846.1764       6113.9034
   -309449.74544                  24555988.3044
      7903.1414       6158.2924
  -4914496.84749  -3320981.11046  22075999.4284   22076010.4584   22076000.1954
      6490.5084       5057.5394
  -3585650.83949  -2766832.02246  22510781.7544   22510791.6494   22510781.4404
      4693.2794       3657.1014
  -2819415.25449  -2185912.18747  21173512.6824   21173517.6854   21173511.7984
      3731.9484       2908.0114
  -1631682.70849  -1260303.51745  24265753.4374   24265758.5174   24265752.4654
      2432.4714       1895.4324
  -3685003.43849  -2846711.04446  20872271.5614   20872276.0584   20872271.4414
      4979.4734       3880.1094
                    -98423.73544  24385996.0504
      1672.2464       1303.0494
   -379331.28549   -260395.24047  20463748.8424   20463754.5374   20463748.3534
      4889.1484       3809.7264
 05  4 25 12 58 14.9980000  0  9G 4G25G 5G 1G 7G14G20G11G24
  -1017060.82149   -766070.81547  21130656.2644   21130663.1024   21130658.9464
      7845.4044       6113.3024
   -401820.34444                  24533428.8374
      7903.8994       6158.8824
  -5011817.84549  -3396815.65246  22057482.5664   22057490.4644   22057482.4564
      6486.7734       5054.6284
  -3656016.11449  -2821661.85746  22497394.4094   22497401.7114   22497392.3834
      4689.6654       3654.2844
  -2875378.94549  -2229520.28047  21162862.5914   21162868.1974   21162861.9454
      3730.6114       2906.9704
  -1668168.42049  -1288733.98945  24258810.3014   24258814.4914   24258809.4994
      2432.9164       1895.7794
  -3759658.29149  -2904883.65746  20858065.7734   20858069.8364   20858065.7024
      4975.4454       3876.9704
                                  24381210.617
      1677.209        1306.916
   -452644.34649   -317522.34147  20449797.9714   20449804.0814   20449798.0704
      4886.9024       3807.9764
 05  4 25 12 58 29.9980000  0  8G 4G25G 5G 1G 7G14G20G24
  -1134732.99849   -857763.27547  21108262.7294   21108267.7974   21108263.0424
      7844.5794       6112.6594
   -494204.41444                  24510864.3164
      7904.3914       6159.2664
  -5109088.35349  -3472610.79546  22038974.6854   22038980.1734   22038973.8604
      6482.9504       5051.6494
  -3726330.23449  -2876452.25046  22484014.9514   22484022.4404   22484013.3044
      4685.7974       3651.2704
  -2931325.80549  -2273115.22847  21152216.1704   21152221.9974   21152215.9754
      3729.2264       2905.8904
  -1704661.75849  -1317170.37745  24251864.9744   24251869.3604   24251864.1364
      2433.2274       1896.0214
  -3834256.38349  -2963012.15246  20843870.8364   20843874.7634   20843870.0714
      4971.2654       3873.7134
   -525927.79359   -374626.25757  20435851.2494   20435858.5244   20435852.2484
      4884.5654       3806.1554
 05  4 25 12 58 44.9980000  0  8G 4G25G 5G 1G 7G14G20G24
  -1252391.15649   -949444.99247  21085874.6444   21085880.6634   21085873.8164
      7843.3894       6111.7324
    -20043.07543                  24488294.3424
      7905.1294       6159.8414
  -5206300.04749  -3548360.10446  22020476.1134   22020481.8374   22020475.2684
      6478.7784       5048.3984
  -3796586.22749  -2931197.12946  22470645.7634   22470653.6774   22470644.1074
      4681.7114       3648.0864
  -2987250.55949  -2316692.95847  21141573.9654   21141579.8244   21141573.6134
      3727.5134       2904.5564
  -1741159.06649  -1345609.84945  24244918.4434   24244925.4894   24244917.3004
      2433.3204       1896.0944
  -3908790.77549  -3021090.94147  20829687.3864   20829691.9444   20829686.3724
      4966.7784       3870.2174
   -599175.56049   -431702.42747  20421913.5984   20421919.6634   20421913.5544
      4881.9714       3804.1334
 05  4 25 12 58 59.9980000  0  8G 4G25G 5G 1G 7G14G20G24
  -1370033.77149  -1041114.41147  21063486.8894   21063490.5224   21063489.5224
      7842.3174       6110.8964
   -112438.25143                  24465730.7994
      7905.1294       6159.8414
  -5303451.58149  -3624062.55946  22001986.8514   22001993.3984   22001986.4234
      6474.6714       5045.1984
  -3866782.97549  -2985895.74146  22457287.1254   22457296.0394   22457287.4744
      4677.8164       3645.0514
  -3043152.21349  -2360252.71347  21130936.6324   21130942.4584   21130936.0294
      3725.9084       2903.3054
  -1777659.37749  -1374051.67045  24237972.1504   24237977.9434   24237972.8764
      2433.4354       1896.1834
  -3983260.39849  -3079119.20647  20815515.5744   20815521.8534   20815514.6884
      4962.4174       3866.8184
   -672386.36549   -488749.81347  20407982.0424   20407988.6014   20407982.1554
      4879.4314       3802.1544
 05  4 25 12 59 14.9980000  0  8G 4G25G 5G 1G 7G14G20G24
  -1487661.28049  -1132772.17347  21041101.3234   21041110.0664   21041101.6434
      7841.4014       6110.1834
   -204837.19745                  24443173.1974
      7905.6014       6160.2094
  -5400543.03649  -3699718.23446  21983509.8844   21983518.4244   21983509.9674
      6470.8024       5042.1834
  -3936921.21649  -3040549.00346  22443941.6584   22443948.4254   22443940.8544
      4673.9254       3642.0194
  -3099031.07449  -2403794.67947  21120302.9224   21120309.6124   21120302.7004
      3724.5114       2902.2164
  -1814163.47549  -1402496.43145  24231025.9334   24231034.1574   24231025.6304
      2433.8144       1896.4784
  -4057665.72349  -3137097.38847  20801356.2714   20801363.2584   20801355.7784
      4958.2314       3863.5574
   -745560.86749   -545769.12147  20394057.6484   20394064.0454   20394057.5654
      4877.0904       3800.3304
 05  4 25 12 59 29.9980000  0  8G 4G25G 5G 1G 7G14G20G24
  -1605268.92549  -1224414.49847  21018723.6964   21018727.3964   21018721.3014
      7839.9244       6109.0324
   -297237.58844                  24420612.6154
      7905.4364       6160.0804
  -5497570.17449  -3775323.79346  21965045.6914   21965054.7564   21965044.2494
      6466.3404       5038.7064
  -4006997.11449  -3095153.84146  22430608.2994   22430613.5804   22430607.2534
      4669.6364       3638.6774
  -3154883.17549  -2447315.80247  21109674.2114   21109681.0044   21109674.5524
      3722.5384       2900.6794
  -1850667.42149  -1430941.06345  24224080.6844   24224088.4504   24224080.3004
      2433.5584       1896.2794
  -4132002.38749  -3195021.94547  20787210.3884   20787217.3254   20787210.1194
      4953.4904       3859.8624
   -818694.11749   -602755.97247  20380141.1374   20380147.3374   20380140.7874
      4874.1674       3798.0524
 05  4 25 12 59 44.9980000  0  8G 4G25G 5G 1G 7G14G20G24
  -1722856.60649  -1316041.30047  20996348.1174   20996354.4564   20996349.6734
      7838.4304       6107.8684
   -389638.38944                  24398046.9854
      7905.4254       6160.0714
  -5594532.70949  -3850879.06746  21946595.4814   21946602.8714   21946595.8434
      6461.9164       5035.2594
  -4077009.84749  -3149709.32546  22417287.0134   22417291.1044   22417285.8324
      4665.3314       3635.3234
  -3210708.49649  -2490816.07647  21099051.0004   21099057.1434   21099051.4594
      3720.6594       2899.2154
  -1887171.41749  -1459385.74945  24217134.3364   24217141.6394   24217133.3034
      2433.5034       1896.2364
  -4206270.70849  -3252893.33147  20773077.8084   20773083.9944   20773077.2344
      4948.8504       3856.2474
   -891786.36449   -659710.79747  20366232.0514   20366238.2234   20366231.7344
      4871.3584       3795.8634
 05  4 25 12 59 59.9980000  0  8G 4G25G 5G 1G 7G14G20G24
  -1840422.21849  -1407650.84147  20973974.3784   20973979.6204   20973976.3734
      7837.1524       6106.8724
   -482038.40744                  24375478.0064
      7905.4714       6160.1074
  -5691428.88649  -3926382.63146  21928159.0054   21928165.2214   21928158.2304
      6457.6974       5031.9724
  -4146958.26049  -3204214.76846  22403977.6944   22403979.2084   22403975.7134
      4661.2354       3632.1314
  -3266505.57549  -2534294.40047  21088433.7454   21088439.8904   21088433.5444
      3718.9654       2897.8954
  -1923674.14949  -1487829.44145  24210186.6264   24210196.2094   24210185.5904
      2433.6134       1896.3224
  -4280469.19249  -3310710.45247  20758958.7134   20758963.4914   20758958.1194
      4944.3814       3852.7644
   -964836.46149   -716632.93347  20352331.0364   20352336.9234   20352330.8534
      4868.7464       3793.8284
 05  4 25 13  0 14.9980000  0  8G 4G25G 5G 1G 7G14G20G24
  -1957966.59449  -1499243.76347  20951606.6454   20951613.9674   20951604.9494
      7835.4014       6105.5074
     -4706.36243                  24352908.2714
      7905.2264       6159.9164
  -5788259.62649  -4001835.20946  21909733.6934   21909739.8444   21909732.3234
      6452.9434       5028.2674
  -4216843.34749  -3258670.77346  22390679.8434   22390679.6984   22390678.2094
      4656.6984       3628.5964
  -3322275.67449  -2577751.71147  21077821.3434   21077827.0704   21077820.4704
      3716.8224       2896.2254
  -1960177.03549  -1516273.32045  24203238.5534   24203248.2784   24203238.3624
      2433.3274       1896.0994
  -4354598.85649  -3368473.95147  20744852.5574   20744856.2414   20744852.1144
      4939.4624       3848.9314
  -1037845.52949   -773523.20547  20338437.4774   20338443.7334   20338437.6914
      4865.6854       3791.4434
 05  4 25 13  0 29.9980000  0  8G 4G25G 5G 1G 7G14G20G24
  -2075486.28349  -1590817.57947  20929244.7024   20929248.8484   20929244.4054
      7833.7004       6104.1824
    -97104.50643                  24330343.6904
      7904.8304       6159.6084
  -5885021.39849  -4077234.01946  21891320.4614   21891326.3464   21891319.4754
      6448.3364       5024.6774
  -4286661.78649  -3313074.71946  22377394.4044   22377393.0734   22377393.0274
      4652.2124       3625.1004
  -3378015.37449  -2621185.29747  21067214.4024   21067220.0374   21067213.3894
      3714.7864       2894.6384
  -1996677.15949  -1544715.01945  24196292.8034   24196301.3114   24196292.9684
      2433.0934       1895.9174
  -4428655.81449  -3426180.52547  20730759.8024   20730764.1114   20730759.2064
      4934.6074       3845.1484
  -1110810.05049   -830378.75547  20324553.2414   20324559.0394   20324552.9194
      4862.6874       3789.1074
 05  4 25 13  0 44.9980000  0  8G 4G25G 5G 1G 7G14G20G24
  -2192977.91249  -1682369.41247  20906885.3584   20906891.8484   20906888.2254
      7831.8834       6102.7664
   -189496.41245                  24307782.0764
      7904.3784       6159.2564
  -5981710.79049  -4152576.39746  21872919.2634   21872925.5654   21872917.8974
      6443.5664       5020.9614
  -4356410.73449  -3367424.55146  22364122.3104   22364120.3864   22364121.4264
      4647.6454       3621.5414
  -3433721.75649  -2664592.89347  21056613.6844   21056619.5734   21056613.2214
      3712.6384       2892.9654
  -2033171.51849  -1573152.25245  24189347.4814   24189356.2494   24189349.2484
      2432.7704       1895.6654
  -4502637.74949  -3483828.78747  20716681.4384   20716685.7814   20716680.5544
      4929.6234       3841.2654
  -1183726.83349   -887197.11847  20310677.8504   20310683.1984   20310677.5174
      4859.5354       3786.6514
 05  4 25 13  0 59.9980000  0  8G 4G25G 5G 1G 7G14G20G24
  -2310442.46749  -1773900.23347  20884531.3984   20884540.1694   20884532.5464
      7829.9614       6101.2684
   -281883.01745                  24285220.5424
      7903.8984       6158.8824
  -6078328.95749  -4227863.32646  21854530.8514   21854539.6324   21854531.1504
      6438.7264       5017.1894
  -4426091.20449  -3421720.92946  22350862.1694   22350860.0454   22350860.7174
      4642.9344       3617.8714
  -3489396.02749  -2707975.47847  21046019.4074   21046024.9344   21046018.8054
      3710.3884       2891.2114
  -2069661.76349  -1601586.26145  24182404.8734   24182410.9834   24182406.3454
      2432.4384       1895.4064
  -4576545.86249  -3541419.62147  20702617.3514   20702622.6034   20702616.7344
      4924.5974       3837.3484
  -1256597.08049   -943979.13547  20296810.9124   20296816.3124   20296810.7864
      4856.3524       3784.1704
 05  4 25 13  1 14.9980000  0  8G 4G25G 5G 1G 7G14G20G24
  -2427878.49349  -1865408.81147  20862185.7084   20862189.4634   20862184.1374
      7828.2454       6099.9314
   -374264.03445                  24262657.9384
      7903.5204       6158.5874
  -6174874.67049  -4303093.77046  21836159.4474   21836166.1844   21836159.6274
      6434.0124       5013.5164
  -4495702.48549  -3475963.34946  22337614.5364   22337612.8884   22337613.5884
      4638.5454       3614.4514
  -3545037.49649  -2751332.52247  21035431.0744   21035436.6994   21035431.1144
      3708.3774       2889.6444
  -2106147.21549  -1630016.48445  24175465.8424   24175467.5344   24175466.4904
      2432.2594       1895.2674
  -4650379.14349  -3598952.17647  20688567.5074   20688573.1744   20688566.6834
      4919.8544       3833.6524
  -1329419.91949  -1000724.15147  20282952.7024   20282958.8524   20282952.6484
      4853.3704       3781.8474
 05  4 25 13  1 29.9980000  0  8G 4G25G 5G 1G 7G14G20G24
  -2545286.39849  -1956895.45647  20839844.6374   20839851.4744   20839846.3664
      7826.1764       6098.3194
   -466639.18845                  24240098.3514   24240109.1144
      7902.8954       6158.1004
  -6271348.57349  -4378268.33946  21817803.0864   21817808.3134   21817803.3074
      6429.0824       5009.6744
  -4565245.45049  -3530152.57246  22324378.8834   22324378.9834   22324377.6544
      4633.7964       3610.7504
  -3600646.84749  -2794664.55347  21024849.3154   21024854.8054   21024849.2264
      3706.0714       2887.8484
  -2142628.83049  -1658443.70145  24168526.0984   24168525.8034   24168524.7764
      2431.8324       1894.9344
  -4724138.67149  -3656427.47547  20674531.5084   20674537.0134   20674531.0504
      4914.6694       3829.6124
  -1402196.16349  -1057432.89147  20269104.1624   20269109.7124   20269104.0214
      4850.0814       3779.2844
 05  4 25 13  1 44.9980000  0  8G 4G25G 5G 1G 7G14G20G24
  -2662661.58249  -2048356.62447  20817507.4974   20817512.0684   20817510.2594
      7823.8794       6096.5294
  -2210546.50149   -559004.90145  24217542.6964   24217553.5234   24217543.3984
      7901.9934       6157.3974
  -6367745.50649  -4453382.83846  21799461.6964   21799464.0764   21799461.0374
      6423.8464       5005.5944
  -4634715.37849  -3584284.85446  22311156.3594   22311159.5804   22311155.5904
      4628.8064       3606.8624
  -3656219.52149  -2837968.03247  21014273.9614   21014279.3244   21014274.0834
      3703.5444       2885.8784
  -2179102.24649  -1686864.55445  24161585.7544   24161585.2884   24161583.9414
      2431.2404       1894.4734
  -4797818.65549  -3713840.49347  20660510.8964   20660515.7374   20660510.5874
      4909.2994       3825.4284
  -1474921.22749  -1114101.82047  20255265.4384   20255270.9644   20255265.2574
      4846.5844       3776.5594
 05  4 25 13  1 59.9980000  0  8G 4G25G 5G 1G 7G14G20G24
  -2780002.57549  -2139791.12647  20795177.6814   20795185.0354   20795178.0804
      7821.7084       6094.8374
  -2329068.49149   -651359.85045  24194990.6054   24194999.4964   24194991.0954
      7901.0524       6156.6644
  -6464064.29249  -4528436.40046  21781133.8864   21781136.0984   21781132.6574
      6418.7524       5001.6254
  -4704111.58049  -3638359.80146  22297947.4964   22297954.3504   22297947.6814
      4624.0614       3603.1644
  -3711754.65949  -2881242.29447  21003705.8324   21003711.7214   21003706.2884
      3701.1334       2884.0004
  -2215566.79049  -1715278.49945  24154646.0984   24154646.6694   24154645.0184
      2430.7854       1894.1184
  -4871418.84949  -3771191.36447  20646505.4824   20646509.4674   20646505.0604
      4904.1094       3821.3844
  -1547594.06949  -1170730.03647  20241436.2394   20241442.1264   20241435.9564
      4843.2134       3773.9324
 05  4 25 13  2 14.9980000  0  8G 4G25G 5G 1G 7G14G20G24
  -2897311.09149  -2231200.46947  20772855.9964   20772860.2964   20772854.5144
      7819.4804       6093.1014
  -2447577.87349   -743704.84745  24172441.0614   24172445.3094   24172439.7594
      7900.1784       6155.9834
  -6560306.73449  -4603430.49146  21762818.0384   21762822.4804   21762816.5254
      6413.5774       4997.5924
  -4773435.56849  -3692378.39346  22284754.0004   22284763.0104   22284754.3644
      4619.1284       3599.3204
  -3767254.18149  -2924488.75647  20993144.7574   20993150.4344   20993144.4594
      3698.6854       2882.0924
  -2252024.54149  -1743687.16245  24147707.2014   24147710.8124   24147706.1854
      2430.2524       1893.7034
  -4944941.44449  -3828481.96347  20632514.6864   20632518.5164   20632514.4474
      4898.8844       3817.3124
  -1620216.57649  -1227319.00647  20227616.6244   20227622.4244   20227616.6014
      4839.7864       3771.2624
 05  4 25 13  2 29.9980000  0  7G 4G25G 5G 1G 7G20G24
  -3014585.24549  -2322582.99847  20750539.9924   20750543.7224   20750539.8994
      7817.3144       6091.4134
  -2566072.69759   -836038.32255  24149892.0254   24149894.8334   24149890.6974
      7899.3594       6155.3454
  -6656471.08149  -4678363.73246  21744517.7254   21744523.2834   21744516.4954
      6408.4944       4993.6324
  -4842686.23549  -3746339.96746  22271576.5684   22271585.3504   22271577.0114
      4614.3924       3595.6304
  -3822716.65549  -2967706.42347  20982590.6414   20982596.7774   20982590.4314
      3696.3334       2880.2594
  -5018384.80749  -3885710.88747  20618538.8324   20618543.4104   20618538.6454
      4893.7004       3813.2734
  -1692787.52249  -1283867.89547  20213807.1094   20213813.2914   20213806.4814
      4836.4424       3768.6564
 05  4 25 13  2 44.9970000  0  7G 4G25G 5G 1G 7G20G24
  -3131818.46349  -2413933.59747  20728230.7364   20728236.9714   20728232.0624
      7814.8974       6089.5304
  -2684546.95649   -928355.77445  24127345.2104   24127353.4164   24127345.4254
      7898.2664       6154.4934
  -6752552.45249  -4753232.33146  21726231.6034   21726237.5804   21726232.2234
      6403.2064       4989.5114
  -4911860.40549  -3800241.86746  22258413.8164   22258420.7474   22258413.9014
      4609.4244       3591.7594
  -3878139.77249  -3010893.24247  20972044.1964   20972049.9594   20972044.4154
      3693.7304       2878.2314
  -5091744.79349  -3942874.47847  20604578.2554   20604584.2794   20604578.0944
      4888.2884       3809.0564
  -1765303.53649  -1340374.00647  20200007.1544   20200014.0904   20200007.0514
      4832.9504       3765.9354
 05  4 25 13  2 59.9970000  0  7G 4G25G 5G 1G 7G20G24
  -3249024.06749  -2505262.76447  20705926.4984   20705932.0104   20705928.8894
      7812.5664       6087.7144
  -2803013.12849  -1020666.95645  24104799.9354   24104808.2804   24104801.0494
      7897.2504       6153.7014
  -6848561.04149  -4828044.18646  21707963.5524   21707966.6924   21707963.7904
      6397.9634       4985.4264
  -4980965.31649  -3854089.92746  22245263.6004   22245271.7164   22245263.4174
      4604.5834       3587.9874
  -3933528.74749  -3054053.36147  20961503.8144   20961510.2334   20961503.8764
      3691.3614       2876.3854
  -5165029.23649  -3999978.99847  20590632.1104   20590639.1644   20590631.8334
      4883.0054       3804.9394
  -1837771.91049  -1396843.01747  20186216.8284   20186223.9764   20186216.4844
      4829.5344       3763.2734
 05  4 25 13  3 14.9970000  0  7G 4G25G 5G 1G 7G20G24
  -3366189.76149  -2596560.88947  20683630.5294   20683636.8314   20683630.2484
      7809.7664       6085.5324
  -2921459.23149  -1112962.48645  24082260.1934   24082268.1704   24082260.6754
      7895.7274       6152.5154
  -6944486.20249  -4902791.04246  21689710.0094   21689711.6384   21689710.2894
      6392.2504       4980.9744
  -5049991.98149  -3907876.94746  22232126.5524   22232135.5784   22232127.8004
      4599.2404       3583.8234
  -3988876.45749  -3097181.50147  20950971.7744   20950977.7794   20950971.1894
      3688.4574       2874.1224
  -5238229.94449  -4057018.45247  20576702.6454   20576710.2804   20576702.6244
      4877.2734       3800.4724
  -1910183.81549  -1453268.08147  20172437.3784   20172444.4324   20172437.4944
      4825.6014       3760.2094
 05  4 25 13  3 29.9970000  0  7G 4G25G 5G 1G 7G20G24
  -3483317.04249  -2687829.16647  20661342.9104   20661349.0034   20661340.7454
      7807.1334       6083.4804
  -3039886.73149  -1205243.58245  24059725.2274   24059731.1954   24059725.1494
      7894.5214       6151.5754
  -7040329.82949  -4977474.36346  21671473.7674   21671475.3364   21671472.7264
      6386.8124       4976.7374
  -5118942.57549  -3961604.73046  22219004.3234   22219015.8554   22219006.3984
      4594.1334       3579.8444
  -4044185.31549  -3140279.68847  20940447.2174   20940452.8074   20940446.6414
      3685.7834       2872.0394
  -5311348.62349  -4113994.05647  20562789.5474   20562796.1954   20562789.4514
      4871.8084       3796.2144
  -1982540.93449  -1509650.38447  20158668.7704   20158675.3934   20158668.5294
      4821.9654       3757.3754
 05  4 25 13  3 44.9970000  0  7G 4G25G 5G 1G 7G20G24
  -3600406.28549  -2779067.69047  20639062.7584   20639066.5944   20639062.3534
      7804.5794       6081.4904
  -3158296.44249  -1297510.61445  24037191.9474   24037199.8474   24037191.1314
      7893.2664       6150.5974
  -7136092.41249  -5052094.51346  21653249.6554   21653252.4994   21653248.4184
      6381.3254       4972.4614
  -5187817.86049  -4015273.78346  22205896.2594   22205909.2724   22205899.5994
      4589.0824       3575.9084
  -4099453.99649  -3183345.83347  20929929.7324   20929936.0624   20929929.1634
      3683.0934       2869.9434
  -5384385.75649  -4170905.96847  20548892.0904   20548896.9924   20548891.1934
      4866.2894       3791.9144
  -2054844.00949  -1565990.50847  20144909.6924   20144916.6164   20144909.6094
      4818.2284       3754.4634
 05  4 25 13  3 59.9970000  0  7G 4G25G 5G 1G 7G20G24
  -3717454.47649  -2870273.81147  20616788.7874   20616794.3964   20616790.4254
      7802.0104       6079.4884
  -3276685.89149  -1389762.22045  24014660.7564   24014671.7574   24014661.2254
      7891.9864       6149.5994
  -7231771.66749  -5126649.78946  21635040.0814   21635045.1044   21635038.8754
      6375.8624       4968.2044
  -5256615.77649  -4068882.50146  22192803.4654   22192817.2554   22192806.7334
      4584.0454       3571.9834
  -4154682.25149  -3226380.57947  20919419.7814   20919426.1654   20919419.2564
      3680.5694       2867.9764
  -5457339.78149  -4227753.26847  20535009.5494   20535013.2134   20535008.4814
      4860.8874       3787.7044
  -2127090.79149  -1622286.61047  20131162.2784   20131168.4854   20131161.9254
      4814.6044       3751.6394
 05  4 25 13  4 14.9970000  0  7G 4G25G 5G 1G 7G20G24
  -3834464.53649  -2961450.19147  20594521.1184   20594528.0534   20594524.2554
      7799.4034       6077.4574
  -3395056.84149  -1481999.46145  23992133.7844   23992144.7604   23992136.6474
      7890.7514       6148.6374
  -7327369.68649  -5201141.76246  21616848.2444   21616854.1864   21616846.8454
      6370.4834       4964.0134
  -5325338.77849  -4122432.80746  22179724.4014   22179740.0594   22179727.7194
      4578.9874       3568.0424
  -4209872.73749  -3269386.19947  20908916.8944   20908923.6314   20908917.0224
      3678.0484       2866.0114
  -5530212.97849  -4284537.67947  20521141.4284   20521145.2874   20521140.5894
      4855.4744       3783.4864
  -2199284.23949  -1678541.19847  20117424.2834   20117430.5534   20117424.1084
      4811.1274       3748.9304
 05  4 25 13  4 29.9970000  0  7G 4G25G 5G 1G 7G20G24
  -3951435.53249  -3052596.23647  20572261.4694   20572266.6964   20572262.0924
      7796.7874       6075.4184
  -3513407.82949  -1574220.92145  23969612.4534   23969623.7574   23969614.2824
      7889.4004       6147.5844
  -7422885.41549  -5275569.65646  21598672.0854   21598679.5254   21598671.9004
      6365.0074       4959.7464
  -5393986.02949  -4175924.11846  22166662.3224   22166676.9854   22166664.8344
      4573.9864       3564.1454
  -4265023.99949  -3312361.19247  20898421.7214   20898428.1644   20898421.8204
      3675.4204       2863.9644
  -5603004.30449  -4341258.27547  20507288.4684   20507294.5614   20507288.1084
      4850.0784       3779.2824
  -2271423.52449  -1734753.69147  20103696.5544   20103702.9414   20103696.6094
      4807.5024       3746.1054
 05  4 25 13  4 44.9970000  0  7G 4G25G 5G 1G 7G20G24
  -4068364.29449  -3143709.43247  20550010.8894   20550019.1484   20550010.2494
      7793.8624       6073.1394
  -3631736.13949  -1666424.81445  23947098.4744   23947105.7734   23947098.6804
      7887.7664       6146.3114
  -7518316.10249  -5349931.23846  21580512.7114   21580518.4024   21580511.9234
      6359.1864       4955.2104
  -5462555.25249  -4229354.77446  22153618.8264   22153628.6894   22153617.6834
      4568.6234       3559.9664
  -4320133.50849  -3355303.55447  20887934.9344   20887941.5104   20887934.6814
      3672.5104       2861.6964
  -5675711.10049  -4397912.92047  20493452.4704   20493459.7644   20493452.0024
      4844.2544       3774.7434
  -2343505.78349  -1790921.68547  20089979.7534   20089985.9444   20089979.4244
      4803.5554       3743.0304
 05  4 25 13  4 59.9970000  0  7G 4G25G 5G 1G 7G20G24
  -4185251.41949  -3234790.37347  20527768.9334   20527773.6514   20527768.2034
      7790.9954       6070.9054
  -3750041.66649  -1758610.97445  23924588.3854   23924590.7444   23924586.5064
      7886.0904       6145.0054
  -7613661.86449  -5424226.59246  21562368.6994   21562373.2054   21562368.8984
      6353.4224       4950.7184
  -5531046.77749  -4282724.85646  22140590.9224   22140595.4704   22140586.0124
      4563.4134       3555.9064
  -4375202.03649  -3398214.01347  20877456.3314   20877462.4174   20877455.5974
      3669.7244       2859.5254
  -5748333.67549  -4454501.73847  20479633.1484   20479640.3064   20479632.6834
      4838.5854       3770.3264
  -2415531.67849  -1847045.78147  20076273.4174   20076279.9854   20076273.2344
      4799.7194       3740.0414
 05  4 25 13  5 14.9970000  0  7G 4G25G 5G 1G 7G20G24
  -4302096.91849  -3325838.81347  20505534.0264   20505538.6524   20505534.2644
      7788.3594       6068.8514
  -3868325.06849  -1850779.87945  23902080.2624   23902082.2964   23902078.8214
      7884.8444       6144.0344
  -7708923.42649  -5498456.33046  21544240.9334   21544244.8784   21544241.0494
      6347.9594       4946.4624
  -5599461.08649  -4336034.64846  22127575.6654   22127578.1114   22127569.6614
      4558.3654       3551.9734
  -4430230.53949  -3441093.36847  20866984.7184   20866990.0404   20866984.5234
      3667.1544       2857.5234
  -5820873.28549  -4511026.00147  20465829.5724   20465836.9234   20465829.1964
      4833.1874       3766.1204
  -2487501.98549  -1903126.63547  20062578.2534   20062584.8644   20062577.7404
      4796.1224       3737.2384
 05  4 25 13  5 29.9970000  0  7G 4G25G 5G 1G 7G20G24
  -4418900.08249  -3416854.30347  20483306.7424   20483312.7054   20483308.4294
      7785.4304       6066.5694
  -3986585.13049  -1942930.76445  23879574.8244   23879579.7084   23879575.1304
      7883.1594       6142.7214
  -7804099.98049  -5572619.81746  21526131.1914   21526134.3934   21526129.4234
      6342.2374       4942.0034
  -5667797.97449  -4389284.21046  22114572.2334   22114573.9594   22114567.5874
      4553.1654       3547.9214
  -4485218.13049  -3483940.81147  20856520.7364   20856526.9044   20856520.7804
      3664.4294       2855.3994
  -5893329.13949  -4567485.00747  20452042.0504   20452048.5844   20452042.0634
      4827.5734       3761.7454
  -2559415.51249  -1959163.03847  20048893.3254   20048900.1214   20048893.1744
      4792.3354       3734.2874
 05  4 25 13  5 44.9970000  0  7G 4G25G 5G 1G 7G20G24
  -4535660.68849  -3507836.63147  20461087.7504   20461093.8114   20461089.0084
      7782.5584       6064.3314
  -4104821.89949  -2035063.29345  23857074.2884   23857078.7334   23857074.8384
      7881.5024       6141.4304
  -7899191.76749  -5646717.29346  21508034.9884   21508039.2384   21508033.7414
      6336.4954       4937.5294
  -5736057.67049  -4442473.54346  22101582.1974   22101583.9674   22101579.1044
      4547.9494       3543.8564
  -4540165.47249  -3526756.86947  20846064.6554   20846070.0604   20846064.3394
      3661.6564       2853.2384
  -5965701.86349  -4623879.26847  20438270.5134   20438275.5164   20438270.0154
      4821.9484       3757.3624
  -2631273.27449  -2015156.13847  20035219.6594   20035226.1624   20035219.4194
      4788.4994       3731.2984
 05  4 25 13  5 59.9970000  0  7G 4G25G 5G 1G 7G20G24
  -4652375.96149  -3598783.58947  20438877.0954   20438882.6064   20438876.6884
      7779.5414       6061.9804
  -4223032.65749  -2127175.68845  23834580.8614   23834584.9294   23834578.9224
      7879.8134       6140.1144
  -7994195.94249  -5720746.48646  21489955.2824   21489962.2714   21489953.3274
      6330.6504       4932.9744
  -5804237.80049  -4495600.91846  22088607.2024   22088609.5054   22088605.4444
      4542.6634       3539.7374
  -4595070.04649  -3569539.62247  20835616.3734   20835622.4194   20835615.9064
      3658.8014       2851.0144
  -6037988.85049  -4680206.81247  20424514.8354   20424518.7784   20424513.7914
      4816.2214       3752.8994
  -2703072.14949  -2071103.22647  20021556.6124   20021563.0714   20021556.3204
      4784.5514       3728.2224
 05  4 25 13  6 14.9970000  0  7G 4G25G 5G 1G 7G20G24
  -4769046.91449  -3689696.02147  20416675.5684   20416683.1884   20416674.6344
      7776.6074       6059.6944
  -4341218.35449  -2219268.72045  23812092.4814   23812096.8684   23812088.3154
      7878.2044       6138.8604
  -8089113.58449  -5794708.35646  21471892.4604   21471901.8374   21471892.1064
      6324.9654       4928.5444
  -5872339.67249  -4548667.36446  22075647.8694   22075650.5694   22075646.6084
      4537.5504       3535.7534
  -4649933.01849  -3612289.97947  20825176.5254   20825182.2534   20825176.0744
      3656.0854       2848.8974
  -6110191.07949  -4736468.21647  20410774.6644   20410779.0224   20410774.0104
      4810.6774       3748.5794
  -2774813.52549  -2127005.38447  20007904.2374   20007910.9804   20007904.0794
      4780.8874       3725.3664
 05  4 25 13  6 29.9970000  0  7G 4G25G 5G 1G 7G20G24
  -4885674.66249  -3780574.83447  20394482.3304   20394487.9944   20394482.2424
      7773.6794       6057.4124
  -4459379.07549  -2311341.97445  23789605.4644   23789611.7914   23789602.5244
      7876.4034       6137.4574
  -8183945.68049  -5868603.53646  21453845.9274   21453854.9894   21453846.9804
      6319.1594       4924.0204
  -5940364.65749  -4601673.91246  22062702.9074   22062705.8214   22062701.6474
      4532.3134       3531.6724
  -4704756.01049  -3655009.21747  20814744.3084   20814749.8084   20814743.6904
      3653.3764       2846.7864
  -6182310.10149  -4792664.84247  20397050.7834   20397055.7534   20397050.7094
      4805.0404       3744.1874
  -2846499.24849  -2182864.30447  19994263.3754   19994269.4844   19994263.0024
      4777.0524       3722.3784
 05  4 25 13  6 44.9970000  0  7G 4G25G 5G 1G 7G20G24
  -5002257.96549  -3871419.02447  20372298.0544   20372302.4844   20372298.0804
      7770.9254       6055.2664
  -4577513.95549  -2403395.00545  23767120.7994   23767130.8824   23767122.7304
      7874.9214       6136.3024
  -8278691.32349  -5942431.30846  21435818.7464   21435824.7814   21435818.4434
      6313.6104       4919.6964
  -6008311.93849  -4654619.90646  22049772.9674   22049776.4624   22049772.4484
      4527.3644       3527.8164
  -4759538.01049  -3697696.48647  20804319.4184   20804325.6354   20804319.1874
      3650.8394       2844.8104
  -6254345.00749  -4848795.88947  20383343.5204   20383348.6964   20383342.8164
      4799.6484       3739.9854
  -2918128.21949  -2238679.08747  19980632.7104   19980638.6984   19980632.4494
      4773.4914       3719.6034
 05  4 25 13  6 59.9970000  0  7G 4G25G 5G 1G 7G20G24
  -5118797.72049  -3962229.26047  20350121.4064   20350126.7264   20350121.3324
      7767.6864       6052.7424
  -4695623.80749  -2495428.58645  23744645.4764   23744655.0134   23744648.9904
      7872.9584       6134.7724
  -8373351.34649  -6016192.33346  21417805.8594   21417811.9984   21417804.0084
      6307.5974       4915.0114
  -6076182.53749  -4707506.10246  22036857.7024   22036860.6174   22036857.1884
      4521.9814       3523.6224
  -4814280.39649  -3740352.90447  20793901.6974   20793908.0274   20793901.3574
      3647.9194       2842.5344
  -6326296.91249  -4904862.29247  20369651.6264   20369656.9224   20369651.1024
      4793.8144       3735.4394
  -2989701.44049  -2294450.42547  19967012.6574   19967018.9054   19967012.0974
      4769.4834       3716.4804
 05  4 25 13  7 14.9970000  0  7G 4G25G 5G 1G 7G20G24
  -5235291.96349  -4053004.03547  20327952.8794   20327958.4604   20327953.4914
      7765.0304       6050.6734
  -4813706.92949  -2587441.31645  23722179.0684   23722183.7924   23722179.2014
      7871.4854       6133.6254
  -8467924.02949  -6089885.30146  21399809.3244   21399814.0114   21399807.7734
      6302.1344       4910.7544
  -6143975.14849  -4760331.60546  22023958.0214   22023960.0904   22023956.7814
      4517.0984       3519.8174
  -4868981.57049  -3782977.19947  20783492.9264   20783499.7254   20783491.4944
      3645.5334       2840.6754
  -6398164.39049  -4960862.87647  20355975.4244   20355981.1594   20355974.9824
      4788.5394       3731.3294
  -3061217.53149  -2350177.26447  19953403.7184   19953409.4814   19953403.4174
      4766.0664       3713.8184
 05  4 25 13  7 29.9970000  0  7G 4G25G 5G 1G 7G20G24
  -5351740.68649  -4143743.45047  20305793.3224   20305799.7764   20305793.8804
      7761.6334       6048.0264
  -4931762.82349  -2679432.87045  23699715.1834   23699718.8664   23699713.5024
      7869.3834       6131.9874
  -8562409.21349  -6163510.09746  21381827.9874   21381833.6634   21381827.2494
      6295.9944       4905.9694
  -6211689.80649  -4813096.40346  22011073.3374   22011074.8984   22011072.1284
      4511.6144       3515.5434
  -4923641.79949  -3825569.62847  20773091.7674   20773097.4694   20773090.6744
      3642.5174       2838.3254
  -6469947.68349  -5016797.91647  20342314.8184   20342320.9664   20342314.0894
      4782.6394       3726.7324
  -3132676.49449  -2405859.64147  19939805.8414   19939811.5064   19939805.3794
      4761.9244       3710.5904
 05  4 25 13  7 44.9960000  0  7G 4G25G 5G 1G 7G20G24
  -5468133.49149  -4234439.27547  20283644.7114   20283650.3984   20283644.8954
      7758.5494       6045.6234
  -5049781.03849  -2771395.04345  23677254.5494   23677259.5314   23677254.6714
      7867.5044       6130.5234
  -8656798.38349  -6237060.12546  21363866.4624   21363872.9864   21363865.9304
      6290.0984       4901.3754
  -6279319.81749  -4865795.14046  21998204.7064   21998204.8084   21998203.4014
      4506.3474       3511.4394
  -4978255.19849  -3868125.57147  20762698.7844   20762704.3544   20762698.8334
      3639.6974       2836.1284
  -6541640.03749  -5072662.15347  20328671.6444   20328677.9424   20328671.1034
      4777.0134       3722.3484
  -3204071.54549  -2461492.26447  19926219.2104   19926224.9714   19926218.8414
      4758.0754       3707.5914
 05  4 25 13  7 59.9960000  0  7G 4G25G 5G 1G 7G20G24
  -5584488.07649  -4325105.16247  20261503.3354   20261509.7474   20261503.9534
      7755.4594       6043.2154
  -5167779.91049  -2863342.22345  23654798.3444   23654805.7964   23654801.0094
      7865.6184       6129.0534
  -8751106.64249  -6310547.09546  21345919.7894   21345927.2224   21345919.9314
      6284.2484       4896.8174
  -6346877.22349  -4918437.35246  21985348.8934   21985349.6224   21985347.7524
      4501.2304       3507.4524
  -5032832.02249  -3910652.98747  20752312.8374   20752319.9564   20752313.7714
      3637.0384       2834.0564
  -6613253.80949  -5128465.26047  20315043.6314   20315049.6094   20315043.7264
      4771.4404       3718.0054
  -3275414.72349  -2517084.42347  19912642.9274   19912648.8854   19912642.8634
      4754.2654       3704.6224
 05  4 25 13  8 14.9960000  0  7G 4G25G 5G 1G 7G20G24
  -5700797.20349  -4415735.65147  20239370.3854   20239376.4184   20239370.7604
      7752.5384       6040.9394
  -5285751.62049  -2955268.21545  23632351.6874   23632356.3524   23632351.9324
      7863.9644       6127.7644
  -8845327.90449  -6383966.26646  21327991.5064   21327997.7224   21327990.4984
      6278.5944       4892.4114
  -6414357.84349  -4971019.74046  21972507.4274   21972507.7384   21972506.1904
      4496.2334       3503.5584
  -5087369.14849  -3953149.49147  20741934.8474   20741941.3314   20741935.0164
      3634.5254       2832.0974
  -6684784.08549  -5184203.21847  20301432.9094   20301437.9144   20301432.8634
      4765.9894       3713.7584
  -3346701.57049  -2572632.55947  19899077.8934   19899083.5074   19899077.0704
      4750.6824       3701.8304
 05  4 25 13  8 29.9960000  0  7G 4G25G 5G 1G 7G20G24
  -5817059.19649  -4506329.55847  20217246.1474   20217252.0224   20217247.0484
      7749.3464       6038.4514
  -5403694.37749  -3047171.66745  23609911.8724   23609914.1704   23609907.8314
      7861.9834       6126.2214
  -8939460.46949  -6457316.32946  21310078.8754   21310085.4914   21310078.4314
      6272.6544       4887.7824
  -6481760.12149  -5023541.03646  21959680.1614   21959680.9054   21959678.6464
      4490.9764       3499.4624
  -5141864.98349  -3995613.78447  20731564.7504   20731570.3684   20731564.0924
      3631.7274       2829.9174
  -6756229.51949  -5239875.00547  20287838.2884   20287842.9094   20287837.4904
      4760.3304       3709.3484
  -3417930.81349  -2628135.84647  19885523.4974   19885529.0104   19885522.9094
      4746.8584       3698.8504
 05  4 25 13  8 44.9960000  0  7G 4G25G 5G 1G 7G20G24
  -5933275.05549  -4596887.56547  20195131.3194   20195138.7304   20195131.2094
      7746.0674       6035.8964
  -5521609.28349  -3139053.62645  23587472.4424   23587476.4124   23587469.7884
      7859.9734       6124.6544
  -9033505.49249  -6530598.15246  21292184.1354   21292189.3194   21292180.2944
      6266.6504       4883.1044
  -6549085.53949  -5076002.42646  21946866.8874   21946869.1884   21946865.2434
      4485.7034       3495.3534
  -5196320.95549  -4038046.99447  20721202.7414   20721209.8374   20721201.1454
      3628.9434       2827.7484
  -6827591.65949  -5295481.87147  20274258.8724   20274263.2884   20274258.1414
      4754.6214       3704.8994
  -3489103.81049  -2683595.30847  19871979.5874   19871985.4294   19871979.3734
      4742.8864       3695.7554
 05  4 25 13  8 59.9960000  0  7G 4G25G 5G 1G 7G20G24
  -6049442.05349  -4687407.23947  20173025.8954   20173031.6924   20173025.2054
      7742.9244       6033.4474
  -5639493.77749  -3230911.94745  23565036.5334   23565042.2134   23565037.5394
      7857.9444       6123.0734
  -9127461.09849  -6603810.37646  21274300.3764   21274309.3254   21274301.9524
      6260.7624       4878.5164
  -6616332.79549  -5128403.00846  21934067.4334   21934073.4954   21934066.3824
      4480.5754       3491.3574
  -5250735.74349  -4080448.27147  20710848.1724   20710853.7884   20710847.4304
      3626.2714       2825.6664
  -6898868.75449  -5351022.46147  20260695.0034   20260700.3804   20260694.3444
      4748.9934       3700.5144
  -3560218.82549  -2739009.60247  19858446.5284   19858452.9054   19858446.5334
      4739.0904       3692.7974
 05  4 25 13  9 14.9960000  0  7G 4G25G 5G 1G 7G20G24
  -6165563.92349  -4777891.93247  20150928.9144   20150934.7634   20150928.4844
      7740.0244       6031.1884
  -5757350.53549  -3322748.45145  23542609.4014   23542615.6664   23542609.9254
      7856.2704       6121.7694
  -9221330.11449  -6676955.06446  21256439.7784   21256446.7364   21256439.3624
      6255.1344       4874.1304
  -6683504.62549  -5180744.84146  21921282.1144   21921290.6374   21921282.6754
      4475.6614       3487.5284
  -5305111.88549  -4122819.34647  20700500.5714   20700505.5624   20700501.2924
      3623.8034       2823.7434
  -6970063.92849  -5406499.21647  20247146.0614   20247152.5184   20247145.7894
      4743.6894       3696.3814
  -3631278.88349  -2794381.06647  19844924.5254   19844930.2284   19844924.2014
      4735.5894       3690.0694
 05  4 25 13  9 29.9960000  0  7G 4G25G 5G 1G 7G20G24
  -6281639.41449  -4868340.96947  20128840.7254   20128847.2844   20128842.1714
      7736.5584       6028.4874
  -5875178.18449  -3414562.44845  23520190.3154   23520193.4224   23520189.7714
      7854.0184       6120.0144
  -9315110.99649  -6750031.12546  21238592.9514   21238599.4104   21238594.7904
      6248.9574       4869.3174
  -6750599.69749  -5233026.78246  21908512.7774   21908522.7234   21908514.1244
      4470.2964       3483.3484
  -5359448.10249  -4165159.11747  20690159.8574   20690167.1834   20690161.5344
      3620.9204       2821.4964
  -7041175.80949  -5461911.00447  20233613.8064   20233619.8714   20233613.1714
      4737.8774       3691.8524
  -3702282.84449  -2849708.88147  19831412.7094   19831418.8744   19831412.7854
      4731.6524       3687.0024
 05  4 25 13  9 44.9960000  0  7G 4G25G 5G 1G 7G20G24
  -6397664.08849  -4958749.84247  20106761.5924   20106768.7924   20106761.4404
      7733.4434       6026.0594
  -5992973.44849  -3506351.02945  23497775.8254   23497777.9954   23497773.3574
      7851.9734       6118.4214
  -9408801.18949  -6823036.39446  21220767.2294   21220771.5304   21220765.7824
      6243.0344       4864.7024
  -6817615.54749  -5285246.90046  21895759.9694   21895770.5754   21895760.9664
      4465.1314       3479.3234
  -5413742.70049  -4207466.61447  20679827.6434   20679834.0044   20679828.0714
      3618.2544       2819.4194
  -7112202.20949  -5517256.22447  20220097.8734   20220103.4374   20220097.7154
      4732.2834       3687.4934
  -3773228.02049  -2904990.87847  19817912.4634   19817918.5044   19817912.4354
      4727.7164       3683.9344
 05  4 25 13  9 59.9960000  0  7G 4G25G 5G 1G 7G20G24
  -6513640.88949  -5049121.53847  20084692.1544   20084699.2634   20084693.1294
      7730.0994       6023.4544
  -6110738.58149  -3598116.16145  23475364.3244   23475367.8514   23475363.3784
      7849.8604       6116.7744
  -9502402.79349  -6895972.74146  21202952.8024   21202959.6804   21202953.7274
      6237.0304       4860.0234
  -6884554.85749  -5337407.43446  21883023.3144   21883031.9854   21883023.8654
      4459.9374       3475.2764
  -5467997.96849  -4249743.48847  20669503.8244   20669509.1984   20669502.5954
      3615.5194       2817.2884
  -7183145.56549  -5572536.77547  20206598.1964   20206603.1584   20206598.1874
      4726.6284       3683.0874
  -3844116.86949  -2960228.92047  19804422.4784   19804428.9824   19804422.2114
      4723.9974       3681.0374
 05  4 25 13 10 14.9960000  0  7G 4G25G 5G 1G 7G20G24
  -6629568.13349  -5139454.34347  20062632.1104   20062638.3604   20062632.1674
      7726.7814       6020.8684
  -6228472.20949  -3689856.77145  23452958.6054   23452965.1454   23452958.4094
      7847.6904       6115.0834
  -9595914.77949  -6968839.20346  21185160.3634   21185163.4674   21185158.7404
      6231.0634       4855.3744
  -6951416.57149  -5389507.49646  21870301.7684   21870308.7774   21870301.6644
      4454.7994       3471.2724
  -5522212.79849  -4291988.84447  20659188.2634   20659194.7874   20659187.3954
      3612.8834       2815.2334
  -7254004.66749  -5627751.64147  20193114.6724   20193119.2184   20193114.0294
      4721.0814       3678.7644
  -3914948.41749  -3015422.36547  19790943.7394   19790949.9804   19790943.5544
      4720.1084       3678.0064
 05  4 25 13 10 29.9960000  0  7G 4G25G 5G 1G 7G20G24
  -6745445.25249  -5229747.93747  20040581.4944   20040587.3744   20040582.2404
      7723.4864       6018.3014
  -6346172.82349  -3781571.28045  23430560.7364   23430564.5784   23430560.6714
      7845.5914       6113.4484
  -9689336.19049  -7041635.09446  21167381.1584   21167388.6774   21167382.3434
      6225.0484       4850.6874
  -7018200.33749  -5441546.81546  21857594.4254   21857600.0864   21857593.2494
      4449.6064       3467.2254
  -5576386.63049  -4334202.23347  20648878.8904   20648882.8964   20648880.3664
      3610.1684       2813.1184
  -7324779.09749  -5682900.55947  20179646.7264   20179651.5014   20179646.0944
      4715.3804       3674.3224
  -3985722.25249  -3070570.86247  19777476.0334   19777482.6874   19777476.2214
      4716.3244       3675.0584
 05  4 25 13 10 44.9960000  0  7G 4G25G 5G 1G 7G20G24
  -6861275.57249  -5320005.48547  20018539.5324   20018545.6264   20018539.9424
      7720.3434       6015.8524
  -6463843.76449  -3873262.93345  23408170.2844   23408174.1934   23408169.7564
      7843.6494       6111.9344
  -9782669.76249  -7114362.53446  21149623.2694   21149628.0654   21149622.3824
      6219.1974       4846.1274
  -7084909.00849  -5493527.66046  21844899.9604   21844906.6374   21844899.0954
      4444.6524       3463.3654
  -5630522.27249  -4376385.86047  20638575.8344   20638583.3064   20638579.1004
      3607.6194       2811.1324
  -7395471.58649  -5737985.58947  20166193.9384   20166199.8204   20166193.3764
      4709.9794       3670.1144
  -4056440.82449  -3125676.24947  19764018.9154   19764025.2414   19764018.6964
      4712.5994       3672.1554
 05  4 25 13 10 59.9960000  0  7G 4G25G 5G 1G 7G20G24
  -6977054.35749  -5410222.72547  19996507.4304   19996513.2804   19996507.5844
      7716.9954       6013.2434
  -6581481.09449  -3964928.54545  23385784.7804   23385788.4484   23385783.3654
      7841.4394       6110.2124
  -9875911.86749  -7187018.74346  21131875.4584   21131880.3344   21131876.0274
      6213.2174       4841.4684
  -7151538.93549  -5545447.05546  21832219.6814   21832226.7954   21832219.3874
      4439.5064       3459.3554
  -5684616.59849  -4418537.26547  20628281.7164   20628290.4194   20628283.2354
      3604.9814       2809.0764
  -7466078.98549  -5793004.35647  20152757.1974   20152763.9784   20152756.8594
      4704.4764       3665.8254
  -4127100.76049  -3180735.84047  19750572.6984   19750579.6384   19750572.7204
      4708.8384       3669.2244
 05  4 25 13 11 14.9960000  0  7G 4G25G 5G 1G 7G20G24
  -7092781.67149  -5500399.66247  19974485.2674   19974491.5344   19974485.6774
      7713.5264       6010.5404
  -6699084.37449  -4056567.45745  23363404.1214   23363410.8304   23363404.2334
      7839.0644       6108.3624
  -9969062.72349  -7259603.82246  21114153.3734   21114159.6434   21114154.4224
      6206.9984       4836.6224
  -7218090.80349  -5597305.61546  21819554.3614   21819562.2244   21819554.9324
      4434.1874       3455.2114
  -5738670.04649  -4460656.81247  20617997.0884   20618001.8724   20617995.8274
      3602.1354       2806.8584
  -7536601.71949  -5847957.16747  20139337.0174   20139344.2294   20139336.8324
      4698.7054       3661.3294
  -4197702.86149  -3235750.44447  19737137.0934   19737144.0944   19737136.9904
      4704.8854       3666.1444
 05  4 25 13 11 29.9960000  0  7G 4G25G 5G 1G 7G20G24
  -7208457.51649  -5590536.59747  19952472.9414   19952478.6194   19952473.3564
      7710.0914       6007.8634
  -6816653.35749  -4148179.74745  23341029.6244   23341038.6734   23341031.4394
      7836.8804       6106.6604
 -10062122.00749  -7332117.57246  21096444.5244   21096448.2754   21096441.5334
      6200.9174       4831.8834
  -7284564.54549  -5649103.35346  21806904.2264   21806912.3214   21806904.6854
      4429.0154       3451.1814
  -5792682.34249  -4502744.30847  20607719.5404   20607725.5804   20607719.1004
      3599.4824       2804.7914
  -7607039.47349  -5902843.81847  20125934.0314   20125939.8934   20125934.2694
      4693.0924       3656.9554
  -4268246.67149  -3290719.63947  19723713.2194   19723720.0654   19723713.2814
      4701.0314       3663.1414
 05  4 25 13 11 44.9960000  0  7G 4G25G 5G 1G 7G20G24
  -7324083.72749  -5680634.87247  19930469.3334   19930475.9144   19930469.5634
      7706.6174       6005.1564
  -6934189.62149  -4239766.61245  23318663.1054   23318671.1774   23318665.5924
      7834.4174       6104.7414
 -10155091.50849  -7404561.34246  21078752.1364   21078754.5444   21078754.0614
      6194.8204       4827.1324
  -7350962.05449  -5700841.61946  21794269.5404   21794277.5454   21794271.0664
      4423.7884       3447.1084
  -5846655.79049  -4544801.56047  20597448.4154   20597454.9104   20597449.6354
      3596.7624       2802.6724
  -7677394.58849  -5957666.11547  20112547.3154   20112551.1244   20112546.7604
      4687.4124       3652.5294
  -4338734.27649  -3345645.01347  19710300.0054   19710306.6044   19710300.0264
      4697.1574       3660.1224
 05  4 25 13 11 59.9960000  0  7G 4G25G 5G 1G 7G20G24
  -7439657.61549  -5770692.36947  19908476.4644   19908482.5834   19908476.7524
      7703.2784       6002.5544
  -7051690.30449  -4331325.39945  23296306.3634   23296311.2574   23296306.8464
      7832.2614       6103.0604
 -10247969.17649  -7476933.51046  21061080.5694   21061084.6264   21061077.6504
      6188.7784       4822.4244
  -7417281.38449  -5752518.91746  21781650.6824   21781656.9754   21781651.1344
      4418.7334       3443.1694
  -5900588.31549  -4586826.98047  20587184.0374   20587190.4974   20587186.4324
      3594.1234       2800.6154
  -7747664.70049  -6012422.16547  20099176.0184   20099179.2264   20099175.1364
      4681.8774       3648.2164
  -4409163.79849  -3400525.18047  19696897.9334   19696904.3674   19696898.0114
      4693.3754       3657.1754
 05  4 25 13 12 14.9950000  0  7G 4G25G 5G 1G 7G20G24
  -7555172.15549  -5860703.83547  19886495.4564   19886500.9484   19886496.0404
      7699.6584       5999.7344
  -7169148.19149  -4422850.88445  23273956.2324   23273960.2104   23273955.0854
      7829.8164       6101.1554
 -10340748.84449  -7549229.41946  21043421.1794   21043426.9154   21043423.1264
      6182.5624       4817.5814
  -7483518.96549  -5804132.66246  21769047.5214   21769053.1014   21769046.9774
      4413.4364       3439.0414
  -5954476.86649  -4628818.10047  20576929.0234   20576937.6034   20576929.8314
      3591.2984       2798.4144
  -7817845.67349  -6067108.70847  20085820.3614   20085824.3884   20085819.1564
      4676.1494       3643.7524
  -4479530.81749  -3455356.66847  19683508.3824   19683513.9954   19683507.7904
      4689.4014       3654.0794
 05  4 25 13 12 29.9950000  0  7G 4G25G 5G 1G 7G20G24
  -7670640.87049  -5950679.47947  19864522.6624   19864527.7724   19864523.0644
      7696.1234       5996.9794
  -7286577.73949  -4514354.42045  23251608.4314   23251615.4184   23251607.5484
      7827.3874       6099.2634
 -10433441.93449  -7621457.77546  21025785.4594   21025787.5094   21025782.6094
      6176.3794       4812.7634
  -7549682.39049  -5855688.55046  21756458.6224   21756463.7494   21756457.2264
      4408.1904       3434.9534
  -6008327.80749  -4670779.89047  20566683.2954   20566688.6534   20566680.5504
      3588.5674       2796.2864
  -7887945.97449  -6121732.32247  20072479.2604   20072485.0804   20072478.6594
      4670.4734       3639.3304
  -4549843.53349  -3510145.73447  19670127.8044   19670133.9224   19670127.5244
      4685.5094       3651.0464
 05  4 25 13 12 44.9950000  0  7G 4G25G 5G 1G 7G20G24
  -7786056.05249  -6040613.49947  19842559.5994   19842565.7084   19842559.6194
      7692.6424       5994.2664
  -7403970.37749  -4605829.26945  23229266.8254   23229275.4564   23229268.1184
      7825.0324       6097.4284
 -10526041.71649  -7693613.49546  21008161.5844   21008169.1484   21008162.5184
      6170.2794       4808.0104
  -7615767.36349  -5907183.39746  21743883.8294   21743887.6204   21743882.7184
      4403.1304       3431.0104
  -6062137.35649  -4712709.51347  20556444.4434   20556449.3464   20556442.1474
      3585.9664       2794.2594
  -7957960.81649  -6176289.34747  20059155.0704   20059162.1704   20059154.9274
      4664.8904       3634.9794
  -4620097.65549  -3564889.22447  19656758.2314   19656764.9934   19656758.5784
      4681.7384       3648.1084
 05  4 25 13 12 59.9950000  0  7G 4G25G 5G 1G 7G20G24
  -7901417.32849  -6130505.45147  19820606.9684   19820613.0994   19820607.3494
      7689.1024       5991.5084
  -7521326.29749  -4697275.65145  23206934.3584   23206942.0154   23206936.9324
      7822.6464       6095.5684
 -10618548.59049  -7765696.79846  20990559.7274   20990564.5314   20990558.3904
      6164.1794       4803.2564
  -7681774.11749  -5958617.22146  21731323.9574   21731327.5624   21731322.5434
      4398.0504       3427.0524
  -6115905.88449  -4754607.09347  20546212.0204   20546217.9464   20546212.1624
      3583.3454       2792.2174
  -8027890.60949  -6230780.05747  20045849.0264   20045854.8024   20045848.6984
      4659.2974       3630.6214
  -4690293.21949  -3619587.03447  19643400.5894   19643407.5624   19643400.4964
      4677.8904       3645.1094
 05  4 25 13 13 14.9950000  0  7G 4G25G 5G 1G 7G20G24
  -8016724.13349  -6220354.90047  19798664.7104   19798671.1464   19798664.7824
      7685.4664       5988.6754
  -7638644.26049  -4788692.34545  23184609.8874   23184616.0964   23184611.3054
      7820.0334       6093.5324
 -10710961.82749  -7837707.16646  20972974.8684   20972978.3734   20972973.8604
      6157.8304       4798.3094
  -7747702.80449  -6009990.45246  21718778.2804   21718781.7654   21718777.2854
      4392.7324       3422.9084
  -6169632.83349  -4796472.25347  20535987.5164   20535993.0724   20535988.9674
      3580.4644       2789.9724
  -8097734.92049  -6285204.15847  20032559.1024   20032563.2554   20032558.2804
      4653.4924       3626.0984
  -4760430.02049  -3674239.16947  19630054.4094   19630060.8384   19630054.2694
      4673.8904       3641.9924
 05  4 25 13 13 29.9950000  0  7G 4G25G 5G 1G 7G20G24
  -8131976.91549  -6310162.46847  19776733.5304   19776740.3954   19776733.4534
      7681.6524       5985.7034
  -7755924.44149  -4880079.68145  23162291.8654   23162298.9584   23162292.7454
      7817.3984       6091.4794
 -10803281.52049  -7909644.59346  20955405.8964   20955409.1164   20955405.0654
      6151.4864       4793.3664
  -7813553.19549  -6061302.53646  21706247.3264   21706251.4404   21706246.4004
      4387.3664       3418.7274
  -6223318.95449  -4838305.55747  20525770.5604   20525778.6604   20525771.7214
      3577.6294       2787.7634
  -8167494.35349  -6339562.13847  20019284.3564   20019288.2534   20019283.5134
      4647.7564       3621.6284
  -4830508.38849  -3728845.85647  19616719.0774   19616725.6344   19616719.0164
      4669.8964       3638.8804
 05  4 25 13 13 44.9950000  0  7G 4G25G 5G 1G 7G20G24
  -8247171.56049  -6399924.28447  19754812.2774   19754818.6404   19754812.0754
      7677.7294       5982.6464
  -7873163.56849  -4971434.83245  23139978.6484   23139992.3124   23139982.3394
      7814.5254       6089.2404
 -10895504.99649  -7981507.05146  20937855.6434   20937860.8284   20937854.4854
      6145.0024       4788.3134
  -7879322.68849  -6112551.45346  21693732.0004   21693736.0584   21693730.7374
      4381.9254       3414.4874
  -6276961.77049  -4880105.10247  20515562.4234   20515570.0344   20515561.9514
      3574.6394       2785.4334
  -8237166.09449  -6393851.76347  20006025.3654   20006030.2754   20006024.8734
      4641.8294       3617.0104
  -4900525.10849  -3783404.31847  19603395.8464   19603401.8034   19603395.2264
      4665.7064       3635.6154
 05  4 25 13 13 59.9950000  0  7G 4G25G 5G 1G 7G20G24
  -8362309.61449  -6489642.05647  19732901.9184   19732908.7234   19732902.0084
      7674.1694       5979.8724
  -7990362.51249  -5062758.79045  23117674.9194   23117688.9824   23117680.4664
      7812.0494       6087.3114
 -10987633.04549  -8053295.15546  20920323.5744   20920329.9004   20920322.4574
      6138.8304       4783.5044
  -7945012.63449  -6163738.43746  21681231.5174   21681235.0274   21681230.1744
      4376.8254       3410.5134
  -6330562.17449  -4921871.57947  20505364.6224   20505369.1634   20505362.0574
      3572.0724       2783.4334
  -8306751.35849  -6448074.05747  19992783.0184   19992789.0574   19992782.9094
      4636.3134       3612.7114
  -4970481.39449  -3837915.58247  19590083.7244   19590089.6554   19590083.2834
      4661.9484       3632.6874
 05  4 25 13 14 14.9950000  0  7G 4G25G 5G 1G 7G20G24
  -8477390.80849  -6579315.51747  19711002.4414   19711008.8534   19711002.7134
      7670.1004       5976.7014
  -8107520.76149  -5154050.95045  23095383.9784   23095395.7044   23095386.0604
      7809.0064       6084.9404
 -11079665.41949  -8125008.73346  20902807.9284   20902817.2674   20902809.2274
      6132.1554       4778.3034
  -8010623.05249  -6214863.47146  21668746.6434   21668750.4714   21668746.4384
      4371.2224       3406.1474
  -6384120.30049  -4963605.17847  20495173.0984   20495179.0514   20495172.8374
      3568.9164       2780.9744
  -8376250.25049  -6502229.15347  19979557.9694   19979564.3424   19979557.6854
      4630.2454       3607.9834
  -5040377.61549  -3892380.15747  19576783.0734   19576788.8044   19576782.5354
      4657.5484       3629.2584
 05  4 25 13 14 29.9950000  0  7G 4G25G 5G 1G 7G20G24
  -8592415.76749  -6668945.28047  19689114.1884   19689119.8724   19689114.7714
      7666.4554       5973.8614
  -8224639.26549  -5245312.27345  23073099.0814   23073109.7914   23073098.9484
      7806.5464       6083.0234
 -11171602.93249  -8196648.37246  20885315.3084   20885323.1284   20885314.7704
      6125.9314       4773.4534
  -8076154.98649  -6265927.43646  21656277.3804   21656279.5554   21656276.0214
      4366.0574       3402.1224
  -6437636.88549  -5005306.40247  20484987.8954   20484993.2344   20484989.9974
      3566.3024       2778.9374
  -8445663.51749  -6556317.52547  19966349.7964   19966355.4164   19966349.4044
      4624.6064       3603.5894
  -5110214.47549  -3946798.47547  19563492.7914   19563499.1514   19563493.0134
      4653.7424       3626.2924
 05  4 25 13 14 44.9950000  0  7G 4G25G 5G 1G 7G20G24
  -8707381.38749  -6758529.27147  19667237.0334   19667243.1994   19667238.0204
      7662.4704       5970.7564
  -8341713.43149  -5336539.05945  23050820.0834   23050830.8534   23050820.6224
      7803.4164       6080.5844
 -11263441.65949  -8268211.00946  20867839.3144   20867845.3714   20867838.8744
      6119.2474       4768.2444
  -8141604.51949  -6316927.05146  21643822.7484   21643825.5494   21643820.4234
      4360.5324       3397.8174
  -6491108.56949  -5046972.67647  20474812.6564   20474818.8484   20474813.4084
      3563.2144       2776.5304
  -8514987.13549  -6610335.82647  19953158.5004   19953163.1954   19953158.1314
      4618.5564       3598.8754
  -5179988.22849  -4001167.55847  19550215.3124   19550221.6594   19550215.1914
      4649.4434       3622.9434
 05  4 25 13 14 59.9950000  0  7G 4G25G 5G 1G 7G20G24
  -8822286.36949  -6848065.81447  19645371.3564   19645377.1944   19645372.3124
      7658.3574       5967.5514
  -8458743.44649  -5427731.50445  23028549.9564   23028558.5694   23028551.0444
      7800.5394       6078.3424
 -11355181.84049  -8339696.78646  20850382.8574   20850388.0444   20850380.8474
      6112.8244       4763.2394
  -8206972.65049  -6367863.44346  21631383.3754   21631387.0274   21631381.9054
      4355.2324       3393.6874
  -6544535.66449  -5088604.18947  20464646.2734   20464652.5234   20464645.3144
      3560.3544       2774.3024
  -8584221.97049  -6664285.00947  19939984.0794   19939988.3244   19939983.1754
      4612.7654       3594.3624
  -5249699.37149  -4055487.85647  19536949.2104   19536955.7424   19536949.3974
      4645.4194       3619.8074
 05  4 25 13 15 14.9950000  0  7G 4G25G 5G 1G 7G20G24
  -8937131.36349  -6937555.04747  19623516.8784   19623523.4134   19623517.2214
      7654.5114       5964.5544
  -8575729.85349  -5518889.54245  23006289.4694   23006297.4184   23006289.1414
      7797.8764       6076.2674
 -11446825.07149  -8411107.13646  20832939.7974   20832951.2254   20832940.4254
      6106.5094       4758.3194
  -8272260.49349  -6418737.10846  21618959.3684   21618963.7814   21618956.6424
      4350.0674       3389.6634
  -6597920.07849  -5130202.43747  20454487.3994   20454492.4654   20454485.9754
      3557.6854       2772.2224
  -8653369.76449  -6718166.34947  19926825.5914   19926829.9774   19926824.2854
      4607.1584       3589.9934
  -5319349.53049  -4109760.62847  19523694.8544   19523701.8104   19523695.2304
      4641.5094       3616.7604
 05  4 25 13 15 29.9950000  0  7G 4G25G 5G 1G 7G20G24
  -9051918.52349  -7026999.37547  19601673.8064   19601679.7334   19601674.2564
      7650.3894       5961.3424
  -8692673.78949  -5610014.31545  22984035.8094   22984041.9734   22984036.3604
      7794.6444       6073.7494
 -11538372.02549  -8482442.39446  20815520.8114   20815527.0224   20815519.4804
      6099.7174       4753.0264
  -8337469.01549  -6469548.78846  21606549.6274   21606554.3744   21606546.9504
      4344.4054       3385.2514
  -6651262.74049  -5171768.14647  20444336.9064   20444343.2094   20444335.4004
      3554.5804       2769.8024
  -8722431.60349  -6771980.77347  19913682.3854   19913688.2984   19913681.5144
      4601.0534       3585.2364
  -5388939.72149  -4163986.73647  19510452.5514   19510459.3584   19510452.5714
      4637.1584       3613.3704
 05  4 25 13 15 44.9950000  0  7G 4G25G 5G 1G 7G20G24
  -9166643.52049  -7116395.36947  19579842.2084   19579848.2454   19579842.6424
      7646.3104       5958.1644
  -8809571.40449  -5701103.21945  22961790.3644   22961795.7314   22961791.4504
      7791.6134       6071.3874
 -11629818.58449  -8553699.47546  20798117.0994   20798125.5614   20798117.8504
      6093.0974       4747.8684
  -8402595.02949  -6520296.31046  21594154.9384   21594162.4414   21594152.4134
      4339.0234       3381.0574
  -6704559.78749  -5213298.33647  20434194.4794   20434200.3184   20434194.2204
      3551.6084       2767.4874
  -8791403.50349  -6825725.10347  19900556.4764   19900563.6414   19900556.3074
      4595.1314       3580.6224
  -5458466.09449  -4218163.13247  19497222.5434   19497228.7834   19497222.1174
      4633.0014       3610.1314
 05  4 25 13 15 59.9950000  0  7G 4G25G 5G 1G 7G20G24
  -9281306.61549  -7205743.14647  19558022.4214   19558028.6994   19558022.5514
      7642.4274       5955.1384
  -8926423.20049  -5792156.59345  22939554.6014   22939558.7254   22939555.7424
      7788.7994       6069.1944
 -11721165.62549  -8624878.97646  20780738.2394   20780742.9354   20780736.2684
      6086.7584       4742.9284
  -8467638.87149  -6570979.66746  21581773.3324   21581785.0374   21581772.6044
      4333.7744       3376.9674
  -6757812.18549  -5254793.78047  20424060.3964   20424066.8854   20424061.8344
      3548.9204       2765.3924
  -8860286.44349  -6879400.12147  19887448.9454   19887455.7754   19887448.8514
      4589.5034       3576.2364
  -5527929.44949  -4272290.41547  19484004.0114   19484010.5864   19484003.8474
      4629.1204       3607.1064
 05  4 25 13 16 14.9950000  0  7G 4G25G 5G 1G 7G20G24
  -9395907.09449  -7295042.17247  19536214.8134   19536221.7244   19536214.9954
      7637.9474       5951.6474
  -9043228.07249  -5883173.43145  22917328.2034   22917333.4304   22917328.3494
      7785.4334       6066.5714
 -11812412.35349  -8695980.38346  20763372.1444   20763379.0314   20763373.7714
      6079.7674       4737.4814
  -8532600.47749  -6621598.95346  21569407.7434   21569422.4694   21569409.2354
      4327.9664       3372.4414
  -6811019.53549  -5296254.12247  20413935.6024   20413943.0194   20413936.1214
      3545.5394       2762.7584
  -8929079.91749  -6933005.44947  19874359.0154   19874364.4114   19874358.7194
      4583.2344       3571.3514
  -5597329.59049  -4326368.61347  19470798.0894   19470804.2024   19470797.8894
      4624.5214       3603.5234
 05  4 25 13 16 29.9950000  0  7G 4G25G 5G 1G 7G20G24
  -9510446.15449  -7384293.37147  19514418.9754   19514425.0094   19514418.7214
      7633.9714       5948.5494
  -9159986.64249  -5974154.04645  22895110.5794   22895115.0784   22895110.2134
      7782.3764       6064.1894
 -11903560.11749  -8767004.61246  20746029.8714   20746036.0424   20746029.2484
      6073.2724       4732.4204
  -8597481.44849  -6672155.51246  21557059.3354   21557075.2964   21557062.1034
      4322.7944       3368.4114
  -6864183.15649  -5337680.35447  20403819.4334   20403824.5094   20403818.3784
      3542.7614       2760.5934
  -8997785.31849  -6986542.14847  19861285.5224   19861289.3824   19861284.8184
      4577.4874       3566.8734
  -5666667.07949  -4380397.72647  19457603.4974   19457609.4724   19457603.3074
      4620.4924       3600.3834
 05  4 25 13 16 44.9940000  0  7G 4G25G 5G 1G 7G20G24
  -9624914.54449  -7473489.42647  19492635.9484   19492641.7524   19492636.0764
      7629.7164       5945.2334
  -9276690.05949  -6065091.59545  22872904.6094   22872907.5754   22872904.0364
      7779.2354       6061.7424
 -11994601.58649  -8837946.05746  20728704.0694   20728711.7914   20728703.4284
      6066.5544       4727.1854
  -8662276.73049  -6722645.54046  21544729.9774   21544745.0614   21544732.4234
      4317.2974       3364.1284
  -6917298.66849  -5379069.08047  20393712.9964   20393718.4224   20393711.4094
      3539.8004       2758.2864
  -9066397.07149  -7040005.86447  19848228.5194   19848232.1724   19848227.4794
      4571.5284       3562.2304
  -5735936.82949  -4434374.06447  19444421.9214   19444427.6434   19444421.0104
      4616.2964       3597.1144
 05  4 25 13 16 59.9940000  0  7G 4G25G 5G 1G 7G20G24
  -9739324.97049  -7562640.34747  19470864.8324   19470870.5494   19470864.9454
      7625.1794       5941.6984
  -9393351.25549  -6155996.40145  22850707.8594   22850707.5034   22850705.9564
      7775.6764       6058.9684
 -12085546.28549  -8908812.03246  20711398.8624   20711404.3104   20711398.6474
      6059.4854       4721.6774
  -8726992.12749  -6773073.31446  21532416.3234   21532428.5294   21532418.1164
      4311.5224       3359.6284
  -6970370.81449  -5420424.02847  20383613.5784   20383618.5724   20383613.6694
      3536.4824       2755.7004
  -9134922.00549  -7093401.88047  19835186.9354   19835192.4294   19835186.4334
      4565.2614       3557.3464
  -5805145.80349  -4488303.10447  19431251.2174   19431257.3274   19431250.9324
      4611.6864       3593.5214
 05  4 25 13 17 14.9940000  0  7G 4G25G 5G 1G 7G20G24
  -9853669.86849  -7651740.25447  19449105.7164   19449111.4924   19449105.9274
      7620.9204       5938.3794
  -9509962.02749  -6246861.89445  22828519.9024   22828516.8584   22828517.7444
      7772.4414       6056.4484
 -12176388.21649  -8979597.93546  20694111.5124   20694119.1534   20694109.7774
      6052.7684       4716.4434
  -8791623.58249  -6823435.64646  21520119.5344   21520129.1104   21520119.9804
      4306.0224       3355.3424
  -7023396.27349  -5461742.60447  20373522.1004   20373527.3724   20373522.7754
      3533.5154       2753.3884
  -9203355.87149  -7146726.94847  19822163.5084   19822170.2984   19822163.7894
      4559.2874       3552.6914
  -5874289.46549  -4542181.27247  19418093.5244   19418099.5564   19418093.2104
      4607.4704       3590.2364
 05  4 25 13 17 29.9940000  0  7G 4G25G 5G 1G 7G20G24
  -9967949.51149  -7740789.28547  19427358.6054   19427364.4854   19427358.4974
      7616.4294       5934.8804
  -9626522.73749  -6337688.36845  22806338.8494   22806335.6054   22806337.3114
      7769.0104       6053.7744
 -12267127.82849  -9050304.10846  20676842.0954   20676851.0194   20676842.8044
      6045.8594       4711.0594
  -8856171.45749  -6873732.55446  21507837.9674   21507845.8984   21507837.5364
      4300.4194       3350.9764
  -7076375.87649  -5503025.46447  20363440.7374   20363447.6554   20363440.2234
      3530.3394       2750.9144
  -9271699.31749  -7199981.54447  19809160.2364   19809165.5364   19809160.1584
      4553.2484       3547.9854
  -5943368.45549  -4596009.02047  19404948.3034   19404954.4574   19404948.0894
      4603.0974       3586.8294
 05  4 25 13 17 44.9940000  0  7G 4G25G 5G 1G 7G20G24
 -10082163.56949  -7829787.25447  19405624.0594   19405630.6264   19405624.6104
      7612.1144       5931.5174
  -9743032.95649  -6428475.53345  22784165.9064   22784164.4354   22784164.6554
      7765.6284       6051.1394
 -12357765.04349  -9120930.49846  20659595.4754   20659601.7024   20659596.1324
      6039.0534       4705.7564
  -8920636.46649  -6923964.99046  21495571.2514   21495577.3554   21495570.7794
      4294.9034       3346.6784
  -7129309.39649  -5544272.35347  20353367.9494   20353373.2714   20353367.3044
      3527.3394       2748.5764
  -9339952.39749  -7253165.77547  19796173.8614   19796177.8114   19796172.7024
      4547.1744       3543.2524
  -6012382.88549  -4649786.49747  19391815.0154   19391821.5394   19391815.0314
      4598.8154       3583.4924
 05  4 25 13 17 59.9940000  0  7G 4G25G 5G 1G 7G20G24
 -10196310.34449  -7918732.77047  19383902.4484   19383908.7804   19383902.7954
      7607.7334       5928.1044
  -9859491.07549  -6519222.10745  22762003.9054   22762002.8754   22762003.3584
      7762.3084       6048.5524
 -12448298.40149  -9191475.97746  20642370.2384   20642374.7914   20642368.8174
      6032.2544       4700.4584
  -8985017.06349  -6974131.55546  21483320.2074   21483325.3954   21483320.1134
      4289.4384       3342.4194
  -7182196.06649  -5585482.82447  20343303.4784   20343309.5314   20343302.9924
      3524.4074       2746.2914
  -9408113.89349  -7306278.65147  19783203.2614   19783207.6614   19783201.9544
      4541.2004       3538.5974
  -6081331.37149  -4703512.62447  19378694.7314   19378701.2564   19378694.8554
      4594.5674       3580.1824
 05  4 25 13 18 14.9940000  0  7G 4G25G 5G 1G 7G20G24
 -10310389.66649  -8007625.74547  19362194.1214   19362200.0334   19362194.6214
      7602.9064       5924.3424
  -9975896.78249  -6609927.82845  22739853.4264   22739851.7054   22739850.8044
      7758.4524       6045.5474
 -12538727.65649  -9261940.30146  20625162.3424   20625165.7174   20625161.3174
      6024.9804       4694.7904
  -9049313.49949  -7024232.52346  21471084.5714   21471090.4484   21471085.0234
      4283.4894       3337.7844
  -7235035.79349  -5626656.73647  20333248.7894   20333254.9644   20333248.1494
      3520.8644       2743.5304
  -9476183.97049  -7359320.32447  19770248.9134   19770253.7574   19770248.0714
      4534.8004       3533.6104
  -6150213.98349  -4757187.42747  19365587.3364   19365593.0964   19365587.2704
      4589.8114       3576.4764
 05  4 25 13 18 29.9940000  0  7G 4G25G 5G 1G 7G20G24
 -10424400.60849  -8096465.45647  19340499.0644   19340504.5174   19340499.4924
      7598.4224       5920.8484
 -10092248.93949  -6700591.78145  22717713.5434   22717710.8764   22717708.8014
      7754.9644       6042.8294
 -12629052.24449  -9332323.08246  20607974.5934   20607979.1384   20607973.8324
      6018.0894       4689.4204
  -9113525.59249  -7074267.95246  21458865.2334   21458872.5954   21458865.3194
      4277.9244       3333.4474
  -7287828.04249  -5667793.61947  20323202.5324   20323208.2254   20323202.8924
      3517.8034       2741.1454
  -9544161.89849  -7412290.14047  19757312.1384   19757317.2504   19757311.5494
      4528.7364       3528.8854
  -6219030.11049  -4810810.42747  19352492.1404   19352498.2354   19352491.7294
      4585.4644       3573.0894
 05  4 25 13 18 44.9940000  0  8G 4G25G 5G 1G 7G23G20G24
 -10538342.19449  -8185251.04647  19318816.6194   19318822.2934   19318816.9114
      7593.8214       5917.2634
 -10208546.62549  -6791213.32545  22695582.2524   22695580.7214   22695578.0804
      7751.3714       6040.0294
 -12719271.28849  -9402623.64746  20590805.8214   20590811.0064   20590804.1974
      6011.0644       4683.9464
  -9177652.45049  -7124236.95646  21446663.2544   21446669.7964   21446664.0544
      4272.2864       3329.0544
  -7340571.97149  -5708892.80147  20313165.3834   20313171.8134   20313165.0304
      3514.5794       2738.6334
   -507549.70155                  22201999.2424   22202002.1054
      9138.0674       7120.5724
  -9612047.10749  -7465187.70647  19744393.7354   19744399.3614   19744393.8184
      4522.5844       3524.0914
  -6287779.04349  -4864381.09547  19339409.5444   19339416.0874   19339409.1904
      4580.9904       3569.6034
 05  4 25 13 18 59.9940000  0  8G 4G25G 5G 1G 7G23G20G24
 -10652215.23649  -8273983.21247  19297147.0024   19297153.1134   19297147.2124
      7589.2854       5913.7294
 -10324790.47749  -6881792.90445  22673459.5894   22673460.1734   22673456.2494
      7747.7704       6037.2234
 -12809385.64349  -9472842.63946  20573656.9714   20573661.5524   20573655.3634
      6004.1124       4678.5294
  -9241694.92849  -7174140.06846  21434478.3444   21434482.6304   21434477.6964
      4266.6604       3324.6704
  -7393268.87349  -5749955.30447  20303138.1774   20303144.3674   20303137.3444
      3511.4944       2736.2294
   -614352.37045                  22175916.2424   22175919.1644
      9137.0244       7119.7594
  -9679840.83949  -7518014.03547  19731494.2394   19731498.5234   19731493.8704
      4516.4824       3519.3374
  -6356461.68849  -4917900.07647  19326339.2534   19326346.1414   19326339.4674
      4576.6364       3566.2104
 05  4 25 13 19 14.9940000  0  8G 4G25G 5G 1G 7G23G20G24
 -10766018.98649  -8362661.57247  19275490.6354   19275497.1144   19275491.2544
      7584.5634       5910.0494
 -10440979.37149  -6972329.64045  22651347.3944   22651351.3974   22651345.5954
      7744.0424       6034.3184
 -12899394.47149  -9542979.45846  20556525.8944   20556534.2394   20556526.6474
      5997.0364       4673.0154
  -9305652.72749  -7223977.25446  21422309.6844   21422313.1604   21422307.7734
      4260.9974       3320.2574
  -7445918.15749  -5790980.71147  20293119.2374   20293124.8594   20293119.4214
      3508.2764       2733.7224
   -973557.33949   -721141.67745  22149840.9994   22149842.0944   22149836.9054
      9135.8204       7118.8214
  -9747542.34549  -7570768.47547  19718611.3844   19718615.6254   19718610.4904
      4510.2984       3514.5184
  -6425077.50549  -4971366.96647  19313281.8444   19313288.9744   19313281.9354
      4572.1124       3562.6854
 05  4 25 13 19 29.9940000  0  8G 4G25G 5G 1G 7G23G20G24
 -10879752.04349  -8451284.88547  19253847.9224   19253854.6404   19253848.3734
      7579.8184       5906.3524
 -10557111.95449  -7062822.48245  22629245.6154   22629251.8044   22629244.5254
      7740.2634       6031.3744
 -12989296.67249  -9613033.09546  20539421.4524   20539425.7334   20539421.5344
      5989.8904       4667.4474
  -9369525.14549  -7273748.04546  21410157.0414   21410158.4064   21410154.3664
      4255.2794       3315.8024
  -7498518.93149  -5831968.28747  20283109.3254   20283115.6534   20283110.1844
      3505.0084       2731.1754
  -1110585.13749   -827916.54345  22123764.6754   22123769.7504   22123762.1004
      9134.5374       7117.8214
  -9815150.75049  -7623450.35247  19705744.6524   19705750.5154   19705744.0624
      4504.0704       3509.6654
  -6493625.72649  -5024781.17347  19300237.7104   19300244.6454   19300237.7294
      4567.5834       3559.1564
 05  4 25 13 19 44.9940000  0  8G 4G25G 5G 1G 7G23G20G24
 -10993414.25349  -8539853.10047  19232218.8634   19232225.4524   19232219.1454
      7575.0664       5902.6494
 -10673188.17149  -7153271.45045  22607155.0604   22607163.6104   22607155.1914
      7736.5014       6028.4424
 -13079092.12049  -9683003.52246  20522334.6304   20522338.3274   20522334.3224
      5982.7734       4661.9014
  -9433312.34449  -7323452.51346  21398019.7534   21398021.3974   21398017.6854
      4249.5964       3311.3744
  -7551071.44249  -5872918.28347  20273108.8614   20273115.9334   20273108.0754
      3501.8124       2728.6854
  -1247594.12949   -934676.78445  22097691.2734   22097701.8504   22097689.6934
      9133.2854       7116.8454
  -9882666.26249  -7676059.84347  19692895.8824   19692903.2034   19692895.4824
      4497.9084       3504.8634
  -6562106.33849  -5078142.70547  19287206.5504   19287213.1814   19287206.5384
      4563.1054       3555.6664
 05  4 25 13 19 59.9940000  0  8G 4G25G 5G 1G 7G23G20G24
 -11107005.30849  -8628365.65147  19210603.0174   19210609.8054   19210603.5694
      7570.6624       5899.2174
 -10789207.90049  -7243676.41945  22585076.3124   22585084.3034   22585076.4264
      7732.9444       6025.6714
 -13168781.26349  -9752891.10646  20505268.2534   20505269.3594   20505267.3044
      5975.9614       4656.5934
  -9497014.54149  -7373090.70246  21385897.8784   21385898.1604   21385895.5234
      4244.2304       3307.1924
  -7603576.05149  -5913830.90747  20263117.9214   20263123.3314   20263116.0844
      3498.9424       2726.4484
  -1384584.05859  -1041422.12755  22071621.2774   22071634.2374   22071619.7384
      9132.2574       7116.0444
  -9950089.27949  -7728597.27147  19680066.0074   19680073.0934   19680066.2414
      4492.0194       3500.2754
  -6630519.74549  -5131451.86447  19274188.4884   19274194.3984   19274187.9684
      4558.9014       3552.3904
 05  4 25 13 20 14.9940000  0  8G 4G25G 5G 1G 7G23G20G24
 -11220524.52249  -8716822.21047  19189001.6304   19189008.2124   19189002.0964
      7565.5134       5895.2054
 -10905170.32449  -7334036.59945  22563009.7224   22563018.8854   22563009.6214
      7728.8524       6022.4824
 -13258363.24349  -9822695.17046  20488220.3614   20488224.2854   20488219.5274
      5968.4854       4650.7684
  -9560631.36749  -7422662.32046  21373791.5624   21373792.1614   21373789.6564
      4238.2384       3302.5234
  -7656032.39949  -5954705.91247  20253136.3804   20253142.7064   20253135.6814
      3495.3604       2723.6574
  -1521554.05149  -1148151.92745  22045554.3324   22045573.9584   22045554.9474
      9130.6214       7114.7704
 -10017419.41649  -7781062.32647  19667254.6354   19667259.8354   19667254.3124
      4485.4924       3495.1894
  -6698865.48449  -5184708.30347  19261182.8034   19261188.3874   19261182.5734
      4554.0434       3548.6054
 05  4 25 13 20 29.9940000  0  8G 4G25G 5G 1G 7G23G20G24
 -11333970.29249  -8805221.35047  19167413.2674   19167420.0284   19167413.6194
      7560.7034       5891.4574
 -11021073.87249  -7424351.00245  22540954.0914   22540962.3024   22540954.9454
      7724.9824       6019.4664
 -13347836.64749  -9892414.66446  20471194.5534   20471199.0024   20471193.7914
      5961.3314       4645.1934
  -9624161.63549  -7472166.50546  21361700.8254   21361703.0064   21361700.0704
      4232.4694       3298.0284
  -7708439.19649  -5995542.28947  20243162.7744   20243168.8744   20243163.6974
      3492.1584       2721.1624
  -1658502.34549  -1254864.84845  22019492.2614   22019515.2294   22019492.5744
      9129.2494       7113.7014
 -10084655.43149  -7833454.04847  19654461.0544   19654465.2034   19654460.3324
      4479.2984       3490.3624
  -6767142.30249  -5237911.06547  19248190.0314   19248195.7984   19248190.2634
      4549.5474       3545.1024
 05  4 25 13 20 44.9940000  0  8G 4G25G 5G 1G 7G23G20G24
 -11447343.85049  -8893564.19047  19145838.7374   19145845.6984   19145839.3834
      7555.8904       5887.7064
 -11136919.73549  -7514620.52945  22518910.5794   22518918.5264   22518911.2564
      7721.1494       6016.4804
 -13437202.77349  -9962050.59246  20454185.7804   20454192.5824   20454186.0734
      5954.1864       4639.6254
  -9687606.94249  -7521604.45446  21349626.0804   21349629.8884   21349625.5784
      4226.9114       3293.6974
  -7760798.35449  -6036341.63747  20233199.1304   20233205.6354   20233199.1084
      3489.0064       2718.7064
  -1795429.89049  -1361561.63045  21993436.3474   21993456.9764   21993439.0734
      9127.8044       7112.5754
 -10151798.87449  -7885773.61847  19641683.7284   19641688.0664   19641682.4384
      4473.1784       3485.5934
  -6835351.72049  -5291061.29247  19235210.4934   19235216.1924   19235210.4274
      4545.0954       3541.6324
 05  4 25 13 20 59.9940000  0  8G 4G25G 5G 1G 7G23G20G24
 -11560643.73949  -8981849.75147  19124278.3174   19124285.2864   19124279.1644
      7550.9454       5883.8534
 -11252705.51249  -7604843.15445  22496879.1204   22496883.7244   22496878.0004
      7717.1154       6013.3364
 -13526460.03349 -10031601.66546  20437200.4694   20437207.8924   20437200.5844
      5946.9094       4633.9554
  -9750965.84749  -7570975.17446  21337568.2134   21337572.9144   21337568.5954
      4221.0564       3289.1354
  -7813107.95949  -6077102.34147  20223245.1204   20223251.6714   20223244.2534
      3485.6614       2716.0994
  -1932334.62549  -1468240.65944  21967381.5574   21967407.2174   21967380.9214
      9126.2414       7111.3574
 -10218848.18549  -7938019.81947  19628923.6684   19628928.8184   19628922.7384
      4466.8874       3480.6914
  -6903492.04049  -5344157.68347  19222243.8334   19222249.7624   19222243.6884
      4540.4554       3538.0174
 05  4 25 13 21 14.9930000  0  8G 4G25G 5G 1G 7G23G20G24
 -11673860.05349  -9070070.20547  19102734.1554   19102740.9004   19102734.5844
      7545.6534       5879.7304
 -11368421.59749  -7695011.50145  22474859.2474   22474864.4334   22474857.1414
      7712.7134       6009.9064
 -13615600.46149 -10101061.73446  20420238.0544   20420244.3724   20420237.6314
      5939.2844       4628.0144
  -9814231.96449  -7620273.41046  21325529.5444   21325533.8624   21325529.1554
      4214.9754       3284.3964
  -7865362.92849  -6117820.46547  20213301.6064   20213306.9054   20213300.4284
      3482.0504       2713.2864
  -2069204.87548  -1574892.80344  21941334.3524   21941358.5814   21941333.4004
      9124.4034       7109.9244
 -10285797.18549  -7990187.86647  19616183.9854   19616189.3084   19616183.7214
      4460.2704       3475.5354
  -6971556.94849  -5397195.28847  19209291.5204   19209297.6124   19209291.5544
      4535.5164       3534.1684
 05  4 25 13 21 29.9930000  0  8G 4G25G 5G 1G 7G23G20G24
 -11787009.46849  -9158238.49447  19081202.2704   19081209.3994   19081202.6364
      7540.6294       5875.8154
 -11484085.05249  -7785138.90745  22452847.0014   22452854.1554   22452847.2174
      7708.6904       6006.7714
 -13704637.86549 -10170441.47646  20403295.9894   20403302.0024   20403295.2794
      5931.9724       4622.3164
  -9877416.26749  -7669507.93146  21313506.3744   21313510.7884   21313505.6084
      4209.1944       3279.8914
  -7917572.35349  -6158503.11647  20203366.3114   20203372.9604   20203366.0374
      3478.7394       2710.7064
  -2206060.62648  -1681533.56844  21915287.8864   21915284.5484
      9122.6804       7108.5824
 -10352656.78849  -8042286.25347  19603461.5434   19603466.9114   19603460.7584
      4453.9574       3470.6164
  -7039557.66049  -5450182.87047  19196351.3054   19196357.3454   19196350.7794
      4530.8474       3530.5304
 05  4 25 13 21 44.9930000  0  8G 4G25G 5G 1G 7G23G20G24
 -11900082.39649  -9246347.22147  19059685.4884   19059692.1204   19059685.6724
      7535.7774       5872.0344
 -11599685.78249  -7875217.36946  22430848.2844   22430857.0654   22430848.5274
      7704.7214       6003.6794
 -13793564.23749 -10239734.76146  20386375.1344   20386379.3094   20386375.4044
      5924.8014       4616.7284
  -9940512.44549  -7718673.73346  21301500.1554   21301504.8004   21301499.4544
      4203.5544       3275.4974
  -7969730.77249  -6199146.04547  20193440.4814   20193445.3814   20193441.1624
      3475.6134       2708.2704
  -2342890.17058  -1788153.89754  21889244.4764   21889247.7834
      9121.0904       7107.3434
 -10419420.62749  -8094310.01047  19590756.7074   19590762.3644   19590756.2774
      4447.8244       3465.8374
  -7107487.47949  -5503115.16547  19183423.9184   19183430.9354   19183423.6514
      4526.3904       3527.0574
 05  4 25 13 21 59.9930000  0  8G 4G25G 5G 1G 7G23G20G24
 -12013079.07649  -9334396.55747  19038183.0224   19038189.3974   19038183.0184
      7530.5544       5867.9644
 -11715224.04849  -7965247.15845  22408862.4914   22408870.7314   22408862.6874
      7700.4474       6000.3484
 -13882379.98549 -10308941.80146  20369475.5404   20369477.7924   20369473.5984
      5917.3084       4610.8894
 -10003521.31849  -7767771.47846  21289509.9634   21289514.5234   21289508.8084
      4197.6504       3270.8964
  -8021838.81849  -6239749.73647  20183524.1394   20183531.0704   20183524.4324
      3472.1304       2705.5564
  -2479693.68258  -1894753.97654  21863215.0314   21863216.5494
      9119.1524       7105.8334
 -10486089.47849  -8146259.75347  19578069.5164   19578075.5044   19578068.6554
      4441.3794       3460.8154
  -7175347.12849  -5555992.80047  19170510.4794   19170517.7734   19170510.5594
      4521.5934       3523.3194
 05  4 25 13 22 14.9930000  0  8G 4G25G 5G 1G 7G23G20G24
 -12125997.49449  -9422384.97747  19016695.4014   19016701.8054   19016696.1734
      7525.4294       5863.9714
 -11830697.62949  -8055226.57045  22386887.3094   22386896.0504   22386888.4794
      7696.1524       5997.0024
 -13971083.11349 -10378061.07946  20352592.5724   20352597.9854   20352592.6584
      5909.8674       4605.0914
 -10066441.23349  -7816799.96346  21277536.0494   21277540.6654   21277534.8314
      4191.7814       3266.3234
  -8073894.87349  -6280312.89547  20173618.6864   20173625.1624   20173617.3064
      3468.7014       2702.8844
                  -2001331.89644  21837199.0744
      9117.4414       7104.4994
 -10552661.48349  -8198134.01647  19565400.3994   19565406.9834   19565400.1224
      4434.9994       3455.8434
  -7243134.65749  -5608814.21447  19157611.0934   19157618.3274   19157611.0944
      4516.8074       3519.5904
 05  4 25 13 22 29.9930000  0  8G 4G25G 5G 1G 7G23G20G24
 -12238839.02949  -9510313.51447  18995222.3744   18995228.6944   18995222.5564
      7520.2704       5859.9514
 -11946107.79549  -8145156.50845  22364924.4284   22364936.0454   22364926.1554
      7691.9344       5993.7154
 -14059675.42649 -10447094.07846  20335732.4384   20335738.8684   20335732.4004
      5902.4724       4599.3294
 -10129274.02549  -7865760.59346  21265578.2174   21265583.7574   21265577.7064
      4185.9764       3261.7994
  -8125900.74349  -6320836.95247  20163723.6314   20163728.2204   20163722.2394
      3465.3234       2700.2524
                  -2107888.72044  21811189.2684
      9115.6374       7103.0944
 -10619138.61749  -8249934.37147  19552750.4144   19552756.3664   19552750.3734
      4428.6864       3450.9244
  -7310852.41549  -5661581.50347  19144725.4054   19144731.5944   19144725.4634
      4512.1634       3515.9714
 05  4 25 13 22 44.9930000  0  8G 4G25G 5G 1G 7G23G20G24
 -12351601.00549  -9598180.05347  18973764.6574   18973770.8864   18973764.5804
      7514.7574       5855.6554
 -12061452.02049  -8235035.13245  22342976.0424   22342987.2424   22342978.2374
      7687.3054       5990.1084
 -14148154.28249 -10516038.69446  20318894.0084   20318903.4514   20318895.1274
      5894.7364       4593.3014
 -10192017.51249  -7914651.68446  21253636.7304   21253643.5884   21253636.7174
      4179.7894       3256.9784
  -8177854.14349  -6361320.15547  20153836.1164   20153841.7974   20153837.6474
      3461.6984       2697.4274
                  -2214422.27244  21785174.3684
      9113.5164       7101.4414
 -10685518.51549  -8301658.95347  19540119.4994   19540124.4134   19540119.2464
      4421.9954       3445.7104
  -7378497.47249  -5714291.95947  19131853.3024   19131859.8554   19131853.2194
      4507.1794       3512.0884
 05  4 25 13 22 59.9930000  0  8G 4G25G 5G 1G 7G23G20G24
 -12464284.51149  -9685985.43747  18952321.3864   18952327.8074   18952322.0164
      7509.6064       5851.6414
 -12176731.02549  -8324862.89345  22321041.0514   22321050.8744   22321040.5024
      7682.9914       5986.7464
 -14236520.89749 -10584895.80546  20302080.7784   20302088.1414   20302080.3624
      5887.2454       4587.4644
 -10254672.73349  -7963473.91846  21241712.1334   21241720.3064   21241711.6454
      4173.9964       3252.4644
  -8229756.36249  -6401763.47047  20143958.7984   20143965.7484   20143958.5204
      3458.2944       2694.7754
                     -8903.18143  21759160.4314
      9111.5264       7099.8904
 -10751802.57949  -8353308.86447  19527506.5424   19527510.6004   19527505.6004
      4415.6374       3440.7564
  -7446071.12249  -5766946.72147  19118994.8064   19119000.9224   19118994.4624
      4502.4274       3508.3854
 05  4 25 13 23 14.9930000  0  8G 4G25G 5G 1G 7G23G20G24
 -12576887.48149  -9773728.00447  18930894.1104   18930900.3834   18930894.4554
      7504.1204       5847.3664
 -12291943.03149  -8414638.49645  22299117.4674   22299126.3594   22299116.9204
      7678.4644       5983.2194
 -14324773.59449 -10653664.19246  20285287.2244   20285294.4014   20285287.9314
      5879.6164       4581.5194
 -10317238.46949  -8012226.37546  21229803.3824   21229815.2754   21229805.3264
      4167.9674       3247.7664
  -8281606.08849  -6442165.85247  20134093.2744   20134100.1314   20134091.6694
      3454.7504       2692.0134
                   -115389.60343  21733152.0014
      9109.3404       7098.1874
 -10817989.37249  -8404882.98047  19514911.6044   19514915.6004   19514911.1314
      4409.1184       3435.6764
  -7513572.08549  -5819544.85747  19106149.5944   19106156.0384   19106148.8644
      4497.5484       3504.5834
 05  4 25 13 23 29.9930000  0  8G 4G25G 5G 1G 7G23G20G24
 -12689408.92249  -9861407.16147  18909481.9724   18909488.0584   18909482.5584
      7498.7374       5843.1724
 -12407086.22549  -8504360.38545  22277206.0414   22277216.9594   22277205.9804
      7673.9484       5979.7004
 -14412911.00749 -10722342.70646  20268516.7014   20268521.0934   20268517.0304
      5872.0284       4575.6064
 -10379713.77149  -8060908.46546  21217914.1424   21217926.4034   21217916.7094
      4162.0454       3243.1524
  -8333402.11449  -6482526.42847  20124236.4944   20124242.1384   20124237.4024
      3451.2924       2689.3184
                   -221846.75044  21707151.0894
      9107.2534       7096.5614
 -10884077.68849  -8456380.37247  19502335.3674   19502340.4824   19502334.7614
      4402.6604       3430.6444
  -7580999.18449  -5872085.48347  19093318.1954   19093325.3124   19093317.8024
      4492.7324       3500.8304
 05  4 25 13 23 44.9930000  0  8G 4G25G 5G 1G 7G23G20G24
 -12801849.77449  -9949023.56347  18888085.3694   18888091.5494   18888085.8354
      7493.5694       5839.1454
 -12522162.16549  -8594029.98045  22255306.8354   22255318.2584   22255308.7874
      7669.7124       5976.3994
 -14500934.65649 -10790932.55346  20251768.0294   20251771.0364   20251765.8814
      5864.6274       4569.8394
 -10442100.08649  -8109521.19046  21206044.2234   21206055.3204   21206045.1344
      4156.3074       3238.6814
  -8385146.13049  -6522846.49547  20114389.2034   20114396.4714   20114390.4104
      3448.0094       2686.7604
                   -328273.58844  21681156.6934
      9105.2824       7095.0254
 -10950069.14349  -8507802.28747  19489777.3594   19489783.3024   19489777.3264
      4396.3854       3425.7554
  -7648353.94949  -5924569.75447  19080500.7464   19080508.1364   19080500.8094
      4488.0804       3497.2054
 05  4 25 13 23 59.9930000  0  8G 4G25G 5G 1G 7G23G20G24
 -12914209.87349 -10036576.77447  18866703.4254   18866709.6174   18866703.8424
      7487.9894       5834.7974
 -12637171.11349  -8683647.40746  22233421.7554   22233433.1654   22233423.4194
      7664.9934       5972.7224
 -14588844.84349 -10859434.00746  20235035.8134   20235042.8034   20235035.9804
      5856.8154       4563.7524
 -10504398.35349  -8158065.40946  21194191.5194   21194200.0094   21194190.4714
      4150.1684       3233.8974
  -8436838.70049  -6563126.42247  20104552.5824   20104559.2664   20104551.7794
      3444.3304       2683.8944
                   -434675.64044  21655168.1554
      9102.9414       7093.2014
 -11015964.47649  -8559149.29247  19477237.8904   19477244.0414   19477236.7304
      4389.7394       3420.5764
  -7715636.80149  -5976997.93047  19067697.5324   19067704.4674   19067697.3324
      4483.0064       3493.2514
 05  4 25 13 24 14.9930000  0  8G 4G25G 5G 1G 7G23G20G24
 -13026488.63749 -10124066.66347  18845337.6234   18845344.0494   18845338.1384
      7482.4974       5830.5174
 -12752111.96749  -8773211.85546  22211552.6884   22211560.6314   22211553.4404
      7660.3564       5969.1094
 -14676640.83449 -10927846.49146  20218327.3284   20218334.7934   20218326.6164
      5849.1844       4557.8064
 -10566607.40149  -8206539.92646  21182355.2814   21182362.0674   21182352.6564
      4144.2824       3229.3114
  -8488479.27649  -6603365.85347  20094726.8524   20094731.7064   20094724.7504
      3440.8614       2681.1904
                   -541051.96144  21629187.1654
      9100.7774       7091.5154
 -11081762.93649  -8610420.80147  19464716.7784   19464721.6384   19464716.1314
      4383.2524       3415.5214
  -7782847.04149  -6029369.48847  19054907.8284   19054914.5654   19054907.6834
      4478.2014       3489.5074
 05  4 25 13 24 29.9930000  0  8G 4G25G 5G 1G 7G23G20G24
 -13138686.08249 -10211493.20147  18823987.0974   18823993.4084   18823987.2744
      7477.0604       5826.2814
 -12866984.40249  -8862722.94345  22189696.7824   22189700.6294   22189694.9744
      7655.8134       5965.5694
 -14764322.50349 -10996169.94046  20201639.5894   20201649.4414   20201639.8404
      5841.5874       4551.8864
 -10628728.06449  -8254945.77946  21170534.8404   21170540.0054   21170532.7304
      4138.3654       3224.7004
  -8540067.89549  -6643564.79547  20084910.4324   20084915.6074   20084910.9334
      3437.4144       2678.5044
                                  21603213.556
      9098.427        7089.683
 -11147464.74049  -8661617.01447  19452214.0924   19452218.9414   19452213.7024
      4376.8264       3410.5144
  -7849984.91549  -6081684.67747  19042131.9774   19042138.7154   19042131.9084
      4473.3924       3485.7604
 05  4 25 13 24 44.9930000  0  8G 4G25G 5G 1G 7G23G20G24
 -13250800.08149 -10298854.73047  18802652.7884   18802658.9174   18802653.2384
      7471.8034       5822.1844
 -12981786.24049  -8952179.05646  22167852.4884   22167854.3944   22167850.6964
      7651.3384       5962.0824
 -14851888.14649 -11064402.94246  20184979.2984   20184986.0084   20184980.6094
      5834.0344       4546.0014
 -10690758.50349  -8303281.34246  21158730.7124   21158735.6044   21158728.9564
      4132.5194       3220.1454
  -8591602.99049  -6683722.05747  20075102.2964   20075107.8764   20075104.2354
      3434.0224       2675.8614
    -97604.37343                  21577248.7904
      9096.2674       7088.0004
 -11213068.20049  -8712736.60747  19439730.4834   19439734.6874   19439730.1304
      4370.4914       3405.5774
  -7917048.78349  -6133942.21047  19029370.1984   19029376.7384   19029370.1154
      4468.6404       3482.0574
 05  4 25 13 24 59.9930000  0  8G 4G25G 5G 1G 7G23G20G24
 -13362831.20349 -10386151.63347  18781333.8884   18781339.7894   18781333.4424
      7466.0884       5817.7314
 -13096518.20749  -9041580.77946  22146020.7504   22146021.6674   22146018.9984
      7646.5004       5958.3124
 -14939338.48949 -11132546.10446  20168338.4984   20168346.0794   20168339.4214
      5826.2694       4539.9504
 -10752698.40749  -8351545.64946  21146943.4004   21146949.8014   21146942.3324
      4126.4694       3215.4304
  -8643085.62449  -6723838.42547  20065305.4104   20065311.8314   20065304.3664
      3430.4244       2673.0584
   -203911.97944                  21551289.9944
      9093.8424       7086.1114
 -11278574.37949  -8763780.39646  19427265.2514   19427269.4464   19427264.6774
      4363.9074       3400.4474
  -7984039.64749  -6186142.86147  19016622.3664   19016628.0054   19016622.2044
      4463.6904       3478.2004
 05  4 25 13 25 14.9930000  0  8G 4G25G 5G 1G 7G23G20G24
 -13474778.15149 -10473383.00047  18760031.3314   18760036.3694   18760031.4574
      7460.3504       5813.2604
 -13211177.70049  -9130925.50146  22124202.1474   22124201.9014   22124199.6234
      7641.5254       5954.4354
 -15026672.35949 -11200598.48946  20151721.6304   20151726.6744   20151720.9234
      5818.3494       4533.7784
 -10814548.81049  -8399740.69746  21135173.5964   21135180.1894   21135172.5914
      4120.3804       3210.6864
  -8694514.71849  -6763912.99747  20055520.9774   20055525.3634   20055517.5434
      3426.7804       2670.2184
   -310201.21644                  21525337.7574
      9091.1274       7083.9954
 -11343982.22349  -8814747.54446  19414817.7234   19414822.9094   19414817.3674
      4357.2184       3395.2354
  -8050956.34349  -6238285.71547  19003888.4594   19003894.3164   19003888.2904
      4458.5954       3474.2304
 05  4 25 13 25 29.9930000  0  8G 4G25G 5G 1G 7G23G20G24
 -13586640.47349 -10560548.41847  18738744.6154   18738749.7654   18738744.5654
      7454.5654       5808.7524
 -13325765.69349  -9220214.84646  22102396.7984   22102396.1124   22102393.5634
      7636.6534       5950.6394
 -15113889.47649 -11268559.88346  20135125.1014   20135130.8214   20135123.9084
      5810.4794       4527.6464
 -10876308.90549  -8447865.34846  21123421.6534   21123426.7524   21123421.3914
      4114.2354       3205.8974
  -8745890.18249  -6803945.85247  20045743.7234   20045748.4664   20045745.2384
      3423.0874       2667.3404
   -416461.29044                  21499393.4034
      9088.6104       7082.0344
 -11409291.72549  -8865638.05446  19402389.2454   19402395.3294   19402389.2044
      4350.5894       3390.0694
  -8117798.81649  -6290370.74747  18991168.0534   18991174.7684   18991168.4914
      4453.6214       3470.3544
 05  4 25 13 25 44.9920000  0  8G 4G25G 5G 1G 7G23G20G24
 -13698410.36049 -10647641.82447  18717475.7334   18717481.2274   18717475.6914
      7449.1314       5804.5184
 -13440273.20449  -9309441.16145  22080606.6304   22080603.4754   22080601.6424
      7632.1034       5947.0934
 -15200983.80749 -11336425.61846  20118549.5204   20118557.8344   20118549.3794
      5802.8604       4521.7094
 -10937974.77149  -8495916.62146  21111687.9844   21111691.6674   21111686.5674
      4108.4844       3201.4164
  -8797208.67149  -6843934.28447  20035976.2204   20035983.1524   20035978.5354
      3419.7554       2664.7444
   -522684.63444                  21473455.4354
      9086.2874       7080.2244
 -11474498.54149  -8916448.54747  19389981.2764   19389987.2224   19389981.3284
      4344.2524       3385.1314
  -8184562.48649  -6342394.38047  18978463.5964   18978469.9044   18978463.5714
      4448.8454       3466.6324
 05  4 25 13 25 59.9920000  0  8G 4G25G 5G 1G 7G23G20G24
 -13810102.00249 -10734674.24247  18696221.1114   18696226.5834   18696221.5604
      7443.3684       5800.0274
 -13554715.17149  -9398616.56045  22058827.4174   22058823.9544   22058824.2864
      7627.1814       5943.2584
 -15287966.37449 -11404204.24046  20101996.2024   20102004.5354   20101995.3904
      5795.0184       4515.5984
 -10999554.43249  -8543900.93246  21099971.3334   21099973.6214   21099970.0234
      4102.3334       3196.6234
  -8848476.67749  -6883883.40247  20026220.4614   20026226.4894   20026219.2864
      3416.0914       2661.8894
   -628884.73344                  21447521.1514
      9083.7624       7078.2564
 -11539610.96049  -8967185.48647  19377591.6594   19377597.0734   19377591.3334
      4337.6224       3379.9654
  -8251255.77549  -6394363.18447  18965773.0684   18965778.4944   18965772.1934
      4443.8344       3462.7284
 05  4 25 13 26 14.9920000  0  8G 4G25G 5G 1G 7G23G20G24
 -13921707.66449 -10821639.71747  18674983.3034   18674988.6644   18674983.5574
      7437.7474       5795.6474
 -13669083.74149  -9487734.90245  22037060.6774   22037060.6654   22037056.6534
      7622.3754       5939.5134
 -15374831.05649 -11471890.97246  20085464.6034   20085474.6244   20085465.2364
      5787.2514       4509.5464
 -11061042.90549  -8591813.88146  21088272.1954   21088272.7364   21088270.5374
      4096.4664       3192.0514
  -8899690.76749  -6923790.44347  20016476.3804   20016481.8964   20016473.8984
      3412.6404       2659.2004
    -83173.35043                  21421594.1224
      9081.1104       7076.1904
 -11604624.84349  -9017845.65647  19365219.9954   19365224.6924   19365219.3024
      4331.1794       3374.9454
  -8317874.23749  -6446273.68047  18953095.8134   18953101.3864   18953095.2344
      4438.9134       3458.8934
 05  4 25 13 26 29.9920000  0  8G 4G25G 5G 1G 7G23G20G24
 -14033227.54149 -10908538.65447  18653761.7764   18653767.5144   18653761.9924
      7431.6074       5790.8634
 -13783378.13549  -9576795.42445  22015308.9904   22015311.3724   22015306.3664
      7616.9524       5935.2874
 -15461577.89749 -11539485.92846  20068957.9244   20068966.2564   20068958.2864
      5778.9964       4503.1144
 -11122441.01649  -8639656.51046  21076589.5604   21076589.3014   21076588.0824
      4089.9494       3186.9734
  -8950850.88249  -6963655.50247  20006740.8684   20006745.5814   20006741.8314
      3408.6464       2656.0884
   -189296.93453                  21395684.7014
      9078.1644       7073.8944
 -11669540.07249  -9068428.94446  19352866.4834   19352871.0424   19352866.4734
      4324.1934       3369.5014
  -8384417.86449  -6498125.85647  18940432.9444   18940438.8884   18940432.3614
      4433.5624       3454.7244
 05  4 25 13 26 44.9920000  0  8G 4G25G 5G 1G 7G23G20G24
 -14144659.27849 -10995369.06747  18632557.5704   18632563.2844   18632557.9104
      7425.7694       5786.3144
 -13897596.16049  -9665796.26445  21993572.6424   21993575.8874   21993569.5214
      7611.9094       5931.3584
 -15548205.14149 -11606987.64246  20052475.8914   20052480.2204   20052476.8934
      5771.0684       4496.9364
 -11183747.11849  -8687427.52646  21064923.7404   21064921.8644   21064922.5014
      4083.9074       3182.2654
  -9001955.47249  -7003477.30547  19997014.1104   19997021.9014   19997016.0224
      3405.0454       2653.2824
   -295379.96044                  21369781.8374
      9075.2434       7071.6184
 -11734354.91449  -9118934.01646  19340532.3444   19340536.6214   19340531.9554
      4317.5694       3364.3394
  -8450884.80049  -6549918.27847  18927784.2244   18927790.7914   18927784.4234
      4428.4954       3450.7754
 05  4 25 13 26 59.9920000  0  8G 4G25G 5G 1G 7G23G20G24
 -14256002.71549 -11082130.21047  18611369.9974   18611375.7104   18611370.3954
      7419.8694       5781.7164
 -14011738.84249  -9754738.33445  21971849.9624   21971855.9624   21971848.8304
      7606.8934       5927.4494
 -15634714.02949 -11674397.16046  20036015.9944   20036018.7364   20036014.6334
      5763.1804       4490.7904
 -11244962.41449  -8735127.72146  21053275.1174   21053272.5204   21053274.2624
      4077.8394       3177.5374
  -9053005.97749  -7043256.90147  19987299.9444   19987305.7114   19987297.4414
      3401.3504       2650.4034
   -401430.77644                  21343883.2994
      9072.4424       7069.4354
 -11799070.72049  -9169361.93346  19328218.0014   19328222.1124   19328217.4204
      4310.9184       3359.1574
  -8517276.46249  -6601652.04147  18915150.1884   18915156.6774   18915150.2314
      4423.4774       3446.8654
 05  4 25 13 27 14.9920000  0  8G 4G25G 5G 1G 7G23G20G24
 -14367256.53449 -11168821.29547  18590199.0154   18590204.4394   18590199.0964
      7414.1184       5777.2354
 -14125804.85149  -9843620.96045  21950140.9224   21950150.0664   21950142.1584
      7601.9814       5923.6224
 -15721102.72549 -11741713.02446  20019575.5914   20019580.9914   20019575.6564
      5755.3484       4484.6874
 -11306085.68849  -8782756.30146  21041642.8214   21041640.7874   21041641.4414
      4071.9814       3172.9724
  -9104000.74949  -7082993.04047  19977597.8174   19977603.1924   19977596.2434
      3397.8684       2647.6894
   -507447.66244                  21317990.8784
      9069.7114       7067.3074
 -11863686.06349  -9219711.56846  19315922.8044   19315926.6124   19315922.0574
      4304.4454       3354.1134
  -8583591.39149  -6653326.01247  18902531.1024   18902537.4444   18902530.9574
      4418.5484       3443.0244
 05  4 25 13 27 29.9920000  0  8G 4G25G 5G 1G 7G23G20G24
 -14478422.35349 -11255443.78147  18569044.9014   18569050.4344   18569045.1914
      7408.1614       5772.5934
 -14239794.18349  -9932443.42945  21928449.0014   21928459.1044   21928451.5534
      7596.8114       5919.5934
 -15807372.60349 -11808936.24846  20003159.1464   20003163.6894   20003157.8924
      5747.3614       4478.4634
 -11367118.60249  -8830314.53646  21030027.3424   21030027.2414   21030026.6314
      4065.8644       3168.2064
  -9154941.51949  -7122687.14847  19967902.9884   19967908.8074   19967905.9194
      3394.2354       2644.8584
   -613431.44044                  21292104.1694
      9066.8074       7065.0444
 -11928202.60349  -9269984.22446  19303645.6524   19303649.8564   19303645.4004
      4297.8134       3348.9454
  -8649831.12949  -6704941.38447  18889926.2704   18889932.4624   18889925.9094
      4413.5024       3439.0924
 05  4 25 13 27 44.9920000  0  8G 4G25G 5G 1G 7G23G20G24
 -14589498.27849 -11341996.33647  18547907.5234   18547912.8614   18547907.8654
      7402.0154       5767.8044
 -14353705.91349 -10021205.79045  21906772.8314   21906782.5524   21906773.9344
      7591.4694       5915.4304
 -15893521.66949 -11876065.37246  19986764.6784   19986771.6014   19986764.4034
      5739.1364       4472.0544
 -11428059.19049  -8877800.82546  21018429.6194   21018431.4244   21018428.2444
      4059.5754       3163.3054
  -9205826.40649  -7162337.74747  19958218.3544   19958225.2384   19958219.9284
      3390.3544       2641.8344
    -65428.44143                  21266225.6224
      9063.5704       7062.5224
 -11992618.48349  -9320178.44246  19291386.7314   19291391.7994   19291386.7454
      4290.9544       3343.6014
  -8715993.75749  -6756496.66047  18877335.6054   18877342.2184   18877335.3054
      4408.2014       3434.9624
 05  4 25 13 27 59.9920000  0  8G 4G25G 5G 1G 7G23G20G24
 -14700483.75049 -11428478.41147  18526787.8044   18526792.8404   18526788.0484
      7396.1774       5763.2554
 -14467538.92849 -10109906.77845  21885110.0234   21885121.0844   21885111.2124
      7586.3924       5911.4744
 -15979549.72049 -11943100.16546  19970393.7524   19970400.6864   19970392.5834
      5731.3134       4465.9584
 -11488907.22249  -8925214.88946  21006848.9884   21006852.7784   21006846.9344
      4053.5664       3158.6234
  -9256655.54749  -7201944.79847  19948547.0374   19948554.6694   19948544.3014
      3386.8724       2639.1214
   -171350.42643                  21240354.3314
      9060.8704       7060.4184
 -12056933.82149  -9370294.28846  19279146.8784   19279152.9074   19279147.1334
      4284.4774       3338.5544
  -8782079.22249  -6807991.81647  18864759.9514   18864766.4924   18864759.6554
      4403.2644       3431.1154
 05  4 25 13 28 14.9920000  0  8G 4G25G 5G 1G 7G23G20G24
 -14811378.95549 -11514890.16547  18505684.7324   18505690.1354   18505685.0184
      7390.0664       5758.4934
 -14581293.55749 -10198546.82045  21863461.9314   21863476.6784   21863464.9424
      7581.0664       5907.3244
 -16065457.11149 -12010040.97546  19954044.9804   19954053.5174   19954045.2364
      5723.1404       4459.5904
 -11549663.54849  -8972557.53346  20995286.3234   20995292.3484   20995285.4754
      4047.4034       3153.8204
  -9307429.26049  -7241508.71647  19938886.1874   19938889.7694   19938885.1804
      3383.0624       2636.1524
   -277256.30044                  21214488.4544
      9057.6724       7057.9264
 -12121149.04349  -9420332.13746  19266927.0264   19266932.2224   19266926.6634
      4277.7104       3333.2814
  -8848087.85249  -6859427.09547  18852198.1294   18852205.9024   18852198.4644
      4398.0334       3427.0394
 05  4 25 13 28 29.9920000  0  8G 4G25G 5G 1G 7G23G20G24
 -14922182.70549 -11601230.70147  18484599.5464   18484604.9994   18484599.5884
      7384.0984       5753.8434
 -14694968.41949 -10287124.71945  21841831.8344   21841844.0144   21841834.7414
      7575.8464       5903.2574
 -16151243.11149 -12076887.22546  19937722.8924   19937730.0174   19937722.8274
      5715.1534       4453.3664
 -11610327.19949  -9019827.85746  20983741.2764   20983748.0384   20983740.8034
      4041.3264       3149.0854
  -9358146.96549  -7281029.00547  19929233.3784   19929242.9884   19929235.5014
      3379.4354       2633.3264
   -383127.03444                  21188634.3824
      9054.5434       7055.4884
 -12185263.33049  -9470291.33046  19254728.0124   19254732.0304   19254727.6114
      4271.1064       3328.1354
  -8914018.98449  -6910801.98747  18839652.3704   18839659.3544   18839652.5174
      4393.0004       3423.1174
 05  4 25 13 28 44.9920000  0  8G 4G25G 5G 1G 7G23G20G24
 -15032894.08049 -11687499.23347  18463531.6344   18463537.2524   18463531.3824
      7377.8724       5748.9914
 -14808562.37049 -10375639.40145  21820217.3364   21820230.1634   21820218.5074
      7570.3964       5899.0104
 -16236906.83049 -12143638.14746  19921421.1074   19921425.1334   19921420.3494
      5706.9784       4446.9964
 -11670898.03449  -9067025.99746  20972214.8224   20972222.4604   20972214.4364
      4034.9744       3144.1364
  -9408807.97249  -7320505.10946  19919591.8534   19919598.6764   19919591.8804
      3375.5934       2630.3324
   -488960.32044                  21162796.4054
      9051.3074       7052.9664
 -12249276.29149  -9520171.58146  19242547.5014   19242551.5084   19242546.2254
      4264.2944       3322.8264
  -8979871.83449  -6962115.89247  18827121.4014   18827127.9854   18827121.1854
      4387.7014       3418.9884
 05  4 25 13 28 59.9920000  0  8G 4G25G 5G 1G 7G23G20G24
 -15143513.14149 -11773695.92147  18442481.5854   18442487.0524   18442481.8554
      7371.6834       5744.1694
 -14922075.42049 -10464091.20046  21798618.3374   21798630.0704   21798620.1004
      7564.9084       5894.7344
 -16322448.22749 -12210293.73346  19905143.9094   19905148.2004   19905143.9004
      5698.7864       4440.6124
 -11731375.61049  -9114151.21946  20960706.5794   20960713.2624   20960705.5154
      4028.7744       3139.3044
  -9459412.63949  -7359937.27147  19909964.8364   19909970.4344   19909961.6884
      3371.8494       2627.4154
   -594755.91244                  21136970.2424
      9048.0884       7050.4584
 -12313188.07349  -9569972.99846  19230384.6944   19230389.8874   19230384.0674
      4257.5064       3317.5374
  -9045646.78749  -7013369.09847  18814604.8674   18814611.0144   18814605.0074
      4382.5244       3414.9544
 05  4 25 13 29 14.9920000  0  8G 4G25G 5G 1G 7G23G20G24
 -15254039.75449 -11859820.57347  18421448.7304   18421455.1154   18421449.3074
      7365.2344       5739.1434
 -15035507.25549 -10552479.52146  21777035.8474   21777045.3034   21777035.8624
      7559.2824       5890.3504
 -16407867.76249 -12276854.37246  19888890.2374   19888894.0354   19888890.7374
      5690.4384       4434.1084
 -11791760.86949  -9161204.43546  20949214.6924   20949222.2224   20949214.6304
      4022.4894       3134.4074
  -9509961.30049  -7399325.81547  19900346.2344   19900351.5774   19900346.6414
      3367.8654       2624.3104
    -47738.35043                  21111150.0824
      9044.6124       7047.7504
 -12376999.14049  -9619695.90046  19218240.8634   19218246.5104   19218240.7564
      4250.5834       3312.1434
  -9111344.23049  -7064561.91547  18802103.6404   18802109.1834   18802103.5064
      4377.0904       3410.7194
 05  4 25 13 29 29.9920000  0  8G 4G25G 5G 1G 7G23G20G24
 -15364473.23649 -11945872.59947  18400433.8874   18400440.1924   18400434.6264
      7359.0294       5734.3084
 -15148857.47549 -10640804.30146  21755467.1834   21755474.1124   21755466.8714
      7553.8274       5886.0994
 -16493164.68549 -12343319.42746  19872657.2404   19872660.6864   19872658.1274
      5682.2314       4427.7124
 -11852053.39449  -9208185.39446  20937740.4834   20937747.4784   20937739.7584
      4016.2874       3129.5744
  -9560453.65349  -7438670.57247  19890736.5034   19890740.7724   19890738.9374
      3364.1184       2621.3914
   -153436.82243                  21085336.4184
      9041.2874       7045.1594
 -12440709.12849  -9669340.06146  19206117.2014   19206123.4084   19206117.4334
      4243.8314       3306.8814
  -9176963.64949  -7115693.93147  18789616.8554   18789622.1024   18789616.3424
      4371.9114       3406.6844
 05  4 25 13 29 44.9920000  0  8G 4G25G 5G 1G 7G23G20G24
 -15474813.45649 -12031851.97447  18379437.4054   18379443.0994   18379437.5504
      7352.8504       5729.4934
 -15262126.03349 -10729065.54346  21733913.9404   21733920.2444   21733913.0094
      7548.3754       5881.8514
 -16578339.05449 -12409689.01346  19856447.9224   19856455.2054   19856448.9664
      5674.0674       4421.3514
 -11912254.91049  -9255096.08046  20926282.8364   20926291.8634   20926282.6024
      4010.2334       3124.8574
  -9610890.00049  -7477971.61247  19881138.3234   19881145.8304   19881137.5014
      3360.3694       2618.4694
   -259097.43744                  21059530.1214
      9037.9664       7042.5714
 -12504318.23449  -9718905.61446  19194013.9494   19194018.4694   19194013.8454
      4237.1344       3301.6634
  -9242505.29149  -7166765.34347  18777144.5604   18777149.7884   18777143.8014
      4366.7054       3402.6274
 05  4 25 13 29 59.9920000  0  8G 4G25G 5G 1G 7G23G20G24
 -15585058.43949 -12117757.15047  18358458.3954   18358464.3654   18358458.2504
      7346.6064       5724.6284
 -15375310.44549 -10817261.22446  21712377.5164   21712381.4114   21712376.9604
      7542.9584       5877.6304
 -16663389.21349 -12475961.87846  19840263.9664   19840269.4284   19840264.7954
      5665.9754       4415.0454
 -11972361.34949  -9301932.15746  20914841.7744   20914854.3714   20914844.0274
      4004.0784       3120.0614
  -9661268.54849  -7517227.59247  19871553.1624   19871556.4084   19871550.2284
      3356.7104       2615.6184
   -364717.82344                  21033733.5964
      9034.7004       7040.0264
 -12567824.74649  -9768391.21246  19181930.4454   19181933.4354   19181929.6194
      4230.4314       3296.4404
  -9307967.26149  -7217774.66747  18764686.6364   18764693.3114   18764686.6914
      4361.5724       3398.6284
 05  4 25 13 30 14.9910000  0  8G 4G25G 5G 1G 7G23G20G24
 -15695201.10449 -12203582.61247  18337498.7464   18337504.9784   18337499.1694
      7340.1494       5719.5974
 -15488403.80349 -10905386.09546  21690857.7894   21690860.1454   21690856.2244
      7537.1814       5873.1284
 -16748309.98149 -12542133.92646  19824103.1944   19824110.8304   19824101.1654
      5657.5334       4408.4674
 -12032369.90749  -9348691.69446  20903419.2254   20903435.5734   20903423.5964
      3997.6344       3115.0394
  -9711586.47849  -7556436.39447  19861977.1634   19861983.8584   19861979.3994
      3352.6834       2612.4804
   -470290.59444                  21007950.9344
      9031.0084       7037.1494
 -12631225.17749  -9817794.15346  19169865.7214   19169868.8854   19169864.5034
      4223.4924       3291.0334
  -9373345.86449  -7268719.02447  18752244.6034   18752252.2264   18752245.1264
      4356.1444       3394.3984
 05  4 25 13 30 29.9910000  0  8G 4G25G 5G 1G 7G23G20G24
 -15805256.42849 -12289340.00047  18316555.7814   18316562.1214   18316556.7084
      7333.7524       5714.6124
 -15601420.82449 -10993451.38046  21669350.9464   21669353.8044   21669348.9024
      7531.5094       5868.7084
 -16833112.83349 -12608214.07846  19807965.5824   19807975.6154   19807966.0614
      5649.2384       4402.0044
 -12092290.50249  -9395383.08546  20892015.2464   20892033.8534   20892021.1134
      3991.4524       3110.2224
  -9761851.36249  -7595603.88046  19852409.6054   19852416.0014   19852411.9724
      3348.8794       2609.5164
   -575829.93144                  20982180.2364
      9027.4984       7034.4144
 -12694528.79349  -9867121.62846  19157818.2064   19157823.9944   19157817.0824
      4216.7064       3285.7454
  -9438650.44149  -7319605.70847  18739817.7844   18739825.1414   18739818.1454
      4350.8554       3390.2774
 05  4 25 13 30 44.9910000  0  8G 4G25G 5G 1G 7G23G20G24
 -15915214.30549 -12375021.43347  18295632.0004   18295637.5434   18295632.3344
      7327.3044       5709.5874
 -15714351.04949 -11081448.90846  21647859.4764   21647862.6784   21647858.9234
      7525.7564       5864.2254
 -16917789.84349 -12674196.12446  19791855.3604   19791858.6194   19791853.7824
      5640.9504       4395.5454
 -12152116.30249  -9442000.70746  20880633.4034   20880650.1904   20880637.8274
      3985.2634       3105.4004
  -9812057.46749  -7634725.48847  19842858.0024   19842865.4064   19842855.3314
      3345.0984       2606.5704
    -33486.96343                  20956421.2834
      9023.8944       7031.6064
 -12757728.80149  -9916368.37146  19145790.1014   19145797.3824   19145789.8524
      4209.8744       3280.4214
  -9503874.11249  -7370429.34847  18727407.1994   18727413.0484   18727407.2764
      4345.5184       3386.1184
 05  4 25 13 30 59.9910000  0  8G 4G25G 5G 1G 7G23G20G24
 -16025075.38849 -12460627.41647  18274725.8104   18274731.7074   18274725.6434
      7320.8154       5704.5314
 -15827195.76949 -11169379.94146  21626385.1074   21626389.1244   21626385.0754
      7520.0594       5859.7864
 -17002341.75749 -12740080.66946  19775763.0074   19775769.1194   19775761.8364
      5632.5584       4389.0064
 -12211848.03649  -9488544.96046  20869271.1974   20869284.0244   20869272.2824
      3978.9254       3100.4614
  -9862205.88049  -7673802.17047  19833315.3004   19833320.5774   19833315.1354
      3341.2064       2603.5374
   -138939.80743                  20930671.1204
      9020.2404       7028.7584
 -12820826.38849  -9965535.31446  19133783.3404   19133789.9854   19133782.9654
      4203.0104       3275.0734
  -9569018.04449  -7421190.85847  18715011.0214   18715017.0904   18715010.9754
      4340.2024       3381.9764
 05  4 25 13 31 14.9910000  0  9G 4G25G 5G 1G 7G30G23G20G24
 -16134839.87649 -12546158.14247  18253838.0564   18253844.0444   18253838.5224
      7314.5374       5699.6394
 -15939954.22249 -11257243.48446  21604927.5094   21604930.7924   21604926.7104
      7514.4414       5855.4084
 -17086769.00349 -12805868.07346  19759698.7224   19759702.2494   19759697.9494
      5624.4294       4382.6724
 -12271486.18249  -9535016.21946  20857925.9354   20857935.9404   20857924.3934
      3972.8484       3095.7264
  -9912296.87449  -7712834.17847  19823782.4944   19823788.8324   19823783.5624
      3337.4954       2600.6454
   -305543.92055                  20806231.6364
      8288.8654       6458.8564
   -244348.61544                  20904929.2454
      9016.7034       7026.0024
 -12883821.94449 -10014622.78246  19121797.2534   19121801.6584   19121797.0364
      4196.3814       3269.9074
  -9634082.55949  -7471890.49347  18702630.0124   18702635.5564   18702629.8394
      4335.0754       3377.9814
 05  4 25 13 31 29.9910000  0  9G 4G25G 5G 1G 7G30G23G20G24
 -16244507.79549 -12631613.64047  18232968.8524   18232974.8224   18232969.6104
      7307.9354       5694.4954
 -16052626.15349 -11345039.32346  21583485.8344   21583489.4964   21583483.9454
      7508.5144       5850.7904
 -17171071.66249 -12871558.45046  19743655.3454   19743658.4364   19743653.7714
      5615.9554       4376.0694
 -12331031.60149  -9581415.30046  20846597.5044   20846605.8194   20846594.5244
      3966.5234       3090.7974
  -9962330.83649  -7751821.66247  19814261.9094   19814268.4894   19814259.9474
      3333.5834       2597.5974
   -402390.44945                  20782578.3504
      8282.6044       6453.9774
   -349713.63444                  20879197.0114
      9012.9384       7023.0694
 -12946715.68449 -10063630.93346  19109829.7814   19109832.6554   19109829.1724
      4189.4494       3264.5064
  -9699067.89449  -7522528.44547  18690263.5804   18690269.0064   18690263.3554
      4329.6534       3373.7564
 05  4 25 13 31 44.9910000  0  9G 4G25G 5G 1G 7G30G23G20G24
 -16354076.34949 -12716991.73947  18212118.9384   18212124.6864   18212119.4604
      7301.4994       5689.4804
 -16165209.87649 -11432766.73246  21562059.8624   21562065.6704   21562059.4114
      7502.8334       5846.3634
 -17255247.15549 -12937149.72546  19727636.9074   19727642.7234   19727634.5574
      5607.6514       4369.5984
 -12390481.53849  -9627740.04046  20835287.0874   20835292.4964   20835283.3854
      3960.3574       3085.9924
 -10012305.37449  -7790762.87247  19804753.0684   19804757.3394   19804752.6864
      3329.7894       2594.6414
   -499163.42446                  20758944.4974   20758952.0004
      8276.5164       6449.2334
   -455033.74544                  20853474.5464
      9009.2004       7020.1564
 -13009505.34849 -10112557.99146  19097880.3884   19097884.5484   19097879.7894
      4182.7084       3259.2534
  -9763971.70349  -7573102.87247  18677912.4334   18677918.0524   18677912.2584
      4324.4284       3369.6844
 05  4 25 13 31 59.9910000  0  9G 4G25G 5G 1G 7G30G23G20G24
 -16463547.40049 -12802293.82047  18191287.5884   18191292.9994   18191287.6404
      7294.7804       5684.2444
 -16277706.98649 -11520426.78246  21540651.1764   21540656.0814   21540651.7554
      7496.7614       5841.6324
 -17339297.71649 -13002643.76946  19711639.3074   19711646.9474   19711641.4444
      5599.0994       4362.9344
 -12449838.56949  -9673992.35446  20823992.4754   20823998.2394   20823988.8824
      3953.9354       3080.9884
 -10062222.84749  -7829659.60847  19795253.0494   19795260.1814   19795253.8354
      3325.7844       2591.5204
   -820904.86649   -595864.17246  20735332.6234   20735336.4274   20735333.7334
      8270.0434       6444.1894
   -560310.24144                  20827759.7774
      9005.3524       7017.1574
 -13072193.29349 -10161405.75046  19085949.6454   19085956.7054   19085948.8684
      4175.6914       3253.7854
  -9828796.17249  -7623615.48247  18665576.9144   18665582.1794   18665576.5934
      4318.9014       3365.3774
 05  4 25 13 32 14.9910000  0  9G 4G25G 5G 1G 7G30G23G20G24
 -16572919.28449 -12887518.63347  18170474.7374   18170480.6754   18170474.8114
      7288.0514       5679.0014
 -16390115.32549 -11608017.58645  21519261.0494   21519265.6754   21519260.1804
      7490.8204       5837.0024
 -17423221.71049 -13068039.07746  19695671.8094   19695676.4254   19695672.4884
      5590.5794       4356.2954
 -12509101.18749  -9720171.12646  20812714.3554   20812720.7544   20812712.2604
      3947.5514       3076.0144
 -10112081.80149  -7868510.75847  19785766.1074   19785770.6724   19785763.2954
      3321.8104       2588.4234
   -944909.74649   -692491.36246  20711738.0924   20711739.7344   20711737.5784
      8263.6954       6439.2434
    -19302.93643                  20802053.9334
      9001.3584       7014.0454
 -13134778.00849 -10210173.05346  19074039.4774   19074047.9234   19074039.5554
      4168.7544       3248.3804
  -9893539.69049  -7674064.96647  18653256.6754   18653262.1574   18653256.1554
      4313.4124       3361.1004
 05  4 25 13 32 29.9910000  0  9G 4G25G 5G 1G 7G30G23G20G24
 -16682191.93849 -12972666.14447  18149680.7784   18149686.5344   18149681.2294
      7281.6964       5674.0494
 -16502435.08849 -11695539.53346  21497887.4744   21497892.3404   21497886.4554
      7485.0954       5832.5424
 -17507019.22149 -13133335.82346  19679726.1414   19679729.8844   19679724.2854
      5582.3734       4349.9014
 -12568269.69549  -9766276.58446  20801453.8484   20801460.5414   20801452.7454
      3941.5664       3071.3504
 -10161882.55749  -7907316.51347  19776289.7814   19776295.8724   19776289.2824
      3318.1944       2585.6064
  -1068819.91359   -789044.77256  20688158.7614   20688160.9414   20688158.1744
      8257.5154       6434.4274
   -124491.15553                  20776351.9074
      8997.5164       7011.0514
 -13197259.78649 -10258860.13346  19062151.2574   19062157.6444   19062151.2184
      4162.1064       3243.1994
  -9958202.64249  -7724451.65747  18640951.5524   18640957.3424   18640951.3634
      4308.2664       3357.0904
 05  4 25 13 32 44.9910000  0  8G 4G25G 5G 1G 7G30G20G24
 -16791364.60149 -13057735.75747  18128906.0534   18128911.4424   18128906.4064
      7274.8014       5668.6764
 -16614665.26249 -11782991.65045  21476529.9354   21476534.8744   21476528.6374
      7478.9284       5827.7364
 -17590689.47749 -13198533.40346  19663803.9594   19663810.2514   19663803.8254
      5573.7164       4343.1554
 -12627343.79049  -9812308.52546  20790211.6654   20790218.1984   20790211.3924
      3935.0464       3066.2704
 -10211624.59349  -7946076.57747  19766822.6604   19766827.6854   19766824.5484
      3314.0854       2582.4044
  -1192634.41649   -885523.65146  20664595.6474   20664601.3914   20664595.8394
      8250.9504       6429.3124
 -13259638.26749 -10307466.71546  19050283.2314   19050286.8354   19050282.4724
      4155.0444       3237.6974
 -10022784.53249  -7774775.19847  18628662.1374   18628667.7014   18628661.6804
      4302.6904       3352.7454
 05  4 25 13 32 59.9910000  0  8G 4G25G 5G 1G 7G30G20G24
 -16900434.75749 -13142725.42247  18108150.4114   18108156.2254   18108150.6614
      7267.9944       5663.3724
 -16726803.48049 -11870372.23445  21455188.8234   21455196.4274   21455189.1464
      7472.8634       5823.0104
 -17674230.52049 -13263630.25946  19647908.2924   19647912.0334   19647905.7994
      5565.1274       4336.4634
 -12686321.66949  -9858265.62346  20778988.6534   20778995.2284   20778988.9784
      3928.6834       3061.3114
 -10261306.04349  -7984789.41747  19757367.5194   19757375.3534   19757366.8064
      3310.0564       2579.2644
  -1316350.62749   -981925.86746  20641052.4344   20641059.6864   20641053.2274
      8244.4984       6424.2844
 -13321911.53549 -10355991.34646  19038433.1234   19038434.9294   19038431.8684
      4148.0644       3232.2584
 -10087283.34749  -7825034.03147  18616388.0824   18616394.1044   18616388.3814
      4297.2004       3348.4684
 05  4 25 13 33 14.9910000  0  8G 4G25G 5G 1G 7G30G20G24
 -17009405.35649 -13227637.54747  18087413.9524   18087419.6464   18087414.1944
      7261.4624       5658.2824
 -16838852.30949 -11957683.10745  21433866.0934   21433875.3054   21433866.0784
      7467.0274       5818.4624
 -17757645.45249 -13328628.97346  19632032.1834   19632039.1944   19632032.0174
      5556.8304       4329.9974
 -12745205.77649  -9904149.38246  20767784.3284   20767790.1744   20767783.9644
      3922.5614       3056.5414
 -10310930.07749  -8023457.45247  19747925.7734   19747931.7384   19747924.0854
      3306.3544       2576.3804
  -1439971.32849  -1078253.70046  20617528.4274   20617533.8584   20617528.4194
      8238.2104       6419.3844
 -13384082.79349 -10404436.48846  19026600.8644   19026603.1484   19026599.7254
      4141.4104       3227.0734
 -10151702.15449  -7875230.52747  18604129.9424   18604135.5234   18604129.7254
      4291.9614       3344.3854
 05  4 25 13 33 29.9910000  0  8G 4G25G 5G 1G 7G30G20G24
 -17118275.03949 -13312471.09647  18066696.9114   18066702.6704   18066697.1024
      7254.4304       5652.8034
 -16950810.10849 -12044923.05345  21412560.4424   21412569.5634   21412561.2664
      7460.5624       5813.4254
 -17840932.79649 -13393528.24646  19616184.3254   19616190.4164   19616185.9714
      5548.0214       4323.1334
 -12803994.59049  -9949958.46446  20756598.5934   20756602.8364   20756598.5264
      3915.9144       3051.3624
 -10360495.40949  -8062079.83047  19738493.7174   19738500.6684   19738495.0484
      3302.1454       2573.1004
  -1563494.78749  -1174505.72646  20594021.7674   20594027.7704   20594020.9764
      8231.3584       6414.0454
 -13446150.94949 -10452801.28146  19014787.5204   19014791.5854   19014787.0554
      4134.1964       3221.4514
 -10216039.63749  -7925363.65147  18591887.3824   18591892.8554   18591887.2134
      4286.2354       3339.9234
 05  4 25 13 33 44.9910000  0  8G 4G25G 5G 1G 7G30G20G24
 -17227041.87449 -13397224.47147  18045999.3694   18046004.8774   18045999.3454
      7247.6784       5647.5414
 -17062675.17249 -12132090.70545  21391270.3814   21391282.6864   21391273.2224
      7454.5504       5808.7404
 -17924091.17449 -13458326.98046  19600359.7704   19600364.4174   19600356.7434
      5539.5004       4316.4934
 -12862687.95949  -9995693.23846  20745431.2334   20745433.4324   20745430.5364
      3909.6764       3046.5014
 -10410000.86449  -8100655.52747  19729072.4444   19729078.6984   19729072.9684
      3298.2894       2570.0954
  -1686919.27849  -1270680.66646  20570533.0584   20570540.7514   20570532.9594
      8224.9214       6409.0294
 -13508114.57749 -10501084.63446  19002996.2634   19003001.9984   19002996.5674
      4127.3964       3216.1534
 -10280294.53749  -7975432.40247  18579659.4804   18579665.2754   18579659.3204
      4280.8484       3335.7264
 05  4 25 13 33 59.9910000  0  8G 4G25G 5G 1G 7G30G20G24
 -17335705.01349 -13481897.04747  18025321.0524   18025327.0884   18025321.6864
      7240.7914       5642.1754
 -17174446.42949 -12219185.28645  21369998.1434   21370012.3204   21370003.3914
      7448.2454       5803.8274
 -18007119.45949 -13523024.29346  19584558.8104   19584565.8784   19584560.5864
      5530.8754       4309.7734
 -12921285.52249 -10041353.62046  20734281.7184   20734283.5304   20734280.8614
      3903.2964       3041.5294
 -10459445.81849  -8139184.06347  19719665.1524   19719671.4154   19719662.6954
      3294.2374       2566.9384
  -1810243.46149  -1366777.44446  20547063.8794   20547072.7984   20547065.9284
      8218.1944       6403.7884
 -13569972.89049 -10549285.93246  18991227.4054   18991231.5154   18991226.8344
      4120.3474       3210.6604
 -10344466.02449  -8025436.15447  18567447.6154   18567453.8794   18567447.2034
      4275.2874       3331.3924
 05  4 25 13 34 14.9910000  0  8G 4G25G 5G 1G 7G30G20G24
 -17444267.13949 -13566490.91647  18004662.0034   18004668.2824   18004662.6454
      7234.1004       5636.9614
 -17286126.45149 -12306208.73845  21348744.6234   21348759.4494   21348751.2434
      7442.4114       5799.2814
 -18090021.03949 -13587622.95746  19568784.4374   19568790.2414   19568785.5884
      5522.5404       4303.2784
 -12979789.93049 -10086941.45746  20723149.2824   20723149.9084   20723148.6764
      3897.1764       3036.7614
 -10508833.22349  -8177667.79747  19710267.3604   19710271.8794   19710268.2634
      3290.5224       2564.0434
  -1933469.94049  -1462798.06246  20523615.9004   20523624.4554   20523618.1714
      8211.7434       6398.7614
 -13631729.07849 -10597407.65046  18979476.6624   18979480.7274   18979475.3784
      4113.6764       3205.4624
 -10408557.24049  -8075377.35847  18555250.9244   18555257.2424   18555251.0894
      4270.0564       3327.3164
 05  4 25 13 34 29.9910000  0  8G 4G25G 5G 1G 7G30G20G24
 -17552724.09849 -13651002.83047  17984023.6044   17984029.6994   17984024.0624
      7226.8894       5631.3424
 -17397711.17749 -12393158.04345  21327511.6444   21327526.3284   21327517.9574
      7435.6084       5793.9804
 -18172791.79049 -13652119.64346  19553035.0814   19553038.3554   19553033.8274
      5513.6244       4296.3304
 -13038197.63549 -10132454.04946  20712034.7344   20712034.3934   20712033.9294
      3890.5864       3031.6254
 -10558159.20449  -8216103.65747  19700879.5914   19700886.9544   19700880.1874
      3286.2414       2560.7074
  -2056594.48449  -1558739.24246  20500189.5734   20500194.4664   20500190.6454
      8204.7924       6393.3444
 -13693379.46349 -10645446.91846  18967743.7314   18967749.5174   18967742.1364
      4106.4464       3199.8284
 -10472564.25749  -8125252.96247  18543071.1674   18543077.2504   18543071.1484
      4264.2684       3322.8064
 05  4 25 13 34 44.9900000  0  9G 4G25G 5G 1G 7G30G23G20G24
 -17661069.82449 -13735428.07447  17963406.2474   17963412.1754   17963406.6014
      7220.4054       5626.2904
 -17509194.01049 -12480027.72445  21306300.2314   21306311.3564   21306304.8644
      7429.8014       5789.4554
 -18255427.25649 -13716510.87546  19537308.7284   19537315.1364   19537309.5814
      5505.3774       4289.9044
 -13096506.12849 -10177889.36746  20700938.3334   20700937.8224   20700936.5184
      3884.5934       3026.9564
 -10607422.19949  -8254490.38546  19691505.8534   19691511.4794   19691503.4304
      3282.6364       2557.8984
  -2179609.97749  -1654595.46646  20476782.7864   20476784.5074   20476782.8244
      8198.4744       6388.4214
    -36699.01453                  20545717.3924
      8960.0764       6981.8774
 -13754921.49049 -10693401.73846  18956029.7504   18956036.7164   18956029.5654
      4099.8944       3194.7234
 -10536484.29149  -8175060.78247  18530907.4934   18530913.2194   18530907.6974
      4259.1504       3318.8184
 05  4 25 13 34 59.9900000  0  9G 4G25G 5G 1G 7G30G23G20G24
 -17769320.55949 -13819779.28947  17942807.3514   17942812.6174   17942807.4164
      7213.3934       5620.8264
 -17620591.66849 -12566830.87345  21285106.3634   21285115.1504   21285107.2824
      7423.4534       5784.5094
 -18337940.73349 -13780807.03446  19521608.9684   19521611.7144   19521607.1614
      5496.6854       4283.1314
 -13154725.28249 -10223255.04746  20689858.1134   20689859.6254   20689855.9864
      3878.1264       3021.9164
 -10656630.68049  -8292834.64747  19682142.1084   19682147.9744   19682142.6994
      3278.6014       2554.7544
  -2302534.11349  -1750380.45446  20453391.1494   20453391.8164   20453389.5454
      8191.6204       6383.0814
   -141399.50043                  20520144.0674
      8955.6084       6978.3964
 -13816365.43349 -10741280.13246  18944337.1604   18944343.5304   18944337.1874
      4092.8744       3189.2524
 -10600327.94349  -8224809.07547  18518758.5914   18518764.9374   18518758.4364
      4253.5754       3314.4744
 05  4 25 13 35 14.9900000  0  9G 4G25G 5G 1G 7G30G23G20G24
 -17877465.29649 -13904047.91247  17922228.2734   17922233.3394   17922228.2364
      7206.1064       5615.1484
 -17731893.18249 -12653559.42145  21263930.2334   21263936.4424   21263927.9854
      7416.8744       5779.3824
 -18420322.99549 -13845000.98446  19505930.9924   19505936.0604   19505929.7184
      5487.7444       4276.1644
 -13212847.34249 -10268544.82146  20678796.4644   20678796.9914   20678793.6654
      3871.5194       3016.7684
 -10705777.91749  -8331131.24446  19672787.1974   19672794.3424   19672790.7754
      3274.3724       2551.4594
  -2425354.85249  -1846084.88245  20430016.4104   20430018.4624   20430014.5204
      8184.5344       6377.5594
   -246048.20444                  20494586.8564
      8950.8764       6974.7094
 -13877703.58249 -10789076.11146  18932667.9114   18932670.9994   18932667.8994
      4085.6514       3183.6244
 -10664087.30849  -8274491.70147  18506625.8914   18506632.0764   18506625.5464
      4247.7734       3309.9534
 05  4 25 13 35 29.9900000  0  9G 4G25G 5G 1G 7G30G23G20G24
 -17985504.99849 -13988234.69247  17901668.8384   17901674.0504   17901669.0144
      7199.3414       5609.8764
 -17843099.30049 -12740213.68045  21242769.9914   21242771.8234   21242766.1064
      7410.6884       5774.5624
 -18502575.23949 -13909093.68546  19490275.9274   19490285.5824   19490277.1574
      5479.2674       4269.5594
 -13270874.62149 -10313760.94446  20667752.0954   20667755.1954   20667750.2664
      3865.4414       3012.0324
 -10754865.55749  -8369381.31946  19663447.3094   19663454.7224   19663443.5744
      3270.6014       2548.5204
  -2548073.06249  -1941709.50745  20406657.1844   20406668.2824   20406657.8364
      8177.8754       6372.3704
   -350644.39944                  20469043.8944
      8946.6414       6971.4084
 -13938937.53649 -10836790.91246  18921017.6134   18921019.5514   18921016.3374
      4078.9364       3178.3924
 -10727763.89249  -8324109.82747  18494508.7684   18494514.7074   18494508.3934
      4242.4914       3305.8374
 05  4 25 13 35 44.9900000  0  9G 4G25G 5G 1G 7G30G23G20G24
 -18093439.84949 -14072339.76947  17881128.9404   17881134.6134   17881129.5784
      7192.0804       5604.2184
 -17954209.25549 -12826792.69945  21221626.5714   21221625.9024   21221623.7634
      7404.0364       5769.3794
 -18584698.25849 -13973085.77346  19474652.6814   19474656.7394   19474652.1044
      5470.3914       4262.6424
 -13328806.87949 -10358902.88146  20656724.7744   20656731.0284   20656724.4734
      3858.9024       3006.9374
 -10803893.82849  -8407585.16246  19654118.6894   19654123.3064   19654118.5714
      3266.4664       2545.2984
  -2670688.69549  -2037254.24145  20383322.3014   20383336.6964   20383328.0684
      8170.8524       6366.8984
   -455187.87544                  20443506.7324
      8941.9004       6967.7144
 -14000067.76449 -10884424.87246  18909384.6334   18909388.4694   18909382.9364
      4071.7914       3172.8244
 -10791357.99249  -8373663.67947  18482407.1874   18482413.4334   18482406.8864
      4236.7584       3301.3704
 05  4 25 13 35 59.9900000  0  9G 4G25G 5G 1G 7G30G23G20G24
 -18201268.59849 -14156362.19247  17860609.8894   17860615.2614   17860610.0484
      7185.0814       5598.7644
 -18065222.66849 -12913296.48545  21200502.0324   21200506.7444   21200499.5094
      7397.7034       5764.4444
 -18666690.73249 -14036976.21546  19459048.7054   19459055.2984   19459046.7164
      5461.7754       4255.9294
 -13386643.69649 -10403970.49646  20645717.0654   20645725.2694   20645717.9084
      3852.6724       3002.0824
 -10852861.87449  -8445742.17247  19644798.9454   19644806.5324   19644803.2674
      3262.5324       2542.2334
  -2793200.38549  -2132717.89546  20360016.5734   20360023.1974   20360018.0254
      8163.9594       6361.5264
   -559678.19345                  20417987.5454
      8937.3534       6964.1714
 -14061093.33149 -10931977.25046  18897768.5984   18897775.0784   18897767.3924
      4064.8674       3167.4294
 -10854868.62649  -8423152.49147  18470321.7844   18470328.1374   18470321.1794
      4231.2154       3297.0514
 05  4 25 13 36 14.9900000  0  9G 4G25G 5G 1G 7G30G23G20G24
 -18308990.44749 -14240301.28847  17840111.2224   17840116.4704   17840111.3444
      7177.8984       5593.1674
 -18176138.17649 -12999724.18046  21179397.1784   21179397.4954   21179395.1874
      7391.0534       5759.2624
 -18748551.28149 -14100763.58746  19443471.4814   19443476.0334   19443472.4864
      5452.9524       4249.0544
 -13444384.84849 -10448963.73146  20634729.1844   20634738.3114   20634730.3554
      3846.2334       2997.0654
 -10901769.35449  -8483851.89846  19635491.6354   19635498.6124   19635487.9994
      3258.4104       2539.0214
  -2915607.24149  -2228099.86346  20336728.1014   20336730.7124   20336727.7584
      8156.8864       6356.0154
   -664113.97844                  20392482.0094
      8932.6214       6960.4844
 -14122013.89649 -10979447.79546  18886172.9084   18886182.2414   18886173.8174
      4057.8434       3161.9564
 -10918295.45049  -8472575.99447  18458251.5044   18458257.6874   18458251.5924
      4225.6294       3292.6984
 05  4 25 13 36 29.9900000  0  9G 4G25G 5G 1G 7G30G23G20G24
 -18416606.10849 -14324157.64147  17819632.7534   17819637.7594   17819632.9664
      7170.7894       5587.6284
 -18286956.35149 -13086075.44146  21158309.8394   21158309.0814   21158307.7384
      7384.5724       5754.2124
 -18830282.16749 -14164450.13946  19427920.1914   19427923.0254   19427919.7514
      5444.2844       4242.2994
 -13502031.02649 -10493882.93246  20623759.7684   20623767.9304   20623760.0564
      3839.8344       2992.0784
 -10950617.47549  -8521915.37846  19626199.8104   19626203.4984   19626198.6204
      3254.4244       2535.9154
  -3037909.73649  -2323400.47946  20313455.4264   20313456.0374   20313454.5074
      8149.9094       6350.5784
   -768496.34344                  20366992.7314
      8928.0574       6956.9284
 -14182830.41349 -11026837.27846  18874602.1404   18874608.7364   18874602.8784
      4050.9104       3156.5534
 -10981639.37349  -8521934.88047  18446197.6974   18446204.1134   18446197.5584
      4220.0784       3288.3724
 05  4 25 13 36 44.9900000  0  9G 4G25G 5G 1G 7G30G23G20G24
 -18524115.12449 -14407930.89847  17799174.8844   17799180.0844   17799174.8604
      7163.9394       5582.2904
 -18397677.46049 -13172351.44546  21137240.1874   21137244.5494   21137238.0974
      7378.3754       5749.3834
 -18911881.84049 -14228034.22246  19412391.0594   19412395.6464   19412390.6554
      5435.8354       4235.7164
 -13559582.12949 -10538727.94346  20612808.6194   20612817.5744   20612809.5674
      3833.8544       2987.4194
 -10999405.69649  -8559932.24247  19616913.6484   19616919.9864   19616917.7024
      3250.7274       2533.0344
  -3160107.04349  -2418619.13146  20290199.4784   20290201.8774   20290198.3694
      8143.1434       6345.3064
   -872824.02045                  20341518.8934   20341514.1224
      8923.6554       6953.4974
 -14243542.75749 -11074145.62546  18863052.4494   18863053.9004   18863051.7014
      4044.2234       3151.3434
 -11044900.09849  -8571228.93347  18434159.3594   18434166.1064   18434158.9784
      4214.7994       3284.2594
 05  4 25 13 36 59.9900000  0  9G 4G25G 5G 1G 7G30G23G20G24
 -18631518.05649 -14491621.51647  17778736.5894   17778741.7684   17778736.8044
      7156.5504       5576.5324
 -18508301.61349 -13258551.87146  21116187.8934   21116190.6884   21116186.4224
      7371.5774       5744.0864
 -18993351.42849 -14291516.81046  19396886.9904   19396890.7404   19396886.3114
      5426.8264       4228.6964
 -13617039.55249 -10583500.13446  20601875.4914   20601884.4014   20601875.8154
      3827.1974       2982.2314
 -11048135.16349  -8597903.34546  19607639.3674   19607645.5524   19607638.7814
      3246.4854       2529.7294
  -3282199.74349  -2513756.25746  20266960.5934   20266969.7934   20266960.5594
      8135.7784       6339.5674
  -1324650.48349   -977097.34945  20316057.6834   20316039.9584   20316058.8174
      8918.7234       6949.6544
 -14304152.01249 -11121373.64646  18851520.0174   18851520.8634   18851518.6054
      4037.0144       3145.7254
 -11108078.71349  -8620459.03247  18422137.0794   18422143.1894   18422137.4494
      4209.0154       3279.7524
 05  4 25 13 37 14.9900000  0  9G 4G25G 5G 1G 7G30G23G20G24
 -18738813.96149 -14575228.71547  17758318.4954   17758324.1454   17758318.9494
      7149.4054       5570.9654
 -18618827.90249 -13344676.19446  21095154.1764   21095159.2134   21095153.6094
      7364.9954       5738.9574
 -19074690.61249 -14354897.91246  19381409.8684   19381413.5724   19381411.0934
      5418.1244       4221.9154
 -13674401.33849 -10628197.26946  20590960.1024   20590969.2054   20590959.8944
      3820.7804       2977.2314
 -11096805.37749  -8635828.11947  19598380.7294   19598387.3324   19598378.1784
      3242.5184       2526.6374
  -3404186.58349  -2608810.96146  20243741.2474   20243757.1364   20243745.6454
      8128.7264       6334.0724
  -1458397.13049  -1081315.39345  20290606.6904   20290592.2934   20290605.1404
      8913.9364       6945.9244
 -14364657.40649 -11168520.70946  18840004.8914   18840007.7384   18840003.8094
      4030.0844       3140.3254
 -11171174.33049  -8669624.45047  18410130.5284   18410136.6974   18410130.2864
      4203.4594       3275.4234
 05  4 25 13 37 29.9900000  0  9G 4G25G 5G 1G 7G30G23G20G24
 -18846001.21649 -14658751.24247  17737921.3854   17737927.4474   17737921.7144
      7142.1884       5565.3414
 -18729254.68449 -13430723.11846  21074139.7874   21074143.3174   21074138.9814
      7358.4014       5733.8194
 -19155897.82649 -14418176.28546  19365952.5794   19365957.8144   19365953.4024
      5409.3784       4215.1004
 -13731667.62549 -10672820.01446  20580061.8364   20580071.7344   20580061.7824
      3814.5544       2972.3804
 -11145414.94349  -8673705.82847  19589129.8484   19589133.6914   19589131.6324
      3238.5544       2523.5494
  -3526066.09149  -2703782.00046  20220551.9554   20220564.5834   20220556.2794
      8121.6134       6328.5304
  -1592071.38049  -1185477.02745  20265167.9074   20265164.5884   20265166.0324
      8909.1184       6942.1704
 -14425057.97749 -11215586.08146  18828508.0334   18828514.7104   18828507.7754
      4023.1484       3134.9214
 -11234185.74249  -8718724.25247  18398139.5244   18398145.8954   18398139.3464
      4197.9064       3271.0964
 05  4 25 13 37 44.9900000  0  9G 4G25G 5G 1G 7G30G23G20G24
 -18953078.29849 -14742187.93847  17717545.4144   17717551.0444   17717545.7054
      7135.0424       5559.7734
 -18839580.00249 -13516690.89446  21053145.2864   21053149.6304   21053144.6814
      7351.7994       5728.6754
 -19236971.76849 -14481350.73746  19350528.2234   19350531.1314   19350527.2194
      5400.7124       4208.3474
 -13788837.83949 -10717368.37546  20569182.1954   20569193.4544   20569183.1734
      3808.3624       2967.5554
 -11193962.58949  -8711535.22047  19579888.1934   19579898.9164   19579890.0874
      3234.5954       2520.4644
  -3647836.34449  -2798667.90446  20197385.8934   20197392.4434   20197386.1184
      8114.5544       6323.0294
  -1725671.31649  -1289580.80745  20239740.5694   20239743.4574   20239737.3344
      8904.4194       6938.5084
 -14485352.32149 -11262568.67646  18817033.1194   18817041.5864   18817033.2454
      4016.2954       3129.5814
 -11297111.71149  -8767757.49947  18386165.5344   18386171.8394   18386165.3594
      4192.4274       3266.8264
 05  4 25 13 37 59.9900000  0  9G 4G25G 5G 1G 7G30G23G20G24
 -19060047.33349 -14825540.44347  17697189.5764   17697195.6254   17697190.2674
      7127.6994       5554.0514
 -18949805.99649 -13602581.32546  21032169.2354   21032174.6934   21032168.6134
      7345.1424       5723.4874
 -19317914.49849 -14544422.99246  19335124.7994   19335129.6704   19335123.6474
      5391.8124       4201.4124
 -13845913.59849 -10761843.25046  20558321.5114   20558332.5924   20558322.0544
      3801.8094       2962.4494
 -11242450.84149  -8749318.22446  19570665.5694   19570668.8324   19570662.3884
      3230.5174       2517.2864
  -3769499.18249  -2893470.06146  20174236.3574   20174239.7144   20174235.3634
      8107.2864       6317.3664
  -1859198.76259  -1393628.15955  20214327.4474   20214330.5234   20214324.8774
      8899.4454       6934.6324
 -14545542.87249 -11309470.40846  18805581.3664   18805587.7154   18805581.6414
      4009.2744       3124.1104
 -11359954.59849  -8816725.98747  18374207.3994   18374213.4734   18374207.1854
      4186.7754       3262.4224
 05  4 25 13 38 14.9900000  0  9G 4G25G 5G 1G 7G30G23G20G24
 -19166906.83349 -14908807.62047  17676855.2004   17676860.7874   17676855.4324
      7120.4134       5548.3744
 -19059931.09249 -13688393.13346  21011211.4224   21011217.2744   21011210.7904
      7338.3714       5718.2114
 -19398725.15749 -14607392.30746  19319747.6774   19319754.0364   19319744.9244
      5383.0474       4194.5824
 -13902893.55549 -10806243.14346  20547478.3954   20547489.6454   20547478.9994
      3795.5054       2957.5364
 -11290878.58049  -8787054.18747  19561447.6594   19561456.0474   19561450.1564
      3226.4884       2514.1464
  -3891053.13249  -2988187.38946  20151105.0784   20151107.5844   20151103.1954
      8100.0384       6311.7184
  -1992652.06848  -1497617.76644  20188929.0184   20188932.2234   20188927.7624
      8894.4664       6930.7534
 -14605628.61749 -11356290.49046  18794150.2144   18794152.5564   18794149.0474
      4002.2884       3118.6664
 -11422713.39549  -8865628.95147  18362265.2174   18362271.2394   18362264.8054
      4181.1844       3258.0654
 05  4 25 13 38 29.9900000  0  9G 4G25G 5G 1G 7G30G23G20G24
 -19273655.31949 -14991988.25447  17656541.6304   17656547.2344   17656541.8824
      7113.0154       5542.6094
 -19169953.44249 -13774124.70345  20990272.7854   20990279.9664   20990272.5104
      7331.5324       5712.8824
 -19479402.10149 -14670257.50346  19304395.0324   19304399.2414   19304395.8144
      5374.0924       4187.6044
 -13959777.04849 -10850567.93446  20536654.4704   20536665.3574   20536654.8044
      3789.1304       2952.5694
 -11339244.57649  -8824742.01046  19552243.0514   19552248.7894   19552242.7734
      3222.4054       2510.9654
  -4012496.49849  -3082818.53546  20127992.5344   20127998.4014   20127991.4894
      8092.5974       6305.9204
  -2126029.45548  -1601548.21744  20163542.2064   20163548.0174   20163540.9214
      8889.4434       6926.8394
 -14665608.46849 -11403028.05746  18782736.8744   18782738.0314   18782735.5154
      3995.2334       3113.1694
 -11485386.77849  -8914465.35247  18350338.6774   18350344.7514   18350338.2264
      4175.4794       3253.6204
 05  4 25 13 38 44.9900000  0  9G 4G25G 5G 1G 7G30G23G20G24
 -19380294.69349 -15075083.87747  17636248.9634   17636254.6254   17636249.0204
      7105.4684       5536.7284
 -19279875.39749 -13859778.18346  20969352.7244   20969362.2764   20969354.6024
      7324.5884       5707.4714
 -19559947.78149 -14733020.36446  19289068.9504   19289071.3144   19289066.7344
      5365.1474       4180.6344
 -14016565.82749 -10894818.71146  20525848.9884   20525859.1494   20525848.7414
      3782.5784       2947.4634
 -11387551.37349  -8862383.63447  19543053.1424   19543059.9334   19543050.8784
      3218.1954       2507.6844
  -4133830.98949  -3177364.85746  20104900.8284   20104911.2564   20104900.5104
      8085.0624       6300.0484
  -2259332.69158  -1705420.85954  20138170.8064   20138178.3494   20138171.4134
      8884.1614       6922.7234
 -14725484.78549 -11449684.94046  18771340.3964   18771343.8094   18771339.3514
      3988.1004       3107.6104
 -11547977.01149  -8963236.96247  18338427.6474   18338434.3594   18338427.5174
      4169.7114       3249.1254
 05  4 25 13 38 59.9900000  0  9G 4G25G 5G 1G 7G30G23G20G24
 -19486822.02849 -15158092.19947  17615977.2104   17615983.2554   17615977.2644
      7098.3114       5531.1514
 -19389693.89049 -13945351.07546  20948453.8144   20948464.7464   20948456.5784
      7317.9814       5702.3234
 -19640359.07349 -14795678.54546  19273764.4614   19273770.7024   19273764.4344
      5356.4454       4173.8534
 -14073257.71849 -10938993.97646  20515062.4794   20515071.2994   20515061.4694
      3776.4894       2942.7194
 -11435796.00849  -8899976.90347  19533871.4224   19533876.1994   19533873.0994
      3214.3904       2504.7194
  -4255053.47949  -3271823.92246  20081831.0514   20081843.2214   20081832.8504
      8077.9404       6294.4994
  -2392558.69458  -1809233.32654  20112813.7774   20112826.8884   20112819.0534
      8879.7284       6919.2694
 -14785254.89749 -11496259.03746  18759962.7714   18759970.4344   18759963.1474
      3981.3104       3102.3194
 -11610481.29249  -9011941.61047  18326533.2654   18326540.3994   18326533.1104
      4164.2764       3244.8904
 05  4 25 13 39 14.9890000  0  9G 4G25G 5G 1G 7G30G23G20G24
 -19593231.70949 -15241008.85847  17595728.1474   17595734.1464   17595728.2974
      7090.6034       5525.1454
 -19499402.70149 -14030838.44046  20927577.7004   20927587.7374   20927579.5264
      7310.8444       5696.7614
 -19720632.49049 -14858229.25646  19258488.9054   19258492.9194   19258488.1704
      5347.3314       4166.7514
 -14129851.33949 -10983093.00246  20504294.5414   20504301.1674   20504293.4244
      3769.8184       2937.5214
 -11483977.19449  -8937520.69447  19524701.4584   19524710.6744   19524700.6814
      3210.0464       2501.3354
  -4376157.02249  -3366190.26546  20058784.4104   20058798.1274   20058786.5444
      8070.1984       6288.4664
  -2525699.43558  -1912979.28354  20087482.3984   20087489.5984   20087485.2714
      8873.7094       6914.5784
 -14844916.51649 -11542748.60246  18748609.6174   18748618.6044   18748610.6554
      3974.0474       3096.6604
 -11672897.10649  -9060577.31747  18314655.4954   18314663.2324   18314655.3504
      4158.3494       3240.2724
 05  4 25 13 39 29.9890000  0  9G 4G25G 5G 1G 7G30G23G20G24
 -19699536.03049 -15323843.41247  17575499.1934   17575505.0804   17575499.4004
      7083.1114       5519.3074
 -19609014.99949 -14116250.66346  20906719.9414   20906730.0724   20906721.7364
      7303.9154       5691.3624
 -19800776.89849 -14920679.43946  19243236.0724   19243245.4544   19243237.1394
      5338.3984       4159.7914
 -14186352.47649 -11027120.03946  20493545.1514   20493549.9394   20493543.5204
      3763.3594       2932.4884
 -11532099.97349  -8975018.88847  19515547.0724   19515548.9674   19515546.0954
      3205.9774       2498.1644
  -4497156.07849  -3460475.16746  20035760.7114   20035770.8594   20035762.8494
      8062.7134       6282.6344
  -2658770.73149  -2016671.14944  20062167.9694   20062169.2884   20062166.5924
      8868.7534       6910.7174
 -14904476.26849 -11589158.81746  18737279.7704   18737285.1144   18737279.6584
      3967.0084       3091.1754
 -11735231.40749  -9109149.50647  18302793.2954   18302801.2064   18302793.9694
      4152.6464       3235.8284
 05  4 25 13 39 44.9890000  0  9G 4G25G 5G 1G 7G30G23G20G24
 -19805727.45049 -15406589.94147  17555291.7554   17555297.5084   17555291.6814
      7075.8714       5513.6664
 -19718522.74749 -14201581.39346  20885881.7434   20885890.7784   20885883.0144
      7297.1794       5686.1144
 -19880786.97249 -14983024.91946  19228012.8084   19228017.2094   19228011.2314
      5329.7184       4153.0274
 -14242756.79449 -11071071.43446  20482812.5284   20482816.7124   20482810.8354
      3757.2554       2927.7314
 -11580160.81149  -9012468.94247  19506398.8074   19506407.8534   19506401.6974
      3202.1144       2495.1544
  -4618041.89649  -3554671.85746  20012760.6834   20012766.3544   20012761.8364
      8055.3814       6276.9204
  -2791763.15149  -2120301.59245  20036864.9524   20036862.1834   20036863.4354
      8863.6924       6906.7734
 -14963930.07549 -11635486.48746  18725968.8264   18725971.1284   18725967.8484
      3960.2014       3085.8714
 -11797479.88449  -9157654.81947  18290948.3514   18290955.5804   18290948.3884
      4147.1944       3231.5804
 05  4 25 13 39 59.9890000  0  9G 4G25G 5G 1G 7G30G23G20G24
 -19911808.20749 -15489250.25047  17535105.0634   17535111.1014   17535105.2984
      7068.3904       5507.8364
 -19827927.70349 -14286831.99446  20865063.6244   20865070.7594   20865065.4464
      7290.2014       5680.6764
 -19960664.92249 -15045267.47946  19212813.5114   19212819.4914   19212813.3114
      5320.8114       4146.0864
 -14299067.28649 -11114949.83646  20472097.0454   20472101.1164   20472094.5924
      3750.8544       2922.7434
 -11628162.42249  -9049872.77946  19497264.1454   19497269.4294   19497261.5224
      3198.1004       2492.0264
  -4738816.36249  -3648781.71946  19989780.4244   19989781.8754   19989779.9124
      8047.8744       6271.0714
  -2924678.54549  -2223872.02845  20011573.1964   20011570.9924   20011572.3714
      8858.4754       6902.7084
 -15023280.35949 -11681733.47846  18714674.6934   18714676.0294   18714672.8274
      3953.2374       3080.4444
 -11859644.95949  -9206095.16447  18279119.3384   18279125.6454   18279119.0144
      4141.5574       3227.1874
 05  4 25 13 40 14.9890000  0  9G 4G25G 5G 1G 7G30G23G20G24
 -20017774.52049 -15571821.40847  17514940.6004   17514946.0144   17514940.7944
      7060.9004       5502.0004
 -19937226.37849 -14371999.73746  20844267.4544   20844272.5814   20844267.1464
      7283.3184       5675.3134
 -20040407.38349 -15107404.48746  19197639.0894   19197643.9054   19197637.6804
      5311.8934       4139.1374
 -14355280.51449 -11158752.40546  20461399.2014   20461404.8654   20461396.8734
      3744.5794       2917.8544
 -11676101.61049  -9087228.00247  19488144.3504   19488150.2334   19488143.0864
      3194.0624       2488.8794
  -4859475.62249  -3742801.81646  19966820.5334   19966822.6644   19966820.2264
      8040.3534       6265.2104
  -3057513.06849  -2327379.44145  19986296.2974   19986294.3334   19986294.8044
      8853.1694       6898.5734
 -15082523.92049 -11727897.29546  18703398.0234   18703401.5774   18703396.7894
      3946.2414       3074.9934
 -11921723.31949  -9254467.94947  18267306.4914   18267312.5914   18267306.5654
      4135.9234       3222.7974
 05  4 25 13 40 29.9890000  0  9G 4G25G 5G 1G 7G30G23G20G24
 -20123627.50649 -15654304.24047  17494797.4024   17494802.3244   17494797.5674
      7053.1984       5495.9984
 -20046419.63949 -14457085.38546  20823490.7204   20823493.4184   20823489.4474
      7276.1244       5669.7074
 -20120015.54949 -15169436.83946  19182492.2694   19182494.0944   19182490.2114
      5302.8234       4132.0704
 -14411397.72649 -11202480.13646  20450718.8364   20450724.7424   20450718.0934
      3738.0644       2912.7774
 -11723979.24049  -9124535.31947  19479031.2474   19479037.2194   19479034.3354
      3189.8504       2485.5974
  -4980020.54749  -3836732.84746  19943879.9574   19943884.4004   19943878.1804
      8032.5854       6259.1574
  -3190267.30849  -2430824.31145  19961033.1524   19961034.7034   19961031.6934
      8847.6854       6894.3004
 -15141661.95749 -11773978.86946  18692141.6224   18692148.0674   18692142.0234
      3939.1144       3069.4394
 -11983715.90849  -9302773.89447  18255510.0274   18255515.6034   18255509.8614
      4130.0854       3218.2484
 05  4 25 13 40 44.9890000  0  9G 4G25G 5G 1G 7G30G23G20G24
 -20229366.95449 -15736698.59247  17474675.5044   17474680.8294   17474675.6864
      7045.4464       5489.9584
 -20155507.27949 -14542088.70546  20802733.0524   20802735.0814   20802731.4434
      7268.9024       5664.0794
 -20199489.24649 -15231364.40946  19167367.0204   19167371.9054   19167365.7164
      5293.6764       4124.9424
 -14467419.29049 -11246133.34346  20440056.5824   20440065.0364   20440056.2054
      3731.5074       2907.6684
 -11771795.79349  -9161794.98746  19469931.3384   19469939.9764   19469928.2644
      3185.6134       2482.2964
  -5100450.76249  -3930574.52346  19920958.2564   19920967.8384   19920958.3684
      8024.6934       6253.0084
  -3322940.81349  -2534206.23345  19935785.8364   19935787.6904   19935785.2764
      8842.1614       6889.9964
 -15200694.76749 -11819978.48046  18680910.4584   18680914.9244   18680911.3024
      3931.9454       3063.8534
 -12045623.04049  -9351013.22147  18243729.7094   18243734.9244   18243729.2864
      4124.2084       3213.6694
 05  4 25 13 40 59.9890000  0  9G 4G25G 5G 1G 7G30G23G20G24
 -20334991.07749 -15819003.09547  17454576.3094   17454581.2954   17454576.6594
      7037.8174       5484.0134
 -20264487.57749 -14627008.37546  20781996.1014   20781997.1364   20781993.8604
      7261.8274       5658.5664
 -20278827.32049 -15293186.25046  19152270.2714   19152274.0134   19152267.2014
      5284.6784       4117.9314
 -14523343.97249 -11289711.05146  20429413.4494   20429421.1924   20429413.2854
      3725.1084       2902.6824
 -11819549.92749  -9199005.97447  19460845.7374   19460850.6454   19460846.5344
      3181.4974       2479.0894
  -5220764.41649  -4024325.37546  19898059.0204   19898072.8394   19898062.2474
      8017.0194       6247.0284
  -3455531.89149  -2637523.95145  19910554.4984   19910555.8944   19910554.0284
      8836.6844       6885.7284
 -15259621.13349 -11865895.16647  18669700.6504   18669703.2674   18669699.8404
      3924.8924       3058.3574
 -12107443.41549  -9399184.93247  18231965.2814   18231971.1924   18231965.1034
      4118.4934       3209.2154
 05  4 25 13 41 14.9890000  0  9G 4G25G 5G 1G 7G30G23G20G24
 -20440500.99549 -15901218.60847  17434498.5664   17434503.3674   17434498.4464
      7030.1764       5478.0594
 -20373361.32549 -14711845.07546  20761279.8294   20761279.8594   20761277.5544
      7254.6404       5652.9664
 -20358030.60349 -15354903.06946  19137195.3834   19137203.4074   19137194.9884
      5275.7034       4110.9374
 -14579172.99149 -11333214.20146  20418789.2454   20418797.7724   20418787.9704
      3718.7164       2897.7014
 -11867242.57949  -9236169.15947  19451766.8064   19451777.4114   19451770.0084
      3177.4064       2475.9014
  -5340962.23449  -4117985.98346  19875189.8514   19875200.1734   19875192.2664
      8009.2614       6240.9834
  -3588041.02649  -2740777.83145  19885339.3244   19885340.4664   19885339.1374
      8831.1964       6881.4514
 -15318442.17449 -11911729.77747  18658508.2834   18658510.7194   18658506.2174
      3917.8674       3052.8834
 -12169178.08749  -9447289.86047  18220216.8664   18220223.4744   18220216.7874
      4112.7604       3204.7484
 05  4 25 13 41 29.9890000  0  9G 4G25G 5G 1G 7G30G23G20G24
 -20545896.37849 -15983344.87847  17414442.1754   17414447.3474   17414442.5124
      7022.5764       5472.1374
 -20482128.26749 -14796598.56146  20740583.3834   20740581.8404   20740579.9994
      7247.5514       5647.4424
 -20437099.42449 -15416515.13346  19122149.2424   19122158.3604   19122147.6774
      5266.7914       4103.9934
 -14634906.53049 -11376642.93246  20408183.5784   20408192.8024   20408182.7324
      3712.4254       2892.7994
 -11914874.39449  -9273284.77846  19442705.2714   19442710.4534   19442701.4784
      3173.3924       2472.7734
  -5461043.93849  -4211556.01046  19852344.5054   19852349.4424   19852344.7204
      8001.5664       6234.9864
  -3720467.83449  -2843967.55945  19860139.1544   19860141.2044   19860138.0564
      8825.7124       6877.1784
 -15377158.13349 -11957482.49047  18647332.4934   18647337.0804   18647331.2224
      3910.8994       3047.4544
 -12230827.23949  -9495328.14847  18208485.3964   18208492.0834   18208485.3234
      4107.1214       3200.3544
 05  4 25 13 41 44.9890000  0  9G 4G25G 5G 1G 7G30G23G20G24
 -20651176.94849 -16065381.68647  17394407.9794   17394413.3004   17394408.4064
      7014.7314       5466.0244
 -20590787.91149 -14881268.37746  20719905.6294   20719904.0804   20719902.5214
      7240.1924       5641.7084
 -20516033.48049 -15478022.25246  19107127.9804   19107135.5904   19107130.3854
      5257.5794       4096.8154
 -14690544.67449 -11419997.35546  20397595.9534   20397604.7784   20397595.0644
      3705.8474       2887.6734
 -11962445.05449  -9310352.89747  19433652.3834   19433661.3484   19433654.5674
      3169.1034       2469.4314
  -5581009.20749  -4305035.38046  19829518.7384   19829519.2744   19829517.2484
      7993.5614       6228.7494
  -3852811.73049  -2947092.68245  19834954.9734   19834957.6064   19834954.0294
      8819.9164       6872.6624
 -15435769.20349 -12003153.43846  18636174.7974   18636183.1894   18636174.5394
      3903.7164       3041.8574
 -12292390.84049  -9543299.77247  18196769.8214   18196777.1334   18196770.0804
      4101.1604       3195.7094
 05  4 25 13 41 59.9890000  0  9G 4G25G 5G 1G 7G30G23G20G24
 -20756342.86449 -16147329.16747  17374396.0894   17374400.9734   17374396.2484
      7007.1434       5460.1114
 -20699340.57249 -14965854.87446  20699247.9654   20699247.0924   20699245.6534
      7233.1194       5636.1974
 -20594833.25649 -15539424.67346  19092135.0384   19092141.5994   19092134.1314
      5248.6714       4089.8744
 -14746087.88549 -11463277.80446  20387026.5984   20387034.8874   20387025.8824
      3699.5354       2882.7554
 -12009955.01849  -9347373.65146  19424612.3654   19424617.4574   19424611.1154
      3165.0984       2466.3104
  -5700857.82149  -4398423.86946  19806710.9454   19806712.9054   19806709.3354
      7985.8234       6222.7194
  -3985072.59449  -3050153.08545  19809786.1854   19809790.1614   19809785.3494
      8814.4694       6868.4174
 -15494275.66349 -12048742.89046  18625040.9964   18625048.3984   18625042.5244
      3896.8014       3036.4684
 -12353869.25849  -9591205.02247  18185070.9354   18185078.6364   18185071.3514
      4095.5594       3191.3454
 05  4 25 13 42 14.9890000  0  9G 4G25G 5G 1G 7G30G23G20G24
 -20861391.96049 -16229185.59447  17354405.5274   17354410.7494   17354405.6834
      6999.4174       5454.0914
 -20807784.00249 -15050356.25546  20678612.2494   20678611.3644   20678610.7964
      7225.9054       5630.5754
 -20673496.60849 -15600720.75446  19077166.3804   19077171.0374   19077165.9984
      5239.6844       4082.8714
 -14801534.45549 -11506482.90446  20376475.2964   20376482.5754   20376474.7624
      3693.2264       2877.8384
 -12057402.74549  -9384345.89647  19415585.1164   19415590.5934   19415583.8914
      3161.0684       2463.1704
  -5820587.43049  -4491719.61546  19783924.6514   19783929.6014   19783923.2534
      7977.9414       6216.5774
  -4117248.05849  -3153146.91945  19784633.5454   19784637.4344   19784632.8184
      8808.8504       6864.0394
 -15552675.67449 -12094249.42746  18613931.9524   18613934.5134   18613932.1334
      3889.7854       3031.0014
 -12415260.76449  -9639042.55447  18173388.5994   18173396.0934   18173389.0514
      4089.8644       3186.9074
 05  4 25 13 42 29.9890000  0  9G 4G25G 5G 1G 7G30G23G20G24
 -20966328.04049 -16310953.96447  17334436.6204   17334442.1374   17334436.9044
      6991.8604       5448.2034
 -20916121.90549 -15134775.43146  20657997.0854   20657995.6944   20657994.0474
      7218.8744       5625.0974
 -20752027.63949 -15661913.73146  19062223.4264   19062226.5214   19062221.8594
      5230.8544       4075.9904
 -14856888.68949 -11549616.14846  20365941.2824   20365947.5674   20365940.9984
      3687.0384       2873.0174
 -12104792.07849  -9421272.70847  19406565.6304   19406570.5104   19406566.3074
      3157.1444       2460.1124
  -5940201.63549  -4584925.45946  19761159.0064   19761166.7484   19761159.6164
      7970.2454       6210.5814
  -4249341.66049  -3256076.96345  19759497.1284   19759501.4934   19759496.8914
      8803.3614       6859.7624
 -15610973.42649 -12139676.30446  18602841.2914   18602841.1874   18602839.9184
      3882.9654       3025.6874
 -12476569.15949  -9686815.33447  18161722.6404   18161729.3704   18161722.3464
      4084.3184       3182.5854
 05  4 25 13 42 44.9890000  0  9G 4G25G 5G 1G 7G30G23G20G24
 -21071145.79049 -16392630.14047  17314490.3614   17314495.3984   17314490.9774
      6984.2344       5442.2604
 -21024348.78849 -15219108.10746  20637401.8054   20637400.8164   20637399.4264
      7211.7354       5619.5344
 -20830421.30649 -15722999.74347  19047305.0274   19047308.8724   19047305.5254
      5221.9694       4069.0674
 -14912145.65849 -11592673.61146  20355425.0904   20355431.3994   20355424.7104
      3680.7964       2868.1534
 -12152118.29149  -9458150.28047  19397560.0814   19397567.7734   19397557.5404
      3153.1874       2457.0294
  -6059695.01749  -4678037.17846  19738419.8794   19738427.6464   19738421.5534
      7962.4914       6204.5384
  -4381347.86349  -3358938.93245  19734377.2994   19734381.9734   19734377.9984
      8797.7724       6855.4074
 -15669164.05749 -12185019.70346  18591767.5344   18591769.5864   18591765.8824
      3876.0844       3020.3254
 -12537789.59849  -9734519.58247  18150073.2004   18150079.6774   18150072.3924
      4078.7124       3178.2174
 05  4 25 13 42 59.9890000  0  9G 4G25G 5G 1G 7G30G23G20G24
 -21175847.76749 -16474216.09847  17294566.8824   17294571.3494   17294567.1014
      6976.4154       5436.1674
 -21132467.36149 -15303356.44046  20616826.0204   20616826.4814   20616823.7684
      7204.4214       5613.8354
 -20908680.41749 -15783980.88446  19032413.3414   19032417.8024   19032413.1144
      5212.8914       4061.9934
 -14967308.22349 -11635657.47946  20344926.1744   20344933.6724   20344927.1124
      3674.4724       2863.2254
 -12199384.12149  -9494980.81747  19388565.3984   19388570.3814   19388565.5824
      3149.1444       2453.8784
  -6179070.16249  -4771056.77446  19715707.1494   19715710.8954   19715708.0434
      7954.4584       6198.2794
  -4513268.99149  -3461734.61145  19709273.1974   19709279.1124   19709273.5384
      8792.0134       6850.9194
 -15727250.70449 -12230282.02246  18580710.5314   18580717.0414   18580708.9564
      3869.0904       3014.8754
 -12598924.92749  -9782157.50147  18138439.4834   18138445.8724   18138439.3084
      4072.9684       3173.7414
 05  4 25 13 43 14.9890000  0  9G 4G25G 5G 1G 7G30G23G20G24
 -21280432.29049 -16555710.53347  17274665.4004   17274669.9274   17274665.4984
      6968.3564       5429.8884
 -21240475.63549 -15387518.88246  20596272.4924   20596274.2274   20596269.9914
      7196.7864       5607.8854
 -20986803.28749 -15844855.92547  19017546.0894   19017553.5384   19017547.2724
      5203.6064       4054.7584
 -15022374.73349 -11678566.41346  20334444.9464   20334454.8634   20334447.4914
      3667.8044       2858.0294
 -12246588.01449  -9531763.08547  19379580.6524   19379590.6694   19379581.7274
      3144.7324       2450.4414
  -6298324.73849  -4863982.33546  19693016.3364   19693018.7124   19693015.3524
      7946.1834       6191.8314
  -4645103.00549  -3564462.41345  19684186.3824   19684192.4354   19684186.5364
      8786.0044       6846.2374
 -15785231.73249 -12275462.01746  18569672.4484   18569685.0104   18569674.0954
      3861.8244       3009.2144
 -12659973.58949  -9829727.88547  18126822.2234   18126828.4044   18126821.9864
      4066.9424       3169.0464
 05  4 25 13 43 29.9890000  0  9G 4G25G 5G 1G 7G30G23G20G24
 -21384900.19049 -16637114.10147  17254786.0514   17254790.2284   17254785.8614
      6960.5344       5423.7934
 -21348374.17349 -15471595.66846  20575739.7624   20575742.0464   20575736.2884
      7189.3964       5602.1274
 -21064791.13249 -15905625.75346  19002705.0094   19002710.8554   19002704.7194
      5194.5644       4047.7124
 -15077346.85649 -11721401.85546  20323982.1064   20323994.0144   20323986.1884
      3661.5044       2853.1204
 -12293731.48949  -9568498.22347  19370611.8544   19370617.5084   19370610.9464
      3140.6704       2447.2754
  -6417459.77949  -4956814.78446  19670345.9044   19670348.8984   19670345.2484
      7938.1824       6185.5964
  -4776850.60849  -3667122.86646  19659116.5364   19659122.2404   19659115.8854
      8780.1244       6841.6554
 -15843108.35149 -12320560.68546  18558661.6424   18558670.3134   18558662.8694
      3854.8034       3003.7434
 -12720936.89149  -9877231.77047  18115221.1144   18115227.3594   18115220.9534
      4061.2374       3164.6004
 05  4 25 13 43 44.9880000  0  9G 4G25G 5G 1G 7G30G23G20G24
 -21489242.20949 -16718419.56647  17234930.0844   17234934.7054   17234930.4944
      6952.6924       5417.6824
 -21456153.45049 -15555579.43146  20555228.2814   20555232.2474   20555226.7324
      7181.9814       5596.3494
 -21142636.59849 -15966284.67546  18987889.0574   18987896.8214   18987891.4494
      5185.4994       4040.6484
 -15132219.06149 -11764159.50846  20313539.8874   20313552.1504   20313544.1544
      3655.1474       2848.1664
 -12340809.31649  -9605182.28447  19361653.1474   19361661.3084   19361653.2344
      3136.5944       2444.0994
  -6536464.87349  -5049546.02846  19647698.6484   19647704.6084   19647697.8954
      7930.0704       6179.2754
  -4908500.37749  -3769707.08146  19634064.9794   19634070.0374   19634064.2244
      8774.2494       6837.0774
 -15900874.81149 -12365573.54647  18547674.1984   18547675.9624   18547673.5294
      3847.8354       2998.3134
 -12781808.62549  -9924664.29747  18103637.0874   18103643.5284   18103637.0864
      4055.4814       3160.1154
 05  4 25 13 43 59.9880000  0  9G 4G25G 5G 1G 7G30G23G20G24
 -21593474.19549 -16799639.29047  17215095.1034   17215099.9114   17215095.4834
      6945.1134       5411.7764
 -21563830.19149 -15639483.44446  20534735.4694   20534743.3644   20534734.3164
      7174.9094       5590.8384
 -21220352.27849 -16026842.37246  18973102.3284   18973109.2984   18973103.6004
      5176.7154       4033.8044
 -15187000.71549 -11806846.52046  20303116.7014   20303128.5884   20303120.3684
      3649.1384       2843.4844
 -12387829.97449  -9641821.76547  19352705.1654   19352710.8594   19352703.8314
      3132.8694       2441.1974
  -6655357.59149  -5142189.74646  19625072.3904   19625079.8354   19625072.7284
      7922.3334       6173.2464
  -5040071.66149  -3872230.12946  19609029.0514   19609033.5004   19609027.3384
      8768.6904       6832.7454
 -15958541.07649 -12410508.36147  18536702.4854   18536700.4764   18536700.6214
      3841.1294       2993.0884
 -12842599.11849  -9972033.52147  18092068.6814   18092075.0944   18092068.6794
      4050.0404       3155.8754
 05  4 25 13 44 14.9880000  0  9G 4G25G 5G 1G 7G30G23G20G24
 -21697586.17049 -16880765.49747  17195283.2574   17195288.5014   17195283.3564
      6936.8724       5405.3554
 -21671394.13449 -15723299.71646  20514265.3564   20514275.2934   20514265.1774
      7167.2174       5584.8444
 -21297930.10449 -16087292.69346  18958340.2594   18958343.3944   18958341.1664
      5167.3364       4026.4964
 -15241685.42149 -11849457.96646  20292712.0334   20292722.3924   20292714.3874
      3642.4284       2838.2564
 -12434787.61849  -9678412.13047  19343770.0194   19343777.4414   19343770.7224
      3128.4114       2437.7234
  -6774126.63949  -5234737.08246  19602470.5624   19602478.5274   19602471.0594
      7913.8144       6166.6084
  -5171552.20349  -3974682.47546  19584010.1114   19584012.5674   19584007.5234
      8762.3724       6827.8224
 -16016100.57649 -12455359.97146  18525747.8004   18525747.5974   18525745.6014
      3833.7894       2987.3684
 -12903301.52649 -10019334.10547  18080517.3714   18080523.4794   18080517.3764
      4043.9424       3151.1244
 05  4 25 13 44 29.9880000  0  9G 4G25G 5G 1G 7G30G23G20G24
 -21801580.67649 -16961800.18047  17175493.2734   17175499.0944   17175493.6434
      6928.9144       5399.1544
 -21778847.54949 -15807029.87446  20493816.6374   20493828.2924   20493816.5534
      7159.6584       5578.9544
 -21375372.99549 -16147637.78646  18943604.6184   18943610.0494   18943604.6334
      5158.2694       4019.4304
 -15296276.44149 -11891996.44146  20282325.8134   20282334.1484   20282325.7504
      3636.1154       2833.3364
 -12481685.21249  -9714955.71447  19334844.7464   19334850.1374   19334844.2014
      3124.3394       2434.5504
  -6892774.80349  -5327190.28246  19579893.6934   19579897.6784   19579894.2144
      7905.6444       6160.2424
  -5302944.45749  -4077066.04846  19559006.7064   19559008.9824   19559004.2774
      8756.4164       6823.1814
 -16073556.45749 -12500130.78646  18514808.2864   18514816.3174   18514807.7164
      3826.8204       2981.9384
 -12963918.85349 -10066568.39847  18068982.4924   18068988.6444   18068982.6344
      4038.1814       3146.6354
 05  4 25 13 44 44.9880000  0  9G 4G25G 5G 1G 7G30G23G20G24
 -21905458.13849 -17042743.67247  17155726.4144   17155731.8914   17155726.7734
      6921.4184       5393.3134
 -21886189.95749 -15890673.13546  20473388.2814   20473402.1044   20473388.3324
      7152.6254       5573.4744
 -21452681.41949 -16207878.15246  18928892.9604   18928896.0374   18928894.2974
      5149.5024       4012.5994
 -15350774.16649 -11934462.08546  20271955.7514   20271963.4244   20271954.8464
      3630.2464       2828.7634
 -12528523.43849  -9751452.96647  19325932.5954   19325940.0754   19325931.8624
      3120.6544       2431.6784
  -7011302.13749  -5419549.32746  19557338.5424   19557341.9284   19557338.6024
      7897.8344       6154.1564
  -5434248.45949  -4179380.84945  19534019.2194   19534021.1834   19534017.7644
      8750.7294       6818.7504
 -16130909.34649 -12544821.32846  18503891.8684   18503903.9534   18503894.0994
      3820.1954       2976.7754
 -13024451.56449 -10113736.76047  18057464.6504   18057469.7744   18057464.1214
      4032.7844       3142.4294
 05  4 25 13 44 59.9880000  0  9G 4G25G 5G 1G 7G30G23G20G24
 -22009215.09149 -17123593.24047  17135982.3914   17135987.4764   17135982.5934
      6913.0974       5386.8294
 -21993418.42849 -15974227.59446  20452982.9544   20452995.0264   20452983.9434
      7144.6864       5567.2884
 -21529852.14449 -16268011.12646  18914208.9134   18914214.0434   18914209.1714
      5140.0704       4005.2494
 -15405175.83249 -11976852.98646  20261604.6824   20261610.4534   20261604.0264
      3623.5364       2823.5354
 -12575299.16449  -9787901.65547  19317030.1174   19317036.6904   19317030.8114
      3116.2014       2428.2094
  -7129704.81849  -5511811.27746  19534807.2454   19534812.0264   19534808.3944
      7889.2744       6147.4864
  -5565460.51349  -4281623.99845  19509048.7144   19509052.5534   19509047.5974
      8744.3494       6813.7784
 -16188156.01649 -12589429.12647  18493004.0624   18493012.0384   18493004.4084
      3812.8564       2971.0574
 -13084896.55449 -10160836.76447  18045962.7954   18045968.0274   18045962.0004
      4026.6974       3137.6864
 05  4 25 13 45 14.9880000  0  9G 4G25G 5G 1G 7G30G23G20G24
 -22112853.74849 -17204350.63947  17116260.6654   17116265.7134   17116260.9664
      6905.4104       5380.8394
 -22100535.75349 -16057695.67246  20432599.8324   20432611.4064   20432600.1094
      7137.4694       5561.6644
 -21606887.62549 -16328038.77447  18899549.0744   18899555.4104   18899549.5804
      5131.2804       3998.4004
 -15459484.03749 -12019170.97546  20251271.3244   20251275.5844   20251270.3204
      3617.5194       2818.8464
 -12622015.13349  -9824303.70747  19308141.6034   19308148.5724   19308140.4614
      3112.3764       2425.2284
  -7247984.93449  -5603977.67346  19512299.4394   19512305.6104   19512299.8294
      7881.2724       6141.2514
  -5696582.68549  -4383797.11245  19484095.0484   19484100.8294   19484094.8144
      8738.5374       6809.2504
 -16245299.15649 -12633956.27147  18482134.9314   18482136.8834   18482133.0194
      3806.1384       2965.8224
 -13145256.32049 -10207870.35747  18034476.5474   18034482.2714   18034475.6984
      4021.1884       3133.3934
 05  4 25 13 45 29.9880000  0  9G 4G25G 5G 1G 7G30G23G20G24
 -22216372.82849 -17285014.85247  17096561.7274   17096566.7934   17096561.8154
      6897.2624       5374.4904
 -22207540.15649 -16141075.71846  20412238.9294   20412248.0214   20412239.8234
      7129.8084       5555.6944
 -21683787.08949 -16387960.52546  18884915.4434   18884919.1804   18884914.1894
      5121.9834       3991.1554
 -15513697.89749 -12061415.50146  20240955.5564   20240958.6264   20240954.4944
      3611.0724       2813.8224
 -12668670.13749  -9860658.34147  19299264.0154   19299270.0344   19299264.2614
      3108.1994       2421.9734
  -7366141.12449  -5696047.47946  19489816.0144   19489822.8574   19489816.4404
      7872.8774       6134.7094
  -5827613.50049  -4485899.03745  19459159.4504   19459166.6644   19459159.6804
      8732.2804       6804.3744
 -16302337.85849 -12678402.04247  18471280.6714   18471280.0974   18471278.1064
      3799.0264       2960.2804
 -13205529.94849 -10254836.82747  18023006.0294   18023012.7224   18023005.9044
      4015.3174       3128.8184
 05  4 25 13 45 44.9880000  0  9G 4G25G 5G 1G 7G30G23G20G24
 -22319770.99749 -17365584.87447  17076885.5364   17076890.7604   17076885.6324
      6889.1804       5368.1924
 -22314430.10249 -16224366.67546  20391899.7704   20391907.0504   20391900.7584
      7122.0914       5549.6814
 -21760548.68449 -16447774.71646  18870306.4854   18870312.8864   18870306.3594
      5112.7594       3983.9684
 -15567816.38949 -12103585.71346  20230657.6194   20230659.8634   20230656.2974
      3604.6964       2808.8544
 -12715263.18649  -9896964.62147  19290397.4944   19290403.3524   19290396.6154
      3104.0514       2418.7414
  -7484171.75749  -5788019.42646  19467355.9184   19467362.7554   19467355.7424
      7864.4124       6128.1134
  -5958551.06149  -4587928.27845  19434243.7494   19434248.5464   19434243.5594
      8725.9854       6799.4694
 -16359270.96349 -12722765.51046  18460442.5234   18460444.5314   18460439.9384
      3791.9824       2954.7914
 -13265716.23249 -10301735.24247  18011552.3284   18011559.9324   18011552.6594
      4009.4684       3124.2614
 05  4 25 13 45 59.9880000  0  9G 4G25G 5G 1G 7G30G23G20G24
 -22423050.20049 -17446062.17447  17057231.9014   17057237.0374   17057232.1204
      6881.3364       5362.0804
 -22421207.36549 -16307569.73846  20371582.6874   20371587.1794   20371582.8714
      7114.6894       5543.9144
 -21837175.09049 -16507483.57246  18855724.9784   18855732.2744   18855721.2444
      5103.8814       3977.0504
 -15621842.08249 -12145683.77346  20220377.7674   20220380.2794   20220377.0814
      3598.5594       2804.0724
 -12761796.61649  -9933224.47247  19281542.9554   19281549.8324   19281542.6384
      3100.1394       2415.6934
  -7602078.70449  -5879894.95946  19444918.3344   19444925.6124   19444917.9744
      7856.2604       6121.7614
  -6089397.30649  -4689886.34045  19409343.6714   19409348.7244   19409344.1444
      8720.0324       6794.8304
 -16416101.08749 -12767048.69146  18449620.7124   18449629.7234   18449622.5244
      3785.1974       2949.5044
 -13325817.46449 -10348567.41147  18000115.3924   18000123.2564   18000115.4384
      4003.8684       3119.8974
 05  4 25 13 46 14.9880000  0  9G 4G25G 5G 1G 7G30G23G20G24
 -22526205.70749 -17526443.09547  17037601.7344   17037606.9244   17037602.3354
      6872.5974       5355.2704
 -22527867.29749 -16390681.33146  20351288.4084   20351289.4754   20351288.0234
      7106.3844       5537.4424
 -21913661.77449 -16567083.58846  18841170.2294   18841177.4164   18841168.5594
      5094.1014       3969.4294
 -15675770.12049 -12187705.58746  20210117.4194   20210118.5854   20210115.6354
      3591.6394       2798.6804
 -12808265.95949  -9969434.36547  19272698.2764   19272704.9224   19272698.8504
      3095.4224       2412.0174
  -7719857.08249  -5971670.34446  19422504.7144   19422512.7454   19422505.4694
      7847.2484       6114.7394
  -6220147.14949  -4791769.29345  19384464.2924   19384468.0494   19384465.3074
      8713.0874       6789.4184
 -16472823.59749 -12811248.05346  18438829.2354   18438837.4994   18438831.1774
      3777.5974       2943.5824
 -13385829.27449 -10395329.91447  17988695.3954   17988703.3914   17988695.4924
      3997.4814       3114.9204
 05  4 25 13 46 29.9880000  0  9G 4G25G 5G 1G 7G30G23G20G24
 -22629215.08049 -17606710.14447  17017999.6064   17018005.6374   17018000.0614
      6862.5244       5347.4214
 -22634387.46149 -16473683.92646  20331020.3194   20331019.0474   20331018.3254
      7096.7994       5529.9734
 -21989986.73449 -16626557.68646  18826646.4404   18826652.4354   18826645.9064
      5082.9734       3960.7584
 -15729578.96849 -12229634.66646  20199879.4884   20199879.7364   20199877.5324
      3583.3834       2792.2464
 -12854649.27449 -10005577.18547  19263872.8514   19263879.9604   19263872.0154
      3089.3944       2407.3204
  -7837484.40449  -6063327.99646  19400119.9644   19400126.4574   19400120.9354
      7836.8224       6106.6154
  -6350778.17849  -4893559.71445  19359607.7604   19359608.3274   19359607.8284
      8704.8434       6782.9954
 -16529416.48049 -12855346.41447  18428066.6864   18428070.2904   18428066.3394
      3768.6284       2936.5934
 -13445729.33049 -10442005.28347  17977297.0264   17977304.3914   17977296.9674
      3989.7094       3108.8644
 05  4 25 13 46 44.9880000  0  9G 4G25G 5G 1G 7G30G23G20G24
 -22732092.99849 -17686874.76947  16998422.7164   16998428.5854   16998422.9824
      6855.2124       5341.7244
 -22740782.53349 -16556589.15446  20310775.1384   20310772.5484   20310773.2754
      7089.8284       5524.5414
 -22066164.31449 -16685916.73746  18812151.2684   18812154.0174   18812150.6544
      5074.6274       3954.2554
 -15783283.30949 -12271482.28046  20189659.7084   20189661.3734   20189657.2734
      3577.8324       2787.9214
 -12900961.32349 -10041664.51147  19255059.1364   19255065.1704   19255060.1724
      3086.0464       2404.7114
  -7954974.91549  -6154879.01646  19377763.3894   19377770.0714   19377764.1834
      7829.1024       6100.5994
  -6481304.53949  -4995268.58645  19334771.5694   19334769.2344   19334769.3114
      8699.2844       6778.6634
 -16585894.75749 -12899355.46347  18417321.9594   18417323.9154   18417320.0564
      3762.4104       2931.7484
 -13505532.56449 -10488605.23147  17965917.0634   17965924.0984   17965916.9014
      3984.6744       3104.9414
 05  4 25 13 46 59.9880000  0  9G 4G25G 5G 1G 7G30G23G20G24
 -22834870.96149 -17766961.50247  16978864.6784   16978870.3604   16978865.2384
      6848.4634       5336.4654
 -22847083.56649 -16639420.99946  20290547.6094   20290544.0194   20290545.0234
      7083.5124       5519.6204
 -22142226.23549 -16745185.58446  18797676.5814   18797681.0934   18797677.0924
      5066.8214       3948.1724
 -15836915.14249 -12313273.43846  20179453.8804   20179456.4354   20179452.4234
      3572.9254       2784.0974
 -12947234.03049 -10077721.14847  19246254.5954   19246261.1594   19246253.7434
      3083.4314       2402.6744
  -8072360.26449  -6246348.17846  19355427.6534   19355431.5824   19355427.6694
      7822.0094       6095.0724
  -6611757.36449  -5096920.10745  19309948.8884   19309944.5724   19309946.8424
      8694.2834       6774.7664
 -16642290.33049 -12943300.06747  18406588.6644   18406591.0204   18406586.8294
      3756.8384       2927.4064
 -13565270.73749 -10535154.48647  17954548.7274   17954556.0984   17954548.8984
      3980.2694       3101.5084
 05  4 25 13 47 14.9880000  0  9G 4G25G 5G 1G 7G30G23G20G24
 -22937547.81549 -17846969.44547  16959326.4774   16959331.5944   16959326.8304
      6841.3464       5330.9194
 -22953289.78949 -16722179.04546  20270337.7624   20270333.1604   20270335.0974
      7076.8364       5514.4184
 -22218172.11649 -16804364.11946  18783225.4694   18783226.7984   18783225.4874
      5058.7544       3941.8864
 -15890473.57149 -12355007.32546  20169262.6694   20169266.6354   20169261.2854
      3567.6984       2780.0244
 -12993466.68249 -10113746.63347  19237457.4244   19237462.4694   19237457.4484
      3080.3634       2400.2834
  -8189639.08649  -6337734.29046  19333110.9804   19333113.7014   19333110.5464
      7814.5464       6089.2574
  -6742135.41149  -5198513.38345  19285139.4944   19285131.7154   19285137.3544
      8688.9394       6770.6024
 -16698602.44249 -12987179.61246  18395867.7684   18395873.0364   18395866.6254
      3750.9304       2922.8024
 -13624943.18349 -10581652.51347  17943193.7424   17943200.5404   17943193.6914
      3975.5514       3097.8324
 05  4 25 13 47 29.9880000  0  9G 4G25G 5G 1G 7G30G23G20G24
 -23040112.42849 -17926889.92047  16939809.0654   16939814.2954   16939809.2204
      6833.7884       5325.0304
 -23059389.81749 -16804854.36946  20250146.7484   20250143.0814   20250144.2714
      7069.5994       5508.7784
 -22293991.31749 -16863444.19246  18768796.6174   18768802.6244   18768796.6664
      5050.2044       3935.2244
 -15943948.15449 -12396676.01846  20159086.5874   20159092.6814   20159085.6614
      3562.0034       2775.5874
 -13039648.34949 -10149732.35647  19228669.1614   19228674.8744   19228668.5924
      3076.8744       2397.5644
  -8306799.76749  -6429028.29546  19310814.3114   19310819.6304   19310814.2524
      7806.5754       6083.0454
                  -5300039.54545  19260345.2424
      8683.0834       6766.0394
 -16754820.32349 -13030985.70746  18385165.9904   18385173.9304   18385167.9104
      3744.5594       2917.8384
 -13684538.93649 -10628090.77447  17931852.5854   17931859.7064   17931853.0004
      3970.3134       3093.7504
 05  4 25 13 47 44.9870000  0  9G 4G25G 5G 1G 7G30G23G20G24
 -23142553.80249 -18006714.36147  16920314.9554   16920320.3524   16920315.0054
      6826.0694       5319.0154
 -23165372.46249 -16887438.32646  20229977.5894   20229974.9084   20229975.2534
      7062.3874       5503.1594
 -22369673.93949 -16922417.65546  18754395.2764   18754400.8574   18754394.8484
      5041.4584       3928.4094
 -15997331.00149 -12438273.06246  20148927.8854   20148934.9114   20148926.9984
      3556.2114       2771.0744
 -13085772.08149 -10185672.97647  19219892.9914   19219899.0274   19219892.0054
      3073.3014       2394.7804
  -8423830.26149  -6520220.87946  19288541.7954   19288550.1544   19288543.2744
      7798.4674       6076.7284
  -7002619.79449  -5401488.28045  19235569.3404   19235568.0674
      8677.1024       6761.3784
 -16810936.16749 -13074712.34246  18374491.7214   18374495.5094   18374492.5554
      3738.0604       2912.7744
 -13744049.91249 -10674462.97647  17920528.4634   17920535.0754   17920528.2534
      3965.0134       3089.6214
 05  4 25 13 47 59.9870000  0  9G 4G25G 5G 1G 7G30G23G20G24
 -23244882.84749 -18086451.27947  16900842.1544   16900848.0204   16900842.7034
      6817.7854       5312.5604
 -23271248.67449 -16969939.20446  20209828.9234   20209828.1414   20209826.6704
      7054.4934       5497.0084
 -22445227.93449 -16981290.94146  18740015.4914   18740022.3604   18740016.0904
      5032.2884       3921.2634
 -16050627.23649 -12479802.62446  20138785.9004   20138792.6174   20138785.4284
      3549.8434       2766.1114
 -13131841.64349 -10221571.33846  19211125.4044   19211130.4004   19211125.0064
      3069.1394       2391.5374
  -8540743.32549  -6611321.96446  19266293.6714   19266302.8364   19266295.3884
      7789.8024       6069.9754
  -7132727.35149  -5502870.80945  19210809.2194   19210810.3314   19210810.1784
      8670.5104       6756.2424
 -16866955.15649 -13118363.53246  18363836.1904   18363837.3374   18363835.3394
      3731.0324       2907.2984
 -13803481.63749 -10720773.41847  17909219.1824   17909226.1074   17909219.1524
      3959.1424       3085.0464
 05  4 25 13 48 14.9870000  0  9G 4G25G 5G 1G 7G30G23G20G24
 -23347088.77049 -18166092.25447  16881393.0354   16881398.8154   16881393.4024
      6809.5454       5306.1394
 -23377007.58849 -17052348.67846  20189702.5764   20189702.5534   20189700.1484
      7046.5864       5490.8464
 -22520644.70649 -17040057.32746  18725665.5924   18725671.7304   18725663.6144
      5023.1294       3914.1264
 -16103829.63049 -12521259.00746  20128661.4434   20128669.9924   20128660.9134
      3543.5604       2761.2154
 -13177850.35649 -10257422.27947  19202370.2524   19202378.5984   19202369.7094
      3065.0384       2388.3414
  -8657527.04649  -6702322.21046  19244072.9814   19244080.3744   19244073.7494
      7781.0504       6063.1564
                  -5604177.19945  19186068.9304   19186071.3974
      8663.9254       6751.1104
 -16922870.16549 -13161933.70647  18353196.8134   18353198.9704   18353195.2084
      3724.0914       2901.8894
 -13862826.66849 -10767016.29547  17897926.6804   17897933.5094   17897926.4224
      3953.3134       3080.5044
 05  4 25 13 48 29.9870000  0  9G 4G25G 5G 1G 7G30G23G20G24
 -23449170.68949 -18245636.60347  16861967.7434   16861973.1204   16861967.8834
      6801.3734       5299.7714
 -23482648.12849 -17134665.90746  20169598.2274   20169600.2654   20169595.4834
      7038.7754       5484.7604
 -22595923.00849 -17098715.78446  18711339.8794   18711345.3364   18711339.6354
      5013.9634       3906.9844
 -16156937.39449 -12562641.54746  20118554.8564   20118563.2264   20118554.0994
      3537.4064       2756.4204
 -13223797.45149 -10293225.24246  19193625.4904   19193631.8884   19193626.7414
      3061.0514       2385.2354
  -8774180.40149  -6793220.87746  19221876.6774   19221881.3494   19221876.4544
      7772.5144       6056.5044
  -7392647.94049  -5705406.39146  19161349.0794   19161351.5334   19161349.4024
      8657.4324       6746.0514
 -16978680.42049 -13205422.22646  18342573.7044   18342579.3974   18342572.0114
      3717.2194       2896.5344
 -13922084.15149 -10813190.95047  17886650.6134   17886657.2924   17886650.5904
      3947.6124       3076.0614
 05  4 25 13 48 44.9870000  0  9G 4G25G 5G 1G 7G30G23G20G24
 -23551126.25449 -18325082.49247  16842566.5814   16842571.6584   16842566.5544
      6792.8604       5293.1384
 -23588168.00549 -17216889.13946  20149516.0124   20149521.5264   20149515.0924
      7030.5534       5478.3534
 -22671061.35149 -17157265.19646  18697042.0934   18697048.3534   18697040.2924
      5004.5564       3899.6544
 -16209949.28549 -12603949.58846  20108467.4984   20108474.7434   20108466.6224
      3530.9424       2751.3834
 -13269681.19949 -10328978.76347  19184894.6804   19184902.9474   19184893.8884
      3056.7914       2381.9154
  -8890700.87749  -6884015.96046  19199703.2834   19199707.4804   19199702.2434
      7763.5654       6049.5314
  -7522457.21449  -5806556.49846  19136648.7024   19136650.7384   19136647.2934
      8650.5584       6740.6944
 -17034384.15949 -13248827.70546  18331966.7114   18331978.5874   18331967.5454
      3710.0524       2890.9504
 -13981252.14849 -10859295.87047  17875390.9344   17875398.3274   17875391.1684
      3941.5304       3071.3224
 05  4 25 13 48 59.9870000  0  9G 4G25G 5G 1G 7G30G23G20G24
 -23652957.40149 -18404431.44947  16823188.5084   16823193.9224   16823188.8114
      6784.7764       5286.8384
 -23693569.08649 -17299019.78346  20129455.8574   20129464.8534   20129457.2854
      7022.9724       5472.4464
 -22746061.75449 -17215707.13946  18682771.3634   18682775.3644   18682771.9794
      4995.5984       3892.6744
 -16262866.99449 -12645184.11946  20098397.7094   20098404.8004   20098396.6324
      3524.9444       2746.7104
 -13315503.63749 -10364684.62846  19176174.9304   19176181.5014   19176174.9214
      3052.8864       2378.8724
  -9007090.15349  -6974708.80946  19177552.8834   19177557.0184   19177553.4894
      7755.0134       6042.8674
  -7652166.52149  -5907628.69746  19111966.9024   19111967.2264   19111965.7514
      8644.1124       6735.6724
 -17089983.56049 -13292151.89046  18321385.5124   18321397.4704   18321388.5344
      3703.2774       2885.6704
 -14040332.77249 -10905332.71147  17864148.1494   17864155.4894   17864148.3994
      3935.9594       3066.9814
 05  4 25 13 49 14.9870000  0  9G 4G25G 5G 1G 7G30G23G20G24
 -23754663.83849 -18483683.21447  16803834.1164   16803839.8524   16803834.5054
      6776.2504       5280.1954
 -23798851.26449 -17381057.93246  20109420.4734   20109429.7164   20109422.6834
      7014.8504       5466.1174
 -22820924.18949 -17274041.67646  18668524.5164   18668532.3424   18668525.1224
      4986.1624       3885.3214
 -16315690.85349 -12686345.52646  20088345.1864   20088351.3024   20088344.0834
      3518.4244       2741.6294
 -13361264.95449 -10400342.75146  19167467.2764   19167473.3394   19167466.5844
      3048.5934       2375.5274
  -9123348.01249  -7065299.36046  19155427.2004   19155433.1744   19155428.8834
      7746.0624       6035.8924
  -7781775.31449  -6008622.56146  19087303.9674   19087304.5284   19087302.3364
      8637.1794       6730.2694
 -17145478.54049 -13335394.76946  18310831.9134   18310834.9664   18310832.6764
      3696.1424       2880.1114
 -14099326.15249 -10951301.58147  17852922.4544   17852929.2094   17852922.0124
      3929.9354       3062.2874
 05  4 25 13 49 29.9870000  0  9G 4G25G 5G 1G 7G30G23G20G24
 -23856245.40949 -18562837.68447  16784503.9414   16784509.4874   16784503.9084
      6768.1314       5273.8684
 -23904013.77949 -17463002.81146  20089409.4884   20089418.7644   20089411.4114
      7007.0344       5460.0264
 -22895648.34949 -17332268.35746  18654306.2784   18654310.1964   18654305.8294
      4977.1534       3878.3014
 -16368420.93749 -12727433.86946  20078310.7264   20078316.9744   20078309.8084
      3512.3604       2736.9044
 -13406965.17449 -10435953.39547  19158770.5104   19158777.6254   19158770.4704
      3044.7504       2372.5324
  -9239473.97649  -7155787.14146  19133329.3914   19133336.0524   19133331.3214
      7737.4704       6029.1974
  -7911283.09749  -6109537.70546  19062657.5264   19062659.3424   19062655.7734
      8630.6454       6725.1784
 -17200869.29549 -13378556.45646  18300296.3494   18300293.9094   18300294.7724
      3689.4064       2874.8624
 -14158232.24049 -10997202.43147  17841713.0814   17841719.2224   17841712.4984
      3924.3314       3057.9204
 05  4 25 13 49 44.9870000  0  9G 4G25G 5G 1G 7G30G23G20G24
 -23957702.97149 -18641895.53847  16765197.3124   16765202.2174   16765197.6164
      6759.6244       5267.2394
 -24009057.56249 -17544855.03146  20069419.9244   20069429.7534   20069421.8404
      6998.8604       5453.6574
 -22970235.47749 -17390388.19246  18640111.3514   18640116.9224   18640109.0364
      4967.7344       3870.9624
 -16421058.56149 -12768450.19046  20068294.8424   20068299.6714   20068293.2264
      3505.9784       2731.9314
 -13452605.46549 -10471517.24946  19150085.6734   19150088.6864   19150084.5774
      3040.5514       2369.2614
  -9355468.64749  -7246172.61946  19111258.8464   19111264.2184   19111260.1634
      7728.4144       6022.1414
  -8040690.60449  -6210374.67746  19038028.3904   19038035.0124   19038026.6334
      8623.7274       6719.7874
 -17256157.14049 -13421637.93346  18289775.6104   18289773.7624   18289773.2984
      3682.3164       2869.3374
 -14217052.18849 -11043036.15347  17830519.7024   17830525.9034   17830519.3164
      3918.3154       3053.2324
 05  4 25 13 49 59.9870000  0  9G 4G25G 5G 1G 7G30G23G20G24
 -24059036.02249 -18720856.36147  16745914.0754   16745919.4934   16745914.3074
      6751.5664       5260.9614
 -24113982.47149 -17626614.81746  20049453.2124   20049462.1924   20049455.3994
      6991.1724       5447.6664
 -23044685.45149 -17448401.17246  18625945.6374   18625950.2044   18625944.9684
      4958.9164       3864.0904
 -16473603.66449 -12809394.47546  20058295.9014   20058299.1024   20058292.8424
      3500.0764       2727.3324
 -13498185.60449 -10507034.24946  19141411.2744   19141419.3724   19141411.4184
      3036.7904       2366.3304
  -9471331.41749  -7336455.27547  19089212.8504   19089217.2454   19089212.3144
      7719.8814       6015.4924
  -8169997.11749  -6311132.99745  19013417.1724   19013428.2884   19013418.4214
      8617.2444       6714.7364
 -17311341.86949 -13464639.02646  18279270.6504   18279273.3104   18279267.7974
      3675.6874       2864.1724
 -14275785.81049 -11088802.60947  17819343.1734   17819349.2304   17819342.5664
      3912.8394       3048.9654
 05  4 25 13 50 14.9870000  0  9G 4G25G 5G 1G 7G30G23G20G24
 -24160243.32249 -18799719.20047  16726654.7094   16726660.2464   16726655.4104
      6743.0824       5254.3504
 -24218787.02249 -17708280.77146  20029509.7504   20029519.4084   20029511.1634
      6983.0364       5441.3274
 -23118997.21749 -17506306.54046  18611801.2704   18611808.4984   18611801.1644
      4949.5484       3856.7914
 -16526055.39149 -12850266.03346  20048313.9934   20048317.7184   20048311.0594
      3493.7574       2722.4084
 -13543704.78749 -10542503.76846  19132749.6004   19132754.9064   19132749.0584
      3032.6234       2363.0834
  -9587060.96949  -7426634.14746  19067190.0244   19067194.6704   19067189.8964
      7710.9164       6008.5064
  -8299201.05648  -6411811.34545  18988821.6424   18988841.1354   18988826.6684
      8610.2634       6709.2964
 -17366422.73849 -13507559.14146  18268781.3254   18268794.1374   18268781.5894
      3668.6704       2858.7044
 -14334432.03549 -11134500.98147  17808183.1194   17808188.9274   17808182.6774
      3906.9224       3044.3554
 05  4 25 13 50 29.9870000  0  9G 4G25G 5G 1G 7G30G23G20G24
 -24261326.57649 -18878485.41447  16707419.8504   16707424.7954   16707420.0054
      6734.8364       5247.9244
 -24323472.71849 -17789854.15246  20009589.6644   20009599.0564   20009590.9464
      6975.0964       5435.1404
 -23193172.56649 -17564105.46946  18597688.5754   18597697.1664   18597687.9004
      4940.5504       3849.7794
 -16578415.70249 -12891066.33746  20038348.1824   20038353.0354   20038346.1414
      3487.6864       2717.6774
 -13589165.01149 -10577927.31846  19124098.7874   19124106.3474   19124098.9994
      3028.7314       2360.0504
  -9702658.66449  -7516710.24246  19045191.5584   19045196.3104   19045190.5764
      7702.1014       6001.6374
  -8428303.93458  -6512410.89755  18964246.2414   18964272.9354   18964256.1884
      8603.8104       6704.2684
 -17421401.52049 -13550399.70346  18258319.6304   18258332.3584   18258321.6664
      3661.9014       2853.4294
 -14392992.81049 -11180132.75947  17797039.0634   17797045.7294   17797039.5224
      3901.2484       3039.9344
 05  4 25 13 50 44.9870000  0  9G 4G25G 5G 1G 7G30G23G20G24
 -24362285.09249 -18957154.41147  16688207.9324   16688213.3234   16688207.8754
      6726.3954       5241.3474
 -24428038.41149 -17871333.75446  19989691.3334   19989700.7064   19989692.7934
      6967.0154       5428.8434
 -23267211.15349 -17621797.99846  18583596.7734   18583604.5904   18583598.6364
      4931.2724       3842.5504
 -16630684.32549 -12931795.21046  20028399.2164   20028405.3164   20028398.2054
      3481.4494       2712.8174
 -13634565.80049 -10613304.58746  19115460.2944   19115465.6744   19115459.9054
      3024.6114       2356.8404
  -9818123.71049  -7606682.98446  19023216.9254   19023223.1514   19023216.6654
      7693.1304       5994.6474
  -8557304.48848  -6612930.73945  18939700.7444   18939726.0604   18939708.2214
      8596.5544       6698.6144
 -17476277.86449 -13593160.51046  18247883.9354   18247888.9114   18247884.0524
      3654.9554       2848.0174
 -14451467.64749 -11225697.56847  17785911.5954   17785918.0964   17785911.7624
      3895.3754       3035.3574
 05  4 25 13 50 59.9870000  0  9G 4G25G 5G 1G 7G30G23G20G24
 -24463117.95349 -19035725.48647  16669019.2664   16669025.2574   16669019.7584
      6718.1814       5234.9464
 -24532484.05149 -17952720.07846  19969816.7424   19969825.6264   19969818.0254
      6959.1614       5422.7234
 -23341112.37049 -17679383.36646  18569536.6314   18569544.0234   18569533.9754
      4922.3014       3835.5594
 -16682860.61249 -12972452.03046  20018467.2394   20018475.9494   20018467.5564
      3475.4914       2708.1754
 -13679906.65049 -10648635.08146  19106832.5374   19106838.1084   19106830.5894
      3020.7684       2353.8454
  -9933455.13749  -7696551.58946  19001269.2224   19001274.9394   19001270.7734
      7684.3974       5987.8424
  -8686201.85249  -6713370.23945  18915180.4364   18915199.3644   18915182.8614
      8589.7514       6693.3124
 -17531051.45849 -13635841.25746  18237464.7164   18237464.2714   18237462.4964
      3648.2944       2842.8264
 -14509856.07849 -11271195.04547  17774800.6824   17774807.1714   17774800.9034
      3889.8064       3031.0184
 05  4 25 13 51 14.9870000  0  9G 4G25G 5G 1G 7G30G23G20G24
 -24563824.90249 -19114198.42147  16649855.9124   16649861.5074   16649856.2554
      6709.5264       5228.2024
 -24636808.64749 -18034011.95646  19949965.9904   19949973.4234   19949965.8384
      6950.8494       5416.2464
 -23414876.07649 -17736861.69446  18555499.8694   18555505.3794   18555500.4724
      4912.8974       3828.2314
 -16734944.75649 -13013037.05845  20008553.6424   20008565.5444   20008556.3474
      3469.1234       2703.2134
 -13725187.62849 -10683919.03246  19098215.3924   19098222.7414   19098215.1244
      3016.6134       2350.6084
 -10048652.48049  -7786315.73946  18979349.4724   18979355.3774   18979350.9604
      7675.1994       5980.6754
  -8814995.42249  -6813728.86245  18890677.3474   18890688.6454   18890677.3884
      8582.6054       6687.7444
 -17585722.35149 -13678441.99846  18227060.9404   18227058.9684   18227058.7684
      3641.1964       2837.2964
 -14568157.91249 -11316625.05547  17763706.1214   17763712.6294   17763706.2064
      3883.8044       3026.3414
 05  4 25 13 51 29.9870000  0  9G 4G25G 5G 1G 7G30G23G20G24
 -24664405.28749 -19192572.72647  16630715.9564   16630721.7234   16630716.0394
      6701.2314       5221.7384
 -24741011.71849 -18115209.25346  19930138.2184   19930144.3274   19930138.1374
      6942.8514       5410.0144
 -23488501.91649 -17794232.50546  18541490.0614   18541495.7344   18541488.9484
      4903.8324       3821.1684
 -16786936.50549 -13053550.14145  19998658.5964   19998672.0194   19998662.0734
      3463.1234       2698.5374
 -13770408.33749 -10719155.93746  19089609.9644   19089614.2944   19089609.6884
      3012.7034       2347.5614
 -10163714.87549  -7875974.70846  18957455.8624   18957459.5594   18957456.5144
      7666.3764       5973.7994
  -8943684.39949  -6914006.00045  18866194.2034   18866197.3344   18866192.6284
      8575.8284       6682.4634
 -17640290.19949 -13720962.39846  18216672.7294   18216674.3164   18216670.4634
      3634.4844       2832.0654
 -14626372.85049 -11361987.34747  17752628.7774   17752635.2804   17752628.0544
      3878.1564       3021.9404
 05  4 25 13 51 44.9870000  0  9G 4G25G 5G 1G 7G30G23G20G24
 -24764860.55349 -19270849.53147  16611599.6914   16611605.5664   16611599.7004
      6693.0134       5215.3354
 -24845094.66349 -18196312.92246  19910332.3664   19910338.3844   19910332.2024
      6934.9794       5403.8804
 -23561991.53749 -17851497.26047  18527505.9894   18527511.2914   18527506.2714
      4894.8744       3814.1884
 -16838837.71549 -13093992.70445  19988784.1224   19988795.5894   19988786.0484
      3457.1784       2693.9054
 -13815570.59049 -10754347.29246  19081015.7324   19081023.5534   19081014.8084
      3008.9384       2344.6274
 -10278643.57749  -7965529.45846  18935586.2464   18935589.4514   18935585.9714
      7657.5614       5966.9314
  -9072269.85149  -7014202.46045  18841729.2684   18841725.6554   18841727.6374
      8568.9944       6677.1384
 -17694756.85149 -13763403.88346  18206300.3704   18206310.7204   18206301.9094
      3627.8764       2826.9164
 -14684502.67849 -11407283.31447  17741567.1144   17741573.5144   17741566.8654
      3872.6114       3017.6194
 05  4 25 13 51 59.9870000  0  9G 4G25G 5G 1G 7G30G23G20G24
 -24865189.28849 -19349027.75147  16592507.6904   16592513.3424   16592508.2004
      6684.6524       5208.8204
 -24949055.85749 -18277321.68946  19890549.5754   19890555.3494   19890549.5864
      6926.9014       5397.5854
 -23635343.21549 -17908654.24846  18513547.1594   18513551.8534   18513544.1034
      4885.7094       3807.0464
 -16890647.08449 -13134363.60745  19978925.9654   19978935.9624   19978927.2854
      3451.0564       2689.1354
 -13860673.12749 -10789492.19246  19072431.9684   19072439.0554   19072431.9344
      3005.0384       2341.5884
 -10393437.08849  -8054978.93046  18913742.0354   18913744.2784   18913741.5174
      7648.5704       5959.9254
  -9200750.04349  -7114316.91046  18817282.2024   18817274.5994   18817280.6994
      8562.0484       6671.7264
 -17749120.96149 -13805765.52246  18195957.5754   18195966.4544   18195960.1764
      3621.0804       2821.6214
 -14742546.02849 -11452511.89947  17730521.8134   17730528.0494   17730521.7104
      3866.8994       3013.1684
 05  4 25 13 52 14.9860000  0  9G 4G25G 5G 1G 7G30G23G20G24
 -24965386.03449 -19427103.13247  16573441.1654   16573446.6394   16573441.6264
      6675.9124       5202.0094
 -25052889.34849 -18358230.87046  19870791.5884   19870796.3304   19870790.9404
      6918.5324       5391.0644
 -23708554.25649 -17965701.84346  18499615.7494   18499622.3874   18499615.2054
      4876.3704       3799.7694
 -16942362.88949 -13174661.52146  19969085.1954   19969095.0064   19969086.0564
      3444.7954       2684.2564
 -13905714.51149 -10824589.32046  19063861.7824   19063868.7914   19063861.9804
      3000.8084       2338.2924
 -10508088.82549  -8144317.96246  18891922.4244   18891926.8324   18891922.0664
      7639.2764       5952.6834
  -9329117.34049  -7214343.37046  18792854.6874   18792847.6984   18792853.1664
      8554.7774       6666.0604
 -17803380.61349 -13848045.78746  18185639.2684   18185643.3424   18185639.6914
      3614.0314       2816.1284
 -14800500.48849 -11497671.20947  17719493.3364   17719499.9614   17719493.4784
      3860.9074       3008.4994
 05  4 25 13 52 29.9860000  0  9G 4G25G 5G 1G 7G30G23G20G24
 -25065462.03949 -19505084.43947  16554397.6074   16554402.8864   16554397.6554
      6667.5504       5195.4934
 -25156607.22449 -18439050.01646  19851055.3004   19851059.1234   19851054.2664
      6910.4804       5384.7904
 -23781632.16649 -18022645.62246  18485707.7154   18485713.8584   18485707.8684
      4867.3144       3792.7124
 -16993990.63349 -13214890.95146  19959261.9174   19959271.1454   19959262.5644
      3438.8454       2679.6194
 -13950699.11449 -10859642.34046  19055301.2594   19055308.6594   19055300.9984
      2996.9864       2335.3144
 -10622611.87249  -8233556.72346  18870126.0864   18870133.3894   18870126.7404
      7630.3204       5945.7044
  -9457386.65349  -7314293.49546  18768445.1814   18768438.9924   18768444.1324
      8547.7494       6660.5844
 -17857541.37049 -13890248.99946  18175335.6634   18175337.7334   18175333.8004
      3607.3554       2810.9264
 -14858372.23449 -11542766.07647  17708480.2724   17708487.0394   17708480.5824
      3855.2644       3004.1024
 05  4 25 13 52 44.9860000  0  9G 4G25G 5G 1G 7G30G23G20G24
 -25165411.90449 -19582967.45847  16535377.9694   16535382.8564   16535378.0604
      6659.2374       5189.0164
 -25260203.73749 -18519774.71846  19831341.2984   19831344.8674   19831340.5994
      6902.4534       5378.5354
 -23854573.75249 -18079483.16946  18471828.1274   18471835.1894   18471827.6384
      4858.2884       3785.6794
 -17045528.09749 -13255050.01946  19949455.5894   19949464.0234   19949455.9234
      3432.9644       2675.0374
 -13995625.31249 -10894649.73646  19046752.9374   19046757.2394   19046752.2044
      2993.1734       2332.3434
 -10736999.44249  -8322689.93446  18848358.3654   18848366.8414   18848360.5364
      7621.3684       5938.7284
  -9585550.17049  -7414161.20446  18744054.9104   18744049.9384   18744054.3034
      8540.8124       6655.1784
 -17911601.10049 -13932373.47946  18165047.2734   18165049.3574   18165045.4154
      3600.6954       2805.7364
 -14916158.71049 -11587794.50647  17697483.6194   17697490.9364   17697484.4354
      3849.7034       2999.7694
 05  4 25 13 52 59.9860000  0  9G 4G25G 5G 1G 7G30G23G20G24
 -25265233.81649 -19660750.79747  16516382.5714   16516387.6454   16516382.8634
      6650.4804       5182.1924
 -25363676.26049 -18600402.49046  19811650.0614   19811653.7054   19811648.8984
      6894.0304       5371.9714
 -23927377.36349 -18136213.31546  18457972.0644   18457980.0584   18457972.6844
      4848.9254       3778.3834
 -17096974.04849 -13295137.80846  19939665.8604   19939674.8474   19939665.6634
      3426.6394       2670.1084
 -14040491.74049 -10929610.61747  19038215.0064   19038222.3764   19038214.6324
      2989.0134       2329.1014
 -10851249.72249  -8411716.13846  18826620.5894   18826626.1084   18826622.0104
      7612.0084       5931.4354
  -9713606.10549  -7513945.07446  18719685.4084   18719681.6654   18719685.4444
      8533.3974       6649.4004
 -17965558.49149 -13974418.20246  18154775.5014   18154779.5744   18154774.2104
      3593.6794       2800.2694
 -14973858.47449 -11632755.38247  17686504.4244   17686511.1344   17686503.9644
      3843.6884       2995.0814
 05  4 25 13 53 14.9860000  0  9G 4G25G 5G 1G 7G30G23G20G24
 -25364928.26249 -19738434.80347  16497411.3384   16497416.5214   16497411.5884
      6641.9734       5175.5634
 -25467026.21849 -18680934.95946  19791981.9384   19791986.1034   19791981.2684
      6885.8264       5365.5794
 -24000043.80649 -18192836.44146  18444144.8864   18444151.5514   18444143.4274
      4839.7804       3771.2574
 -17148329.30049 -13335154.95746  19929893.0154   19929902.0284   19929893.5504
      3420.5594       2665.3714
 -14085299.15049 -10964525.52446  19029688.6894   19029695.4204   19029687.7654
      2985.0544       2326.0164
 -10965363.21549  -8500635.80746  18804908.3384   18804910.7264   18804908.4724
      7602.8774       5924.3204
  -9841554.53449  -7613645.18046  18695337.3854   18695334.3334   18695337.9504
      8526.2314       6643.8164
 -18019414.34449 -14016383.78346  18144521.6484   18144529.0954   18144522.6774
      3586.9714       2795.0424
 -15031472.14049 -11677649.16047  17675541.2814   17675547.7754   17675540.7484
      3837.9714       2990.6274
 05  4 25 13 53 29.9860000  0  9G 4G25G 5G 1G 7G30G23G20G24
 -25464494.44849 -19816018.85747  16478464.1204   16478469.6594   16478464.3354
      6633.4164       5168.8954
 -25570252.07749 -18761370.58646  19772337.9054   19772341.2984   19772337.5644
      6877.4634       5359.0624
 -24072572.44349 -18249352.27746  18430342.2604   18430348.7754   18430343.8794
      4830.6224       3764.1214
 -17199593.28849 -13375100.94146  19920137.3034   19920146.6184   19920137.2004
      3414.4424       2660.6044
 -14130047.03049 -10999394.02146  19021173.0824   19021178.9904   19021173.3944
      2981.0964       2322.9324
 -11079338.68849  -8589447.86446  18783220.3184   18783221.1774   18783219.0344
      7593.6544       5917.1334
  -9969394.43249  -7713260.65846  18671011.4274   18671006.8854   18671011.2134
      8518.9694       6638.1584
 -18073168.16549 -14058269.87546  18134293.3514   18134299.6164   18134296.0194
      3580.0934       2789.6834
 -15088999.18449 -11722475.43047  17664593.9944   17664600.9034   17664593.8344
      3832.1614       2986.0994
 05  4 25 13 53 44.9860000  0 10G 4G25G 2G 5G 1G 7G30G23G20G24
 -25563931.44549 -19893502.28447  16459541.9774   16459547.5674   16459542.4094
      6624.8394       5162.2124
 -25673352.94349 -18841708.71346  19752717.2854   19752721.3984   19752717.7164
      6869.2424       5352.6564
   -485910.33656                  18701639.8654   18701643.8694
      9547.5204       7439.6264
 -24144962.64049 -18305760.24146  18416567.6214   18416572.6124   18416564.7074
      4821.3924       3756.9294
 -17250765.50049 -13414975.40346  19910399.1274   19910408.3334   19910400.3514
      3408.4364       2655.9244
 -14174734.83349 -11034215.72947  19012669.4094   19012676.6924   19012668.6914
      2977.1294       2319.8414
 -11193175.16349  -8678151.65946  18761556.1704   18761557.4404   18761555.4204
      7584.4214       5909.9384
 -10097124.48449  -7812790.52446  18646706.4304   18646701.7404   18646705.2744
      8511.6894       6632.4854
 -18126819.27249 -14100075.96946  18124089.0444   18124091.2024   18124089.4124
      3573.3084       2784.3964
 -15146439.04549 -11767233.77847  17653663.4444   17653670.9514   17653663.0254
      3826.4094       2981.6174
 05  4 25 13 53 59.9860000  0 10G 4G25G 2G 5G 1G 7G30G23G20G24
 -25663240.63849 -19970886.11647  16440644.4974   16440649.5174   16440644.5674
      6616.3114       5155.5674
 -25776330.65149 -18921951.04546  19733119.7374   19733125.2974   19733120.0394
      6861.0334       5346.2594
   -597483.30546                  18674392.7514   18674397.7164
      9543.7184       7436.6634
 -24217215.87249 -18362061.45046  18402819.5374   18402824.5694   18402818.9324
      4812.2734       3749.8234
 -17301847.52649 -13454779.53546  19900678.9124   19900688.1404   19900679.2054
      3402.4084       2651.2274
 -14219364.09349 -11068991.85646  19004175.2254   19004182.7544   19004175.8534
      2973.2674       2316.8314
 -11306873.87749  -8766748.14046  18739915.7604   18739920.8484   18739915.4654
      7575.2444       5902.7884
 -10224746.07849  -7912235.93146  18622421.4264   18622416.6494   18622419.6484
      8504.4604       6626.8524
 -18180369.43349 -14141803.39546  18113902.7644   18113903.2404   18113900.8194
      3566.6124       2779.1784
 -15203793.41549 -11811925.51947  17642749.2434   17642756.7204   17642748.6114
      3820.7424       2977.2024
 05  4 25 13 54 14.9860000  0 10G 4G25G 2G 5G 1G 7G30G23G20G24
 -25762421.59549 -20048170.00247  16421771.0034   16421776.2834   16421770.9004
      6607.7754       5148.9164
 -25879184.19549 -19002096.62046  19713545.0774   19713553.5784   19713547.0144
      6852.7174       5339.7794
   -999665.87949   -709011.52947  18647156.2924   18647160.4164   18647156.4924
      9539.9154       7433.7004
 -24289331.96849 -18418255.78746  18389095.3994   18389098.8974   18389094.6174
      4803.1054       3742.6794
 -17352839.69849 -13494513.63546  19890975.8674   19890984.6954   19890976.4904
      3396.4314       2646.5704
 -14263934.81349 -11103722.26947  18995694.8974   18995701.9084   18995694.1004
      2969.2994       2313.7394
 -11420433.94149  -8855236.51246  18718303.2074   18718312.7504   18718305.8624
      7565.9374       5895.5354
 -10352258.53149  -8011596.29346  18598155.0814   18598152.4644   18598152.4664
      8497.1174       6621.1304
 -18233818.42749 -14183451.95446  18103731.6634   18103734.2354   18103729.4244
      3559.8284       2773.8924
 -15261062.05049 -11856550.46247  17631850.6534   17631858.3684   17631850.3504
      3814.9814       2972.7124
 05  4 25 13 54 29.9860000  0 10G 4G25G 2G 5G 1G 7G30G23G20G24
 -25861473.15749 -20125353.03847  16402921.7844   16402927.3504   16402922.1064
      6599.0254       5142.0974
 -25981912.76149 -19082144.85146  19693995.2214   19694005.2734   19693998.6344
      6844.2224       5333.1604
  -1142735.22259   -820494.11957  18619931.1014   18619935.2674   18619931.2004
      9535.8604       7430.5404
 -24361310.29049 -18474342.77246  18375399.5004   18375402.7464   18375398.1694
      4793.7704       3735.4054
 -17403741.11549 -13534177.11346  19881289.6154   19881299.7134   19881290.7774
      3390.3214       2641.8094
 -14308446.02649 -11138406.43446  18987223.9834   18987231.3564   18987224.4354
      2965.2534       2310.5874
 -11533854.13049  -8943615.73346  18696723.4004   18696729.3744   18696725.5844
      7556.5004       5888.1824
 -10479660.24949  -8110870.32045  18573907.5074   18573910.6024   18573904.7564
      8489.6034       6615.2754
 -18287165.69149 -14225021.20646  18093576.7894   18093582.5024   18093574.2054
      3552.9134       2768.5044
 -15318243.87649 -11901107.78047  17620969.1464   17620976.7534   17620969.2514
      3809.0744       2968.1104
 05  4 25 13 54 44.9860000  0 10G 4G25G 2G 5G 1G 7G30G23G20G24
 -25960392.85149 -20202433.33847  16384098.0394   16384103.6084   16384098.4734
      6590.2804       5135.2834
 -26084513.52649 -19162093.44746  19674471.2984   19674480.8204   19674474.4824
      6835.8004       5326.5974
  -1285743.13649   -931928.81446  18592717.6774   18592722.0374   18592717.3874
      9531.8114       7427.3854
 -24433148.19549 -18530320.41346  18361726.7984   18361730.9494   18361728.5774
      4784.5444       3728.2164
 -17454549.66449 -13573768.29146  19871621.5634   19871631.4764   19871622.7254
      3384.1074       2636.9664
 -14352895.62949 -11173042.46346  18978766.8194   18978772.4114   18978765.8554
      2961.2064       2307.4334
 -11647132.10549  -9031884.18646  18675171.4454   18675173.8054   18675171.5234
      7547.0554       5880.8224
 -10606948.50249  -8210055.92945  18549678.4834   18549688.1884   18549678.6774
      8482.0934       6609.4234
 -18340409.08549 -14266509.51546  18083437.3124   18083449.7024   18083438.8074
      3546.0764       2763.1764
 -15375336.75949 -11945595.80347  17610104.6074   17610111.8114   17610105.2904
      3803.2114       2963.5414
 05  4 25 13 54 59.9860000  0 10G 4G25G 2G 5G 1G 7G30G23G20G24
 -26059183.57749 -20279413.12147  16365298.6774   16365304.1884   16365298.9114
      6581.6054       5128.5234
 -26186989.83749 -19241945.27946  19654972.1884   19654981.3114   19654974.2174
      6827.3664       5320.0254
  -1428692.28349  -1043317.66546  18565515.4804   18565519.4834   18565515.3154
      9527.8454       7424.2954
 -24504849.14149 -18586191.21946  18348082.1844   18348089.8904   18348080.2104
      4775.2724       3720.9914
 -17505268.55749 -13613289.60146  19861972.2224   19861979.2624   19861972.4174
      3378.1104       2632.2944
 -14397286.84149 -11207633.07646  18970318.6624   18970326.2194   18970318.9344
      2957.2794       2304.3734
 -11760270.74449  -9120044.13946  18653643.3774   18653643.8584   18653642.4854
      7537.6834       5873.5194
 -10734126.05449  -8309155.26745  18525472.4004   18525487.9194   18525475.8784
      8474.5674       6603.5594
 -18393551.76849 -14307919.35146  18073324.9634   18073335.0424   18073327.1264
      3539.2974       2757.8944
 -15432343.92349 -11990017.00347  17599257.6414   17599263.3124   17599257.5604
      3797.4594       2959.0594
 05  4 25 13 55 14.9860000  0 10G 4G25G 2G 5G 1G 7G30G23G20G24
 -26157842.57249 -20356290.23447  16346524.2514   16346530.3664   16346524.5104
      6572.8224       5121.6794
 -26289338.29949 -19321697.41546  19635499.2924   19635504.7624   19635499.1344
      6818.9324       5313.4534
  -1571579.83549  -1154658.55246  18538324.9894   18538328.9104   18538325.1564
      9523.7174       7421.0784
 -24576410.40949 -18641953.21746  18334464.0684   18334473.3484   18334464.8374
      4766.0214       3713.7824
 -17555895.54949 -13652739.30846  19852340.9284   19852345.9364   19852339.9714
      3372.0344       2627.5594
 -14441617.34749 -11242176.33646  18961884.1264   18961890.3104   18961883.5544
      2953.2024       2301.1964
 -11873266.93049  -9208093.09646  18632139.5534   18632140.7084   18632138.3444
      7528.2224       5866.1474
 -10861189.69449  -8408165.84945  18501295.6044   18501307.2084   18501298.3044
      8467.0264       6597.6834
 -18446591.39149 -14349248.97046  18063239.3314   18063241.5744   18063239.6564
      3532.4684       2752.5724
 -15489262.73749 -12034369.34747  17588427.1564   17588431.7784   17588426.7784
      3791.5554       2954.4584
 05  4 25 13 55 29.9860000  0 10G 4G25G 2G 5G 1G 7G30G23G20G24
 -26256370.09749 -20433064.91647  16327774.7884   16327781.1864   16327775.3104
      6564.0524       5114.8464
 -26391558.91949 -19401349.76646  19616049.5464   19616053.4164   19616047.8494
      6810.3284       5306.7494
  -1714405.61549  -1265951.32046  18511146.2714   18511150.3214   18511145.9404
      9519.5234       7417.8104
 -24647832.40149 -18697606.62446  18320873.6844   18320879.0634   18320874.0584
      4756.7504       3706.5584
 -17606431.20349 -13692118.02246  19842725.6714   19842730.3084   19842723.7104
      3365.9584       2622.8244
 -14485887.28749 -11276672.42746  18953458.5994   18953465.2614   18953458.6724
      2949.2054       2298.0824
 -11986120.56349  -9296031.01046  18610661.2684   18610665.6884   18610660.2304
      7518.6784       5858.7104
 -10988139.32749  -8507087.62545  18477142.2224   18477150.7714   18477141.2014
      8459.4294       6591.7634
 -18499528.32649 -14390498.53646  18053170.2124   18053167.4484   18053168.2734
      3525.6204       2747.2364
 -15546093.67749 -12078653.21347  17577612.6624   17577617.3944   17577612.2654
      3785.7014       2949.8974
 05  4 25 13 55 44.9860000  0 10G 4G25G 2G 5G 1G 7G30G23G20G24
 -26354764.63049 -20509735.97647  16309051.4824   16309057.2524   16309051.8814
      6555.4674       5108.1564
 -26493650.37049 -19480901.39546  19596624.4624   19596626.9644   19596621.7354
      6802.0704       5300.3144
  -1857167.97249  -1377194.74945  18483979.2004   18483981.7634   18483979.6754
      9515.6424       7414.7864
 -24719114.21549 -18753150.92246  18307310.0374   18307317.1554   18307311.4854
      4747.6864       3699.4964
 -17656874.03349 -13731424.27246  19833127.1154   19833132.1014   19833124.6204
      3360.0014       2618.1834
 -14530095.78749 -11311120.60146  18945046.9434   18945054.1914   18945046.4954
      2945.3864       2295.1064
 -12098830.22249  -9383856.81246  18589209.8424   18589218.2724   18589210.8384
      7509.3574       5851.4474
 -11114973.32549  -8605919.28145  18453010.5904   18453014.4764   18453009.3344
      8452.0304       6585.9974
 -18552361.66249 -14431667.38546  18043116.3734   18043115.6744   18043113.5064
      3519.0244       2742.0974
 -15602835.56549 -12122867.67047  17566814.9214   17566819.6114   17566814.4654
      3780.0684       2945.5084
 05  4 25 13 55 59.9860000  0 10G 4G25G 2G 5G 1G 7G30G23G20G24
 -26453028.04749 -20586304.89447  16290352.7294   16290358.2664   16290353.0484
      6546.4534       5101.1324
 -26595614.56649 -19560353.91646  19577223.1084   19577225.1544   19577219.8704
      6793.2504       5293.4424
  -1999868.53749  -1488390.08346  18456823.8724   18456827.6914   18456823.9424
      9511.1954       7411.3214
 -24790257.95149 -18808587.66346  18293771.4954   18293776.8544   18293770.2564
      4738.1754       3692.0844
 -17707226.05049 -13770659.54546  19823545.2134   19823550.2344   19823543.2584
      3353.6784       2613.2564
 -14574244.92649 -11345522.59046  18936644.0834   18936651.8484   18936644.7834
      2941.1644       2291.8164
 -12211397.47749  -9471571.59946  18567789.8324   18567797.3634   18567792.9364
      7499.5784       5843.8274
 -11241693.25849  -8704662.06845  18428900.1494   18428899.2494   18428898.5814
      8444.0724       6579.7964
 -18605093.47849 -14472757.09646  18033077.4784   18033083.0344   18033075.2514
      3512.0144       2736.6344
 -15659490.52949 -12167014.40047  17556033.1584   17556039.3494   17556032.4944
      3774.0004       2940.7794
 05  4 25 13 56 14.9860000  0 10G 4G25G 2G 5G 1G 7G30G23G20G24
 -26551158.82849 -20662770.46847  16271679.0354   16271684.9334   16271679.5194
      6537.5974       5094.2314
 -26697449.74649 -19639705.89346  19557845.0854   19557847.3464   19557841.8144
      6784.6434       5286.7354
  -2142505.40849  -1599535.76846  18429681.2104   18429684.8024   18429680.9124
      9506.9514       7408.0144
 -24861262.06749 -18863915.57246  18280262.4664   18280268.8044   18280260.7784
      4728.9054       3684.8614
 -17757486.44349 -13809823.41746  19813980.5074   19813986.7224   19813979.3504
      3347.5964       2608.5164
 -14618333.46849 -11379877.29146  18928256.1294   18928263.0614   18928254.9444
      2937.1224       2288.6664
 -12323820.63949  -9559174.10746  18546400.4524   18546403.2234   18546400.8754
      7489.9184       5836.3004
 -11368297.28349  -8803314.53246  18404810.5574   18404806.1674   18404808.8824
      8436.3004       6573.7404
 -18657722.53449 -14513766.67046  18023054.0414   18023068.2304   18023055.2234
      3505.0454       2731.2044
 -15716057.19849 -12211092.32447  17545267.9544   17545275.5994   17545268.1494
      3768.1064       2936.1864
 05  4 25 13 56 29.9860000  0 10G 4G25G 2G 5G 1G 7G30G23G20G24
 -26649155.70349 -20739131.67547  16253031.3144   16253036.9184   16253031.6414
      6528.5824       5087.2074
 -26799154.69549 -19718956.34746  19538490.9854   19538495.3444   19538488.9824
      6775.9054       5279.9264
  -2285077.25349  -1710630.76246  18402551.0694   18402554.5474   18402550.7284
      9502.4154       7404.4794
 -24932125.21249 -18919133.54446  18266776.5904   18266778.3124   18266777.5664
      4719.3794       3677.4384
 -17807654.58149 -13848915.50046  19804432.1914   19804439.2364   19804431.2044
      3341.3804       2603.6734
 -14662360.42149 -11414184.11346  18919877.5624   18919884.7564   18919877.4764
      2932.9094       2285.3844
 -12436098.43549  -9646663.37946  18525036.7624   18525037.7794   18525036.4714
      7480.1824       5828.7134
 -11494784.11249  -8901875.70146  18380741.8944   18380737.3484   18380741.2614
      8428.4214       6567.6014
 -18710247.96949 -14554695.53246  18013060.3504   18013071.4604   18013062.9114
      3498.1774       2725.8524
 -15772534.69649 -12255100.76447  17534520.4134   17534528.5374   17534520.0974
      3762.0434       2931.4624
 05  4 25 13 56 44.9850000  0 10G 4G25G 2G 5G 1G 7G30G23G20G24
 -26747011.29949 -20815382.78747  16234410.2444   16234415.6614   16234410.0594
      6519.4944       5080.1254
 -26900722.23149 -19798099.92446  19519163.9924   19519167.2284   19519163.2054
      6767.0664       5273.0384
  -2427573.34249  -1821666.69446  18375435.0294   18375439.1074   18375434.9574
      9498.0174       7401.0524
 -25002842.65549 -18974237.95546  18253320.2784   18253326.2804   18253318.3814
      4709.9464       3670.0884
 -17857726.30849 -13887932.36645  19794902.2734   19794911.0854   19794903.0864
      3335.1004       2598.7794
 -14706322.43249 -11448440.24246  18911513.3974   18911517.3184   18911512.7604
      2928.7284       2282.1264
 -12548222.14549  -9734032.47946  18503699.9374   18503700.8254   18503699.2964
      7470.3144       5821.0244
 -11621144.00249  -9000337.97746  18356696.0504   18356690.5814   18356695.5094
      8420.4274       6561.3724
 -18762665.80549 -14595540.62246  18003093.1044   18003096.2594   18003093.0814
      3491.1164       2720.3504
 -15828918.66649 -12299036.32947  17523790.5364   17523799.2634   17523791.0474
      3756.0124       2926.7624
 05  4 25 13 56 59.9850000  0 10G 4G25G 2G 5G 1G 7G30G23G20G24
 -26844738.44949 -20891533.81047  16215812.7764   16215818.7954   16215813.1084
      6510.7904       5073.3434
 -27002165.12149 -19877146.36046  19499860.7734   19499863.0924   19499858.8314
      6758.5874       5266.4314
  -2570012.20749  -1932658.04646  18348329.9064   18348333.4644   18348329.6344
      9493.8274       7397.7874
 -25073423.49549 -19029236.02346  18239888.2374   18239890.3534   18239888.7514
      4700.8164       3662.9744
 -17907708.65749 -13926879.58845  19785390.8564   19785399.0644   19785391.6424
      3329.2104       2594.1904
 -14750225.22449 -11482650.25246  18903158.4064   18903163.2724   18903157.7544
      2924.8654       2279.1164
 -12660206.24549  -9821292.71246  18482388.5504   18482392.4374   18482388.3814
      7460.8124       5813.6204
 -11747393.29249  -9098714.04746  18332670.9294   18332667.0924   18332669.7214
      8412.7884       6555.4194
 -18814982.93449 -14636307.26946  17993141.5444   17993139.1184   17993139.3424
      3484.4274       2715.1384
 -15885216.41749 -12342904.70547  17513078.4444   17513086.2304   17513078.8704
      3750.3174       2922.3254
 05  4 25 13 57 14.9850000  0 10G 4G25G 2G 5G 1G 7G30G23G20G24
 -26942330.30749 -20967579.40847  16197241.4604   16197247.6104   16197241.5524
      6501.5074       5066.1094
 -27103476.10349 -19956089.97146  19480581.4334   19480584.3324   19480579.0404
      6749.5434       5259.3844
  -2712383.50849  -2043596.59846  18321237.4524   18321240.3494   18321237.0994
      9489.0654       7394.0774
 -25143862.87349 -19084123.69246  18226484.4484   18226490.9894   18226482.9074
      4691.0944       3655.3984
 -17957598.20149 -13965754.55945  19775897.4294   19775904.4484   19775897.7374
      3322.7304       2589.1404
 -14794065.86349 -11516811.84346  18894815.4524   18894821.5974   18894814.8494
      2920.4734       2275.6934
 -12772043.23149  -9908438.47546  18461105.3454   18461112.0564   18461104.9544
      7450.7464       5805.7764
 -11873522.93549  -9196996.90046  18308668.8814   18308665.1034   18308668.7794
      8404.5104       6548.9694
 -18867195.97949 -14676992.81146  17983205.5384   17983202.6274   17983203.5194
      3477.2794       2709.5684
 -15941424.09049 -12386702.90347  17502384.0674   17502390.2184   17502384.0054
      3744.0384       2917.4324
 05  4 25 13 57 29.9850000  0 10G 4G25G 2G 5G 1G 7G30G23G20G24
 -27039785.27049 -21043518.34247  16178696.9694   16178702.5524   16178696.6924
      6492.4764       5059.0724
 -27204653.72849 -20034929.72246  19461326.3974   19461329.5754   19461324.7344
      6740.7884       5252.5624
  -2854685.79449  -2154481.44246  18294158.3814   18294161.5564   18294158.5094
      9484.5524       7390.5604
 -25214159.48949 -19138900.20746  18213106.9994   18213110.3864   18213106.3304
      4681.7264       3648.0984
 -18007393.81649 -14004556.36246  19766423.4554   19766430.0024   19766423.2664
      3316.5824       2584.3504
 -14837843.08149 -11550923.96746  18886483.4404   18886489.7694   18886482.9304
      2916.3424       2272.4744
 -12883730.95149  -9995467.89346  18439850.2934   18439859.2934   18439851.3264
      7440.8504       5798.0654
 -11999531.17049  -9295185.15445  18284689.7484   18284686.0864   18284689.6564
      8396.5324       6542.7524
 -18919303.74749 -14717596.27646  17973285.1694   17973288.0984   17973282.6914
      3470.3404       2704.1614
 -15997540.54049 -12430430.02247  17491706.2034   17491711.4894   17491705.5134
      3738.0594       2912.7734
 05  4 25 13 57 44.9850000  0 10G 4G25G 2G 5G 1G 7G30G23G20G24
 -27137105.66849 -21119352.42347  16160177.4634   16160182.9234   16160177.3034
      6483.2464       5051.8804
 -27305700.46149 -20113667.50746  19442096.7364   19442101.5434   19442095.6504
      6731.7344       5245.5074
  -2996921.34149  -2265314.40546  18267091.9414   18267095.2104   18267091.5794
      9479.7434       7386.8134
 -25284316.09249 -19193567.57846  18199756.1814   18199762.3514   18199754.1454
      4672.1294       3640.6204
 -18057098.13949 -14043287.00346  19756967.2354   19756971.5774   19756965.6284
      3310.2684       2579.4304
 -14881559.60949 -11584988.76546  18878164.1414   18878172.4424   18878164.3164
      2912.0914       2269.1624
 -12995271.71649 -10082382.75246  18418624.3034   18418632.6014   18418625.3064
      7430.7894       5790.2254
 -12125420.13649  -9393280.46245  18260734.0634   18260730.9734   18260733.1644
      8388.2974       6536.3354
 -18971309.09049 -14758119.87046  17963379.7294   17963393.7814   17963381.0524
      3463.2624       2698.6464
 -16053568.37749 -12474088.09747  17481044.1364   17481049.6714   17481043.8174
      3731.9254       2907.9944
 05  4 25 13 57 59.9850000  0 10G 4G25G 2G 5G 1G 7G30G23G20G24
 -27234288.71749 -21195079.48047  16141683.7014   16141689.5104   16141684.0004
      6474.2644       5044.8814
 -27406613.02949 -20192300.68546  19422892.8654   19422898.0414   19422891.2734
      6722.9384       5238.6534
  -3139086.67649  -2376092.54046  18240038.7174   18240042.4074   18240038.2544
      9475.3164       7383.3634
 -25354330.17749 -19248124.01846  18186432.8154   18186439.0174   18186432.5464
      4662.7704       3633.3274
 -18106708.61849 -14081944.50046  19747527.7694   19747530.8284   19747526.1004
      3304.1544       2574.6654
 -14925212.81349 -11619004.28046  18869856.5414   18869865.5084   18869857.4174
      2907.9764       2265.9554
 -13106662.63749 -10169180.85346  18397428.7524   18397434.9014   18397429.6424
      7420.9574       5782.5644
 -12251186.63249  -9491280.34545  18236802.6734   18236796.8714   18236801.9514
      8380.2674       6530.0784
 -19023209.22649 -14798561.49546  17953504.9264   17953517.7584   17953508.0254
      3456.3924       2693.2924
 -16109504.97449 -12517675.06547  17470398.6124   17470404.7144   17470398.3714
      3725.9884       2903.3674
 05  4 25 13 58 14.9850000  0 10G 4G25G 2G 5G 1G 7G30G23G20G24
 -27331335.91049 -21270700.69047  16123216.3244   16123221.9924   16123216.6814
      6465.2924       5037.8904
 -27507392.80549 -20270830.39746  19403713.1934   19403720.4304   19403710.9864
      6714.1874       5231.8344
  -3281183.23549  -2486817.17546  18212998.5114   18213002.0764   18212998.6144
      9470.7584       7379.8114
 -25424203.37249 -19302570.73346  18173134.6494   18173141.5874   18173132.7134
      4653.5214       3626.1204
 -18156227.17749 -14120530.40146  19738105.1624   19738108.5054   19738102.8804
      3298.1294       2569.9714
 -14968804.37149 -11652971.64046  18861562.4894   18861569.4484   18861562.0074
      2904.0004       2262.8574
 -13217904.83549 -10255862.96046  18376262.5864   18376265.0014   18376262.9344
      7411.1054       5774.8874
 -12376831.81249  -9589185.71745  18212893.6504   18212886.8884   18212893.1404
      8372.2724       6523.8484
 -19075005.91149 -14838922.58246  17943656.2444   17943661.2864   17943655.6344
      3449.6444       2688.0344
 -16165351.95949 -12561192.18947  17459770.8384   17459777.6354   17459770.6224
      3720.1224       2898.7964
 05  4 25 13 58 29.9850000  0 10G 4G25G 2G 5G 1G 7G30G23G20G24
 -27428244.13849 -21346213.63247  16104775.2754   16104781.1604   16104775.6414
      6455.9294       5030.5944
 -27608036.89649 -20349254.36046  19384558.6964   19384568.0624   19384558.9674
      6705.0504       5224.7144
  -3423207.53349  -2597485.43746  18185972.2194   18185976.1424   18185971.8434
      9465.8554       7375.9914
 -25493932.99749 -19356905.66346  18159868.5814   18159874.8284   18159867.9874
      4643.8174       3618.5594
 -18205651.10649 -14159042.59346  19728699.6924   19728702.6774   19728698.0554
      3291.7524       2565.0024
 -15012331.71249 -11686889.04146  18853280.1234   18853286.4614   18853278.7874
      2899.6484       2259.4664
 -13328995.33549 -10342426.90546  18355124.5474   18355124.3704   18355124.3264
      7400.8874       5766.9254
 -12502352.42349  -9686993.98845  18189005.9384   18189001.7824   18189004.4734
      8363.8084       6517.2534
 -19126696.54149 -14879201.03246  17933823.7784   17933823.9674   17933821.3724
      3442.5004       2682.4684
 -16221106.60249 -12604637.35047  17449159.8344   17449168.2424   17449160.1234
      3713.8714       2893.9254
 05  4 25 13 58 44.9850000  0 10G 4G25G 2G 5G 1G 7G30G23G20G24
 -27525015.08349 -21421619.58447  16086360.8854   16086366.0754   16086360.8754
      6447.0544       5023.6784
 -27708546.99849 -20427573.95946  19365431.0934   19365440.1494   19365431.8194
      6696.3594       5217.9424
  -3565161.11049  -2708098.58746  18158959.0924   18158963.7664   18158958.8664
      9461.4184       7372.5334
 -25563520.47349 -19411129.71646  18146625.0294   18146631.4894   18146624.9774
      4634.6274       3611.3984
 -18254982.40049 -14197482.54746  19719311.0874   19719317.5974   19719310.4264
      3285.8474       2560.4004
 -15055796.76049 -11720757.95546  18845009.3054   18845015.0234   18845009.8574
      2895.7604       2256.4364
 -13439935.73249 -10428873.90746  18334013.0064   18334013.6024   18334011.3294
      7391.1844       5759.3644
 -12627749.95748  -9784706.33245  18165138.3754   18165139.5564   18165133.9524
      8355.8924       6511.0854
 -19178283.41549 -14919398.62146  17924006.9744   17924005.4984   17924004.4184
      3435.8324       2677.2724
 -16276770.80649 -12648012.03347  17438567.1594   17438575.4654   17438567.7104
      3708.1314       2889.4534
 05  4 25 13 58 59.9850000  0 10G 4G25G 2G 5G 1G 7G30G23G20G24
 -27621649.63149 -21496919.25047  16067972.4054   16067977.1144   16067971.9294
      6437.8744       5016.5254
 -27808923.76649 -20505789.64846  19346330.0554   19346338.9394   19346330.6954
      6687.4124       5210.9704
  -3707044.30049  -2818656.81046  18131959.2274   18131963.6114   18131959.2174
      9456.6144       7368.7904
 -25632967.28949 -19465244.05646  18133411.9854   18133416.7704   18133411.0444
      4625.1964       3604.0494
 -18304222.28849 -14235851.27146  19709939.4704   19709947.2234   19709938.9934
      3279.7074       2555.6164
 -15099200.63749 -11754579.09545  18836750.8704   18836755.4224   18836749.8804
      2891.6214       2253.2114
 -13550726.66949 -10515204.57046  18312927.7824   18312931.8104   18312926.6454
      7381.1324       5751.5314
 -12753024.96648  -9882323.11645  18141285.9824   18141302.5494   18141289.4864
      8347.6834       6504.6884
 -19229767.36949 -14959515.99246  17914206.4874   17914207.3354   17914204.0104
      3428.9324       2671.8954
 -16332345.54849 -12691317.02447  17427992.9294   17427999.6884   17427992.5964
      3702.1034       2884.7564
 05  4 25 13 59 14.9850000  0 10G 4G25G 2G 5G 1G 7G30G23G20G24
 -27718145.86649 -21572111.12947  16049609.1364   16049614.3734   16049609.3664
      6428.4374       5009.1724
 -27909165.33549 -20583900.00046  19327254.9434   19327263.6054   19327256.0814
      6678.2304       5203.8164
  -3848855.44549  -2929158.96146  18104973.3684   18104977.8504   18104973.6954
      9451.5894       7364.8754
 -25702271.76549 -19519247.72446  18120222.4104   18120229.3184   18120222.9114
      4615.4284       3596.4374
 -18353369.17549 -14274147.48746  19700585.5934   19700594.6934   19700585.1844
      3273.3024       2550.6254
 -15142541.68049 -11788351.33946  18828502.3644   18828508.4144   18828502.5114
      2887.1734       2249.7454
 -13661365.79149 -10601416.90346  18291869.6914   18291877.7094   18291870.7494
      7370.7784       5743.4634
 -12878175.18749  -9979842.68945  18117469.9544   18117486.2514   18117475.4184
      8339.0614       6497.9704
 -19281146.79049 -14999551.86946  17904423.5504   17904430.4144   17904422.8974
      3421.7604       2666.3064
 -16387829.35549 -12734551.16447  17417435.3544   17417441.7154   17417435.0844
      3695.7934       2879.8394
 05  4 25 13 59 29.9850000  0 10G 4G25G 2G 5G 1G 7G30G23G20G24
 -27814504.26749 -21647195.61347  16031272.5324   16031278.2054   16031272.9234
      6419.3374       5002.0814
 -28009271.91149 -20661905.13046  19308206.3434   19308214.4794   19308206.2704
      6669.3204       5196.8734
  -3990594.38549  -3039604.91247  18078001.5804   18078006.0354   18078001.1564
      9446.8464       7361.1794
 -25771434.27449 -19573140.49746  18107061.9574   18107066.0864   18107060.3394
      4606.0994       3589.1684
 -18402423.88749 -14312371.89846  19691249.7734   19691260.0984   19691250.0864
      3267.2314       2545.8944
 -15185820.67449 -11822075.24345  18820265.9744   18820269.5394   18820266.7844
      2883.1444       2246.6064
 -13771853.69549 -10687511.45046  18270844.4794   18270852.3864   18270847.7814
      7360.7984       5735.6874
 -13003200.73949 -10077265.20245  18093684.9344   18093696.1914   18093687.0164
      8330.8444       6491.5674
 -19332422.47749 -15039506.91346  17894664.4434   17894673.8014   17894666.9034
      3414.9064       2660.9664
 -16443222.76049 -12777714.86947  17406894.5814   17406900.5134   17406894.3494
      3689.8814       2875.2324
 05  4 25 13 59 44.9850000  0 10G 4G25G 2G 5G 1G 7G30G23G20G24
 -27910725.23749 -21722172.99747  16012962.4364   16012967.9704   16012962.9214
      6410.0714       4994.8614
 -28109244.27949 -20739805.73146  19289183.3424   19289190.7974   19289184.0234
      6660.1934       5189.7614
  -4132261.46549  -3149994.81546  18051042.7124   18051047.3234   18051042.8274
      9441.9624       7357.3734
 -25840455.64549 -19626923.34646  18093927.3494   18093933.6184   18093928.0414
      4596.6194       3581.7814
 -18451387.37649 -14350525.30146  19681932.2264   19681942.3024   19681933.0194
      3261.1094       2541.1244
 -15229038.41649 -11855751.36945  18812040.4734   18812047.9964   18812041.3404
      2878.9904       2243.3694
 -13882190.48149 -10773488.10746  18249853.1594   18249857.0694   18249853.5864
      7350.6234       5727.7584
 -13128101.92049 -10174590.79545  18069922.5044   18069927.3304   18069921.5274
      8322.4424       6485.0204
 -19383595.28249 -15079381.81246  17884931.0654   17884937.8864   17884931.9414
      3407.9554       2655.5494
 -16498526.53649 -12820808.72947  17396370.3584   17396376.6824   17396370.2174
      3683.8154       2870.5054
 05  4 25 13 59 59.9850000  0 10G 4G25G 2G 5G 1G 7G30G23G20G24
 -28006807.66149 -21797042.41947  15994678.4744   15994684.2044   15994678.9724
      6400.9774       4987.7744
 -28209080.65149 -20817600.29946  19270186.4244   19270191.7074   19270185.1894
      6651.3264       5182.8514
  -4273855.06249  -3260327.47746  18024098.6704   18024102.0294   18024099.1784
      9437.1894       7353.6544
 -25909335.00449 -19680595.56046  18080819.6624   18080824.0624   18080817.3784
      4587.2734       3574.4984
 -18500258.54549 -14388606.75846  19672632.4024   19672642.9684   19672632.0784
      3255.0274       2536.3854
 -15272193.89549 -11889379.02045  18803828.1284   18803836.0334   18803829.5644
      2874.9864       2240.2494
 -13992374.83949 -10859345.97947  18228888.5644   18228890.1544   18228887.3584
      7340.5814       5719.9334
 -13252877.20549 -10271818.28146  18046181.5744   18046184.1504   18046179.5584
      8314.1954       6478.5944
 -19434664.13249 -15119175.71546  17875217.0104   17875220.4604   17875215.7814
      3401.1764       2650.2674
 -16553739.47949 -12863831.79947  17385863.5074   17385869.9484   17385863.1314
      3677.9144       2865.9074
 05  4 25 14  0 14.9850000  0 10G 4G25G 2G 5G 1G 7G30G23G20G24
 -28102752.60649 -21871804.71247  15976420.7434   15976426.6334   15976421.0324
      6391.9764       4980.7614
 -28308782.55349 -20895290.07846  19251213.2994   19251218.5394   19251212.8844
      6642.5214       5175.9904
  -4415376.26249  -3370603.75547  17997168.3244   17997172.2264   17997167.7804
      9432.5094       7350.0074
 -25978074.08349 -19734158.47946  18067740.0794   18067745.4424   18067739.8914
      4578.1564       3567.3944
 -18549039.12749 -14426617.63346  19663349.1084   19663360.1364   19663349.3554
      3249.2184       2531.8584
 -15315288.57449 -11922959.33645  18795627.5014   18795635.3354   18795627.0474
      2871.1794       2237.2824
 -14102407.79949 -10945085.81246  18207949.2334   18207951.0744   18207947.6984
      7330.6704       5712.2104
 -13377527.60949 -10368948.46746  18022462.4464   18022462.4144   18022460.1814
      8306.0374       6472.2374
 -19485630.86149 -15158890.05646  17865519.6224   17865521.3284   17865517.9484
      3394.5754       2645.1234
 -16608863.25049 -12906785.39147  17375373.5524   17375379.9254   17375373.2354
      3672.1664       2861.4284
 05  4 25 14  0 29.9850000  0 10G 4G25G 2G 5G 1G 7G30G23G20G24
 -28198560.68849 -21946460.34947  15958189.1624   15958194.8284   15958189.2834
      6382.8364       4973.6384
 -28408350.45149 -20972875.49346  19232266.7574   19232270.5824   19232265.5674
      6633.5044       5168.9644
  -4556825.32649  -3480823.74647  17970251.1404   17970255.4254   17970251.4424
      9427.6634       7346.2314
 -26046673.15049 -19787612.30246  18054684.8474   18054689.6084   18054684.0194
      4568.7564       3560.0704
 -18597729.79849 -14464558.36646  19654082.1014   19654094.4354   19654082.8344
      3243.2284       2527.1914
 -15358323.31449 -11956492.85945  18787438.9644   18787445.8254   18787440.5864
      2867.0684       2234.0794
 -14212289.81949 -11030708.06146  18187035.9994   18187039.7104   18187035.2054
      7320.5354       5704.3134
 -13502053.41149 -10465981.57246  17998765.4454   17998766.1224   17998764.4924
      8297.6864       6465.7294
 -19536496.21949 -15198525.40446  17855838.8424   17855840.9364   17855837.4014
      3387.7374       2639.7954
 -16663898.66649 -12949670.12647  17364899.4964   17364906.7084   17364900.0564
      3666.2214       2856.7964
 05  4 25 14  0 44.9840000  0 10G 4G25G 2G 5G 1G 7G30G23G20G24
 -28294224.88449 -22021003.87747  15939984.8434   15939990.5144   15939984.8464
      6373.6014       4966.4424
 -28507776.56849 -21050350.26846  19213348.1134   19213350.0334   19213347.1784
      6624.4744       5161.9284
  -4698191.92849  -3590979.61347  17943350.8594   17943353.6534   17943350.2754
      9422.7224       7342.3814
 -26115127.47949 -19840953.25646  18041658.7874   18041664.3014   18041658.0614
      4559.3524       3552.7424
 -18646327.19649 -14502426.44145  19644833.0454   19644846.8104   19644834.1324
      3237.0544       2522.3804
 -15401294.87949 -11989977.19046  18779264.1234   18779270.0974   18779263.4994
      2862.9714       2230.8864
 -14322012.74549 -11116206.33846  18166152.4894   18166159.0144   18166153.8654
      7310.3674       5696.3904
 -13626445.34549 -10562910.36946  17975095.3214   17975095.5204   17975095.4564
      8289.2374       6459.1464
 -19587256.49949 -15238078.85946  17846175.2234   17846181.1634   17846174.1734
      3380.8944       2634.4634
 -16718841.61749 -12992482.81547  17354444.9564   17354451.4024   17354444.7244
      3660.2254       2852.1234
 05  4 25 14  0 59.9840000  0 10G 4G25G 2G 5G 1G 7G30G23G20G24
 -28389757.22649 -22095444.66947  15921805.7024   15921811.6134   15921805.8824
      6364.4294       4959.2954
 -28607074.02849 -21127724.92246  19194452.2234   19194453.5354   19194450.0514
      6615.5034       5154.9374
  -4839494.03049  -3701085.19446  17916461.7914   17916465.1604   17916460.8604
      9417.8834       7338.6104
 -26183445.88349 -19894188.43946  18028657.6954   18028663.7414   18028656.6284
      4550.0964       3545.5294
 -18694837.45749 -14540226.63246  19635602.7064   19635615.0994   19635603.2664
      3231.2294       2517.8414
 -15444208.73749 -12023416.58945  18771098.0144   18771105.1674   18771096.4524
      2859.0514       2227.8324
 -14431590.65749 -11201591.74046  18145301.0394   18145307.3474   18145303.0884
      7300.2764       5688.5274
 -13750719.05449 -10659747.04146  17951447.4364   17951448.1274   17951447.1774
      8280.9054       6452.6534
 -19637918.13449 -15277555.42546  17836529.6364   17836539.6934   17836531.2594
      3374.2284       2629.2694
 -16773698.99149 -13035228.81647  17344005.8134   17344012.4114   17344006.2014
      3654.4004       2847.5844
 05  4 25 14  1 14.9840000  0 10G 4G25G 2G 5G 1G 7G30G23G20G24
 -28485152.46649 -22169778.62547  15903652.7454   15903658.4164   15903652.8594
      6354.9884       4951.9394
 -28706236.77149 -21204994.56346  19175581.3334   19175583.4854   19175580.7314
      6606.2034       5147.6914
  -4980722.75049  -3811133.51747  17889586.8634   17889590.9184   17889586.3884
      9412.6294       7334.5164
 -26251625.05849 -19947315.08846  18015683.3884   18015688.6624   18015683.5414
      4540.4804       3538.0364
 -18743259.17749 -14577958.08746  19626387.5854   19626401.9034   19626388.8994
      3224.9904       2512.9794
 -15487063.16049 -12056809.66245  18762942.5804   18762948.5384   18762943.2604
      2854.8114       2224.5284
 -14541017.10249 -11286859.15046  18124480.9624   18124484.6214   18124481.9634
      7289.8394       5680.3944
 -13874866.98149 -10756485.68646  17927823.5864   17927824.5284   17927823.2024
      8272.1744       6445.8504
 -19688479.02849 -15316953.51046  17826910.6424   17826917.6444   17826912.5024
      3367.2604       2623.8394
 -16828468.24249 -13077906.16647  17333584.0604   17333590.5684   17333584.3014
      3648.1904       2842.7454
 05  4 25 14  1 29.9840000  0 10G 4G25G 2G 5G 1G 7G30G23G20G24
 -28580409.57949 -22244004.95747  15885525.6264   15885531.6934   15885526.0434
      6345.8814       4944.8424
 -28805264.12149 -21282158.75146  19156737.9194   19156740.1504   19156737.2024
      6597.2804       5140.7384
  -5121877.02149  -3921123.85146  17862726.2474   17862728.9824   17862726.5344
      9407.7474       7330.7124
 -26319664.30749 -20000332.76846  18002736.3784   18002742.7764   18002736.0724
      4531.2444       3530.8394
 -18791591.00749 -14615619.31646  19617191.2814   19617204.5424   19617191.9064
      3219.0974       2508.3874
 -15529857.58949 -12090155.94146  18754797.7064   18754806.2784   18754798.7634
      2850.8354       2221.4304
 -14650290.63549 -11372007.35846  18103688.6294   18103692.2304   18103688.0004
      7279.6904       5672.4864
 -13998887.97649 -10853125.41446  17904223.7974   17904224.4034   17904223.4914
      8263.7744       6439.3044
 -19738938.65649 -15356272.73246  17817314.5844   17817316.9004   17817314.1824
      3360.5624       2618.6204
 -16883148.79849 -13120514.38947  17323179.8884   17323185.3504   17323179.0734
      3642.3634       2838.2054
 05  4 25 14  1 44.9840000  0 10G 4G25G 2G 5G 1G 7G30G23G20G24
 -28675529.25349 -22318124.17747  15867425.2974   15867431.0614   15867425.3334
      6336.7334       4937.7144
 -28904156.62949 -21359217.83846  19137921.0274   19137922.2074   19137918.8734
      6588.3794       5133.8024
  -5262957.38749  -4031056.60446  17835879.0024   17835882.1474   17835879.5284
      9402.8574       7326.9024
 -26387563.85949 -20053241.34746  17989814.6194   17989820.8254   17989814.8204
      4522.0454       3523.6714
 -18839834.13549 -14653211.38146  19608011.3244   19608024.3984   19608011.5084
      3213.2294       2503.8154
 -15572592.92849 -12123456.24746  18746664.0684   18746673.7074   18746665.2244
      2846.9824       2218.4274
 -14759412.07449 -11457037.09346  18082923.0264   18082927.6564   18082922.1764
      7269.6404       5664.6544
 -14122782.45349 -10949666.55346  17880647.0434   17880648.5704   17880645.7514
      8255.4074       6432.7854
 -19789297.95549 -15395513.79046  17807734.9174   17807734.4504   17807732.3214
      3353.9164       2613.4414
 -16937741.39149 -13163054.06547  17312791.4114   17312797.4234   17312790.8104
      3636.5644       2833.6864
 05  4 25 14  1 59.9840000  0 10G 4G25G 2G 5G 1G 7G30G23G20G24
 -28770512.43949 -22392137.04147  15849350.5044   15849356.2204   15849350.7224
      6327.6044       4930.6004
 -29002915.19449 -21436172.58146  19119128.7264   19119129.5354   19119125.6764
      6579.3764       5126.7864
  -5403964.29049  -4140932.10047  17809047.0274   17809050.6544   17809046.6704
      9397.9374       7323.0684
 -26455325.88949 -20106042.97246  17976920.1174   17976926.8744   17976917.6454
      4512.7624       3516.4384
 -18887989.97049 -14690735.44546  19598848.4664   19598861.2754   19598847.6334
      3207.3954       2499.2694
 -15615270.39849 -12156711.45646  18738543.4264   18738551.6194   18738544.1324
      2843.1284       2215.4244
 -14868381.68549 -11541948.38746  18062185.5534   18062190.8294   18062184.9224
      7259.4594       5656.7214
 -14246550.99549 -11046109.54446  17857093.2424   17857096.1874   17857092.5884
      8246.9494       6426.1944
 -19839558.20449 -15434677.65846  17798170.5114   17798170.4274   17798168.0844
      3347.2994       2608.2854
 -16992247.30449 -13205526.20247  17302418.8814   17302425.3144   17302418.8964
      3630.7464       2829.1534
 05  4 25 14  2 14.9840000  0 10G 4G25G 2G 5G 1G 7G30G23G20G24
 -28865357.61049 -22466042.37147  15831302.2774   15831307.7774   15831302.2954
      6318.3634       4923.4004
 -29101538.05549 -21513021.59146  19100361.2664   19100363.4704   19100360.4114
      6570.2474       5119.6734
  -5544896.02749  -4250748.98946  17782227.5044   17782231.2294   17782227.2594
      9392.8324       7319.0904
 -26522948.59249 -20158736.02646  17964051.9494   17964057.1624   17964052.9814
      4503.4134       3509.1534
 -18936057.54249 -14728190.87345  19589701.5634   19589712.4264   19589701.2754
      3201.5014       2494.6764
 -15657888.70449 -12189920.54345  18730434.5794   18730440.6844   18730433.8864
      2839.1364       2212.3144
 -14977198.18849 -11626740.40846  18041477.0384   18041483.3054   18041477.4764
      7249.1764       5648.7094
 -14370191.76149 -11142452.96246  17833563.6134   17833568.9994   17833564.2144
      8238.3754       6419.5134
 -19889718.14149 -15473763.33746  17788621.4124   17788626.3034   17788620.3324
      3340.5724       2603.0434
 -17046665.28449 -13247929.82147  17292063.4734   17292070.1724   17292063.2134
      3624.8544       2824.5614
 05  4 25 14  2 29.9840000  0 10G 4G25G 2G 5G 1G 7G30G23G20G24
 -28960065.19949 -22539840.47447  15813279.9554   15813285.6434   15813279.9544
      6309.4314       4916.4404
 -29200025.66149 -21589765.21346  19081620.3984   19081622.7064   19081619.7924
      6561.4544       5112.8214
  -5685752.62649  -4360507.39246  17755423.8824   17755427.0724   17755424.2144
      9388.0784       7315.3854
 -26590432.34849 -20211320.70546  17951209.6764   17951217.0524   17951209.2214
      4494.4314       3502.1544
 -18984037.43849 -14765577.99746  19580570.9154   19580581.2754   19580572.0264
      3195.8654       2490.2844
 -15700448.62149 -12223084.14046  18722337.6004   18722342.5874   18722337.3254
      2835.4574       2209.4474
 -15085861.90149 -11711413.36246  18020798.7594   18020805.2514   18020799.8754
      7239.2434       5640.9694
 -14493705.11449 -11238697.11846  17810059.7364   17810064.2634   17810059.6304
      8230.1004       6413.0654
 -19939778.58249 -15512771.44446  17779088.8594   17779099.6354   17779089.8574
      3334.2104       2598.0864
 -17100995.86849 -13290265.35147  17281724.9324   17281731.1774   17281724.2744
      3619.2644       2820.2064
 05  4 25 14  2 44.9840000  0 10G 4G25G 2G 5G 1G 7G30G23G20G24
 -29054636.83749 -22613532.66247  15795283.3884   15795288.9344   15795283.6064
      6300.3104       4909.3324
 -29298379.43749 -21666404.49146  19062904.7524   19062907.0584   19062902.9084
      6552.4784       5105.8274
  -5826535.65049  -4470208.38446  17728633.5234   17728638.4254   17728633.2314
      9383.1124       7311.5164
 -26657779.38849 -20263798.77646  17938395.5284   17938399.9444   17938394.8544
      4485.3564       3495.0834
 -19031931.53149 -14802898.17646  19571457.9444   19571466.8844   19571459.0924
      3190.1304       2485.8164
 -15742952.06549 -12256203.72046  18714250.8534   18714254.1224   18714249.2474
      2831.6874       2206.5094
 -15194374.33149 -11795968.47846  18000150.2844   18000155.0054   18000150.8934
      7229.1404       5633.0964
 -14617092.42749 -11334843.05946  17786580.0104   17786584.9404   17786579.4014
      8221.6164       6406.4544
 -19989741.53349 -15551703.59846  17769581.2824   17769592.3164   17769582.7694
      3327.6334       2592.9614
 -17155240.97249 -13332534.27347  17271401.9514   17271408.0304   17271401.3754
      3613.5434       2815.7484
 05  4 25 14  2 59.9840000  0 10G 4G25G 2G 5G 1G 7G30G23G20G24
 -29149071.18949 -22687117.88047  15777312.6144   15777318.5974   15777312.8254
      6291.1834       4902.2214
 -29396598.08749 -21742938.48146  19044213.1754   19044216.8164   19044211.4514
      6543.5184       5098.8454
  -5967243.42749  -4579850.77746  17701857.1544   17701860.3414   17701857.6794
      9378.1054       7307.6144
 -26724988.75649 -20316169.72046  17925604.4744   17925612.0854   17925604.8844
      4476.1094       3487.8774
 -19079738.68349 -14840150.50546  19562361.7094   19562369.6464   19562362.2544
      3184.4034       2481.3534
 -15785397.77649 -12289278.31746  18706172.9534   18706176.0764   18706171.8044
      2827.8184       2203.4944
 -15302734.02049 -11880404.65746  17979530.4294   17979534.3764   17979530.5244
      7218.9394       5625.1474
 -14740351.84349 -11430889.35346  17763125.0524   17763129.4714   17763124.3844
      8213.1034       6399.8214
 -20039605.66349 -15590558.77346  17760098.7454   17760102.5564   17760098.1614
      3321.0884       2587.8614
 -17209399.43849 -13374735.67047  17261094.4124   17261101.6344   17261094.4024
      3607.7884       2811.2634
 05  4 25 14  3 14.9840000  0 10G 4G25G 2G 5G 1G 7G30G23G20G24
 -29243367.56849 -22760595.58047  15759368.6014   15759374.6934   15759368.9954
      6282.1264       4895.1634
 -29494680.83449 -21819366.54046  19025547.8554   19025553.2084   19025546.4464
      6534.5794       5091.8804
  -6107874.91449  -4689433.77846  17675096.9144   17675099.1344   17675096.3164
      9373.1534       7303.7564
 -26792059.93949 -20368433.01246  17912842.0614   17912845.9604   17912841.0934
      4467.0344       3480.8064
 -19127459.04949 -14877335.43846  19553282.0994   19553287.9464   19553280.8934
      3178.6194       2476.8464
 -15827785.51549 -12322307.70846  18698105.3464   18698111.1064   18698105.5884
      2824.1334       2200.6234
 -15410939.87149 -11964720.87746  17958939.8464   17958944.4614   17958939.9914
      7208.8534       5617.2884
 -14863482.42649 -11526835.25146  17739694.1934   17739698.6414   17739695.1294
      8204.6384       6393.2244
 -20089370.78249 -15629336.83746  17750632.7564   17750632.0694   17750631.5334
      3314.6094       2582.8124
 -17263470.83849 -13416869.23347  17250804.3974   17250811.5204   17250804.4554
      3602.1044       2806.8344
 05  4 25 14  3 29.9840000  0 10G 4G25G 2G 5G 1G 7G30G23G20G24
 -29337526.96649 -22833966.54047  15741451.0024   15741456.6274   15741451.0534
      6272.7054       4887.8224
 -29592628.95349 -21895689.78946  19006908.9684   19006914.0874   19006907.1214
      6525.3134       5084.6594
  -6248430.92549  -4798957.86346  17648349.1634   17648353.9214   17648349.7134
      9367.8414       7299.6164
 -26858993.95949 -20420589.37746  17900104.7934   17900110.5894   17900106.4244
      4457.6354       3473.4824
 -19175093.61349 -14914453.35945  19544218.1174   19544224.6694   19544216.6254
      3172.7664       2472.2854
 -15870116.55849 -12355292.95146  18690048.5344   18690056.3464   18690048.7374
      2820.0904       2197.4734
 -15518992.72649 -12048917.84346  17938378.0764   17938382.6954   17938377.5504
      7198.3524       5609.1054
 -14986485.07949 -11622681.46246  17716287.1994   17716291.8804   17716286.6144
      8195.8054       6386.3424
 -20139038.31249 -15668038.85046  17741182.0894   17741179.5374   17741180.2034
      3307.8654       2577.5574
 -17317456.41349 -13458935.93047  17240531.6964   17240538.2324   17240531.5464
      3596.1354       2802.1834
 05  4 25 14  3 44.9840000  0 10G 4G25G 2G 5G 1G 7G30G23G20G24
 -29431548.45249 -22907230.02747  15723559.4754   15723565.2764   15723559.3844
      6263.4964       4880.6464
 -29690441.26849 -21971907.21346  18988294.9934   18988300.5184   18988291.9784
      6516.2624       5077.6074
  -6388910.23849  -4908422.23446  17621617.4674   17621619.9754   17621617.9724
      9362.6914       7295.6034
 -26925790.35149 -20472638.54046  17887394.0684   17887398.2824   17887392.0634
      4448.4604       3466.3324
 -19222641.47649 -14951503.68645  19535170.2294   19535174.5474   19535168.9324
      3166.9264       2467.7354
 -15912390.28749 -12388233.56946  18682003.5384   18682012.6604   18682003.9134
      2816.3054       2194.5234
 -15626891.80649 -12132995.03246  17917845.1734   17917849.6784   17917845.3464
      7188.1104       5601.1254
 -15109358.54949 -11718427.01546  17692905.1324   17692909.5234   17692904.9504
      8187.2064       6379.6414
 -20188607.59749 -15706664.30646  17731746.9904   17731746.2674   17731744.9264
      3301.3234       2572.4594
 -17371355.57449 -13500935.28947  17230276.2184   17230281.2754   17230275.3484
      3590.3584       2797.6824
 05  4 25 14  3 59.9840000  0 10G 4G25G 2G 5G 1G 7G30G23G20G24
 -29525432.90249 -22980386.74347  15705693.9614   15705699.0604   15705693.5914
      6254.6014       4873.7154
 -29788118.35749 -22048019.18246  18969704.5314   18969712.2334   18969703.0254
      6507.5044       5070.7824
  -6529313.51949  -5017827.42046  17594898.5554   17594901.9914   17594896.7124
      9357.8924       7291.8644
 -26992450.06049 -20524580.98946  17874710.5574   17874714.0714   17874709.9144
      4439.6244       3459.4474
 -19270104.02349 -14988487.38845  19526139.1324   19526143.6574   19526137.7444
      3161.5354       2463.5344
 -15954607.74049 -12421130.29646  18673970.6264   18673978.6814   18673971.5244
      2812.7774       2191.7744
 -15734637.82549 -12216953.01646  17897340.7064   17897347.0744   17897340.8144
      7178.1014       5593.3254
 -15232103.38449 -11814072.31646  17669547.5334   17669551.0514   17669546.7334
      8178.8964       6373.1664
 -20238079.80249 -15745214.07746  17722327.0894   17722333.7244   17722325.5444
      3295.1124       2567.6204
 -17425169.25249 -13542868.05447  17220036.4714   17220041.9784   17220036.0324
      3584.8974       2793.4264
 05  4 25 14  4 14.9840000  0 11G 4G25G 2G 5G 1G 7G30G23G20G13G24
 -29619180.38049 -23053436.75647  15687854.3074   15687859.7134   15687854.1014
      6245.3594       4866.5144
 -29885660.45249 -22124026.00546  18951139.4614   18951149.3584   18951141.0104
      6498.3754       5063.6694
  -6669640.44249  -5127173.03847  17568196.2714   17568200.9914   17568196.9014
      9352.6244       7287.7594
 -27058973.50549 -20576417.48346  17862050.4254   17862054.4044   17862051.0584
      4430.4294       3452.2824
 -19317482.15849 -15025405.44845  19517123.3074   19517128.4104   19517122.1344
      3155.7234       2459.0054
 -15996769.22149 -12453983.42246  18665948.5154   18665954.8074   18665947.7644
      2808.9064       2188.7584
 -15842230.39349 -12300791.33746  17876865.9074   17876873.6444   17876865.7894
      7167.7664       5585.2724
 -15354719.38849 -11909617.25046  17646214.5304   17646216.4894   17646213.4104
      8170.1544       6366.3544
 -20287455.27549 -15783688.43346  17712926.2484   17712939.3844   17712927.8554
      3288.5384       2562.4974
   -401697.36754                  19059646.3564
      9676.1484       7539.8554
 -17478897.66149 -13584734.36947  17209812.6734   17209818.0984   17209812.2414
      3579.1174       2788.9224
 05  4 25 14  4 29.9840000  0 11G 4G25G 2G 5G 1G 7G30G23G20G13G24
 -29712790.07749 -23126379.38847  15670040.7274   15670046.5434   15670040.8934
      6236.0944       4859.2944
 -29983066.72749 -22199927.00546  18932601.9814   18932613.7444   18932604.3994
      6489.2214       5056.5364
  -6809890.05549  -5236458.42846  17541507.4364   17541508.3364   17541505.2424
      9347.4094       7283.6954
 -27125360.32749 -20628147.33846  17849418.7534   17849420.3004   17849416.7024
      4421.2544       3445.1334
 -19364775.24549 -15062257.24846  19508123.8094   19508129.0584   19508123.1224
      3150.0014       2454.5464
 -16038874.28449 -12486792.62046  18657936.8044   18657943.5114   18657935.0584
      2805.1114       2185.8014
 -15949668.66449 -12384509.45746  17856421.2694   17856428.0714   17856422.4594
      7157.3684       5577.1704
 -15477205.50149 -12005060.97546  17622906.4224   17622907.3634   17622904.8304
      8161.4344       6359.5594
 -20336733.39649 -15822086.96246  17703552.7574   17703563.1994   17703554.5434
      3281.9934       2557.3974
   -514760.97744                  19032032.8134
      9671.9594       7536.5914
 -17532540.41449 -13626533.93947  17199604.8674   17199610.8464   17199604.3874
      3573.3524       2784.4304
